[[{"header":{"parameterUnit":"m.s-1","parameterCategory":1,"la1":31.0,"la2":29.5877,"lo1":-88.7671,"lo2":-86.6584,"dx":0.0162,"dy":0.0185,"nx":115,"ny":88,"refTime":"2023-01-14T18:00:00:Z","depth":0,"parameterNumber":2,"parameterNumberName":"U-component_of_WINDS"},"data":[0.0,0.0,0.0,0.0,0.0,0.0,0.0,0.0,0.0,0.0,0.0,0.0,0.0,0.0,0.0,0.0,0.0,0.0,0.0,0.0,0.0,0.0,0.0,0.0,0.0,0.0,0.0,0.0,0.0,0.0,0.0,0.0,0.0,0.0,0.0,0.0,0.0,0.0,0.0,0.0,0.0,0.0,0.0,0.0,0.0,0.0,0.0,0.0,0.0,0.0,0.0,0.0,0.0,0.0,0.0,0.0,0.0,0.0,0.0,0.0,0.0,0.0,0.0,0.0,0.0,0.0,0.0,0.0,0.0,0.0,0.0,0.0,0.0,0.0,0.0,0.0,0.0,0.0,0.0,0.0,0.0,0.0,0.0,0.0,0.0,0.0,0.0,0.0,0.0,0.0,0.0,0.0,0.0,0.0,0.0,0.0,0.0,0.0,0.0,0.0,0.0,0.0,0.0,0.0,0.0,0.0,0.0,0.0,0.0,0.0,0.0,0.0,0.0,0.0,0.0,0.0,0.0,0.0,0.0,0.0,0.0,0.0,0.0,0.0,0.0,0.0,0.0,0.0,0.0,0.0,0.0,0.0,0.0,0.0,0.0,0.0,0.0,0.0,0.0,0.0,0.0,0.0,0.0,0.0,0.0,0.0,0.0,0.0,0.0,0.0,0.0,0.0,0.0,0.0,0.0,0.0,0.0,0.0,0.0,0.0,0.0,0.0,0.0,0.0,0.0,0.0,0.0,0.0,0.0,0.0,0.0,0.0,0.0,0.0,0.0,0.0,0.0,0.0,0.0,0.0,0.0,0.0,0.0,0.0,0.0,0.0,0.0,0.0,0.0,0.0,0.0,0.0,0.0,0.0,0.0,0.0,0.0,0.0,0.0,0.0,0.0,0.0,0.0,0.0,0.0,0.0,0.0,0.0,0.0,0.0,0.0,0.0,0.0,0.0,0.0,0.0,0.0,0.0,0.0,0.0,0.0,0.0,0.0,0.0,0.0,0.0,0.0,0.0,0.0,0.0,0.0,0.0,0.0,0.0,0.0,0.0,0.0,0.0,0.0,0.0,0.0,0.0,0.0,0.0,0.0,0.0,0.0,0.0,0.0,0.0,0.0,0.0,0.0,0.0,0.0,0.0,0.0,0.0,0.0,0.0,0.0,0.0,0.0,0.0,0.0,0.0,0.0,0.0,0.0,0.0,0.0,0.0,0.0,0.0,0.0,0.0,0.0,0.0,0.0,0.0,0.0,0.0,0.0,0.0,0.0,0.0,0.0,0.0,0.0,0.0,0.0,0.0,0.0,0.0,0.0,0.0,0.0,0.0,0.0,0.0,0.0,0.0,0.0,0.0,0.0,0.0,0.0,0.0,0.0,0.0,0.0,0.0,0.0,0.0,0.0,0.0,0.0,0.0,0.0,0.0,0.0,0.0,0.0,0.0,0.0,0.0,0.0,0.0,0.0,0.0,0.0,0.0,0.0,0.0,0.0,0.0,0.0,0.0,0.0,0.0,0.0,0.0,0.0,0.0,0.0,0.0,0.0,0.0,0.0,0.0,0.0,0.0,0.0,0.0,0.0,0.0,0.0,0.0,0.0,0.0,0.0,0.0,0.0,0.0,0.0,0.0,0.0,0.0,0.0,0.0,0.0,0.0,0.0,0.0,0.0,0.0,0.0,0.0,0.0,0.0,0.0,0.0,0.0,0.0,0.0,0.0,0.0,0.0,0.0,0.0,0.0,0.0,0.0,0.0,0.0,0.0,0.0,0.0,0.0,0.0,0.0,0.0,0.0,0.0,0.0,0.0,0.0,0.0,0.0,0.0,0.0,0.0,0.0,0.0,0.0,0.0,0.0,0.0,0.0,0.0,0.0,0.0,0.0,0.0,0.0,0.0,0.0,0.0,0.0,0.0,0.0,0.0,0.0,0.0,0.0,0.0,0.0,0.0,0.0,0.0,0.0,0.0,0.0,0.0,0.0,0.0,0.0,0.0,0.0,0.0,0.0,0.0,0.0,0.0,0.0,0.0,0.0,0.0,0.0,0.0,0.0,0.0,0.0,0.0,0.0,0.0,0.0,0.0,0.0,0.0,0.0,0.0,0.0,0.0,0.0,0.0,0.0,0.0,0.0,0.0,0.0,0.0,0.0,0.0,0.0,0.0,0.0,0.0,0.0,0.0,0.0,0.0,0.0,0.0,0.0,0.0,0.0,0.0,0.0,0.0,0.0,0.0,0.0,0.0,0.0,0.0,0.0,0.0,0.0,0.0,0.0,0.0,0.0,0.0,0.0,0.0,0.0,0.0,0.0,0.0,0.0,0.0,0.0,0.0,0.0,0.0,0.0,0.0,0.0,0.0,0.0,0.0,0.0,0.0,0.0,0.0,0.0,0.0,0.0,0.0,0.0,0.0,0.0,0.0,0.0,0.0,0.0,0.0,0.0,0.0,0.0,0.0,0.0,0.0,0.0,0.0,0.0,0.0,0.0,0.0,0.0,0.0,0.0,0.0,0.0,0.0,0.0,0.0,0.0,0.0,0.0,0.0,0.0,0.0,0.0,0.0,0.0,0.0,0.0,0.0,0.0,0.0,0.0,0.0,0.0,0.0,0.0,0.0,0.0,0.0,0.0,0.0,0.0,0.0,0.0,0.0,0.0,0.0,0.0,0.0,0.0,0.0,0.0,0.0,0.0,0.0,0.0,0.0,0.0,0.0,0.0,0.0,0.0,0.0,0.0,0.0,0.0,0.0,0.0,0.0,0.0,0.0,0.0,0.0,0.0,0.0,0.0,0.0,0.0,0.0,0.0,0.0,0.0,0.0,0.0,0.0,0.0,0.0,0.0,0.0,0.0,0.0,0.0,0.0,0.0,0.0,0.0,0.0,0.0,0.0,0.0,0.0,0.0,0.0,0.0,0.0,0.0,0.0,0.0,0.0,0.0,0.0,0.0,0.0,0.0,0.0,0.0,0.0,0.0,0.0,0.0,0.0,0.0,0.0,0.0,0.0,0.0,0.0,0.0,0.0,0.0,0.0,0.0,0.0,0.0,0.0,0.0,0.0,0.0,0.0,0.0,0.0,0.0,0.0,0.0,0.0,0.0,0.0,0.0,0.0,0.0,0.0,0.0,0.0,0.0,0.0,0.0,0.0,0.0,0.0,0.0,0.0,0.0,0.0,0.0,0.0,0.0,0.0,0.0,0.0,0.0,0.0,0.0,0.0,0.0,0.0,0.0,0.0,0.0,0.0,0.0,0.0,0.0,0.0,0.0,0.0,0.0,0.0,0.0,0.0,0.0,0.0,0.0,0.0,0.0,0.0,0.0,0.0,0.0,0.0,0.0,0.0,0.0,0.0,0.0,0.0,0.0,0.0,0.0,0.0,0.0,0.0,0.0,0.0,0.0,0.0,0.0,0.0,0.0,0.0,0.0,0.0,0.0,0.0,0.0,0.0,0.0,0.0,0.0,0.0,0.0,0.0,0.0,0.0,0.0,0.0,0.0,0.0,0.0,0.0,0.0,0.0,0.0,0.0,0.0,0.0,0.0,0.0,0.0,0.0,0.0,0.0,0.0,0.0,0.0,0.0,0.0,0.0,0.0,0.0,0.0,0.0,0.0,0.0,0.0,0.0,0.0,0.0,0.0,0.0,0.0,0.0,0.0,0.0,0.0,0.0,0.0,0.0,0.0,0.0,0.0,0.0,0.0,0.0,0.0,0.0,0.0,0.0,0.0,0.0,0.0,0.0,0.0,0.0,0.0,0.0,0.0,0.0,0.0,0.0,0.0,0.0,0.0,0.0,0.0,0.0,0.0,0.0,0.0,0.0,0.0,0.0,0.0,0.0,0.0,0.0,0.0,0.0,0.0,0.0,0.0,0.0,0.0,0.0,0.0,0.0,0.0,0.0,0.0,0.0,0.0,0.0,0.0,0.0,0.0,0.0,0.0,0.0,0.0,0.0,0.0,0.0,0.0,0.0,0.0,0.0,0.0,0.0,0.0,0.0,0.0,0.0,0.0,0.0,0.0,0.0,0.0,0.0,0.0,0.0,0.0,0.0,0.0,0.0,0.0,0.0,0.0,0.0,0.0,0.0,0.0,0.0,0.0,0.0,0.0,0.0,0.0,0.0,0.0,0.0,0.0,0.0,0.0,0.0,0.0,0.0,0.0,0.0,0.0,0.0,0.0,0.0,0.0,0.0,0.0,0.0,0.0,0.0,0.0,0.0,0.0,0.0,0.0,0.0,0.0,0.0,0.0,0.0,0.0,0.0,0.0,0.0,0.0,0.0,0.0,0.0,-1.0993,0.0,0.0,0.0,0.0,0.0,0.0,0.0,0.0,0.0,0.0,0.0,0.0,0.0,0.0,0.0,0.0,0.0,0.0,0.0,0.0,0.0,0.0,0.0,0.0,0.0,0.0,0.0,0.0,0.0,0.0,0.0,0.0,0.0,0.0,0.0,0.0,0.0,0.0,0.0,0.0,0.0,0.0,0.0,0.0,0.0,0.0,0.0,0.0,0.0,0.0,0.0,0.0,0.0,0.0,0.0,0.0,0.0,0.0,0.0,0.0,0.0,0.0,0.0,0.0,0.0,0.0,0.0,0.0,0.0,0.0,0.0,0.0,0.0,0.0,0.0,0.0,0.0,0.0,0.0,0.0,0.0,0.0,0.0,0.0,0.0,0.0,0.0,0.0,0.0,0.0,0.0,0.0,0.0,0.0,0.0,0.0,0.0,0.0,0.0,0.0,0.0,0.0,0.0,0.0,0.0,0.0,0.0,0.0,0.0,0.0,-1.3019,-1.3706,-1.1556,-1.0714,-1.1391,0.0,0.0,0.0,0.0,0.0,0.0,0.0,0.0,0.0,0.0,0.0,0.0,0.0,0.0,0.0,0.0,0.0,0.0,0.0,0.0,0.0,0.0,0.0,0.0,0.0,0.0,0.0,0.0,0.0,0.0,0.0,0.0,0.0,0.0,0.0,0.0,0.0,0.0,0.0,0.0,0.0,0.0,0.0,0.0,0.0,0.0,0.0,0.0,0.0,0.0,0.0,0.0,0.0,0.0,0.0,0.0,0.0,0.0,0.0,0.0,0.0,0.0,0.0,0.0,0.0,0.0,0.0,0.0,0.0,0.0,0.0,0.0,0.0,0.0,0.0,0.0,0.0,0.0,0.0,0.0,0.0,0.0,0.0,0.0,0.0,0.0,0.0,0.0,0.0,0.0,0.0,0.0,0.0,0.0,0.0,0.0,0.0,0.0,0.0,0.0,0.0,0.0,0.0,0.0,0.0,0.0,0.0,0.0,0.0,0.0,0.0,0.0,-1.1813,-1.0882,-1.1034,0.0,0.0,0.0,0.0,0.0,0.0,0.0,0.0,0.0,0.0,0.0,0.0,0.0,0.0,0.0,0.0,0.0,0.0,0.0,0.0,0.0,0.0,0.0,0.0,0.0,0.0,0.0,0.0,0.0,0.0,0.0,0.0,0.0,0.0,0.0,0.0,0.0,0.0,0.0,0.0,0.0,0.0,0.0,0.0,0.0,0.0,0.0,0.0,0.0,0.0,0.0,0.0,0.0,0.0,0.0,0.0,0.0,0.0,0.0,0.0,0.0,0.0,0.0,0.0,0.0,0.0,0.0,0.0,0.0,0.0,0.0,0.0,0.0,0.0,0.0,0.0,0.0,0.0,0.0,0.0,0.0,0.0,0.0,0.0,0.0,0.0,0.0,0.0,0.0,0.0,0.0,0.0,0.0,0.0,0.0,0.0,0.0,0.0,0.0,0.0,0.0,0.0,0.0,0.0,0.0,0.0,0.0,0.0,0.0,0.0,-1.3761,-1.3089,-1.2171,0.0,-0.9641,0.0,0.0,0.0,0.0,0.0,0.0,0.0,0.0,0.0,0.0,0.0,0.0,0.0,0.0,0.0,0.0,0.0,0.0,0.0,0.0,0.0,0.0,0.0,0.0,0.0,0.0,0.0,0.0,0.0,0.0,0.0,0.0,0.0,0.0,0.0,0.0,0.0,0.0,0.0,0.0,0.0,0.0,0.0,0.0,0.0,0.0,0.0,0.0,0.0,0.0,0.0,0.0,0.0,0.0,0.0,0.0,0.0,0.0,0.0,0.0,0.0,0.0,0.0,0.0,0.0,0.0,0.0,0.0,0.0,0.0,0.0,0.0,0.0,0.0,0.0,0.0,0.0,0.0,0.0,0.0,0.0,0.0,0.0,0.0,0.0,0.0,0.0,0.0,0.0,0.0,0.0,0.0,0.0,0.0,0.0,0.0,0.0,0.0,0.0,0.0,0.0,0.0,0.0,0.0,0.0,0.0,0.0,0.0,0.0,0.0,-1.3511,-1.3183,-1.1946,-1.0676,0.0,0.0,0.0,0.0,0.0,0.0,0.0,0.0,0.0,0.0,0.0,0.0,0.0,0.0,0.0,0.0,0.0,0.0,0.0,0.0,0.0,0.0,0.0,0.0,0.0,0.0,0.0,0.0,0.0,0.0,0.0,0.0,0.0,0.0,0.0,0.0,0.0,0.0,0.0,0.0,0.0,0.0,0.0,0.0,0.0,0.0,0.0,0.0,0.0,0.0,0.0,0.0,0.0,0.0,0.0,0.0,0.0,0.0,0.0,0.0,0.0,0.0,0.0,0.0,0.0,0.0,0.0,0.0,0.0,0.0,0.0,0.0,0.0,0.0,0.0,0.0,0.0,0.0,0.0,0.0,0.0,0.0,0.0,0.0,0.0,0.0,0.0,0.0,0.0,0.0,0.0,0.0,0.0,0.0,0.0,0.0,0.0,0.0,0.0,0.0,0.0,0.0,0.0,0.0,0.0,0.0,0.0,0.0,0.0,0.0,-1.3357,-1.3065,-1.264,-1.1521,-1.0443,-0.946,0.0,0.0,0.0,0.0,0.0,0.0,0.0,0.0,0.0,0.0,0.0,0.0,0.0,0.0,0.0,0.0,0.0,0.0,0.0,0.0,0.0,0.0,0.0,0.0,0.0,0.0,0.0,0.0,0.0,0.0,0.0,0.0,0.0,0.0,0.0,0.0,0.0,0.0,0.0,0.0,0.0,0.0,0.0,0.0,0.0,0.0,0.0,0.0,0.0,0.0,0.0,0.0,0.0,0.0,0.0,0.0,0.0,0.0,0.0,0.0,0.0,0.0,0.0,0.0,0.0,0.0,0.0,0.0,0.0,0.0,0.0,0.0,0.0,0.0,0.0,0.0,0.0,0.0,0.0,0.0,0.0,0.0,0.0,0.0,0.0,0.0,0.0,0.0,0.0,0.0,0.0,0.0,0.0,0.0,0.0,0.0,0.0,0.0,0.0,0.0,0.0,0.0,0.0,0.0,0.0,0.0,0.0,0.0,0.0,-1.2971,-1.2467,-1.1176,-1.0971,-1.0447,0.0,0.0,0.0,0.0,0.0,0.0,0.0,0.0,0.0,0.0,0.0,0.0,0.0,0.0,0.0,0.0,0.0,0.0,0.0,0.0,0.0,0.0,0.0,0.0,0.0,0.0,0.0,0.0,0.0,0.0,0.0,0.0,0.0,0.0,0.0,0.0,0.0,0.0,0.0,0.0,0.0,0.0,0.0,0.0,0.0,0.0,0.0,0.0,0.0,0.0,0.0,0.0,0.0,0.0,0.0,0.0,0.0,0.0,0.0,0.0,0.0,0.0,0.0,0.0,0.0,0.0,0.0,0.0,0.0,0.0,0.0,0.0,0.0,0.0,0.0,0.0,0.0,0.0,0.0,0.0,0.0,0.0,0.0,0.0,0.0,0.0,0.0,0.0,0.0,0.0,0.0,0.0,0.0,0.0,0.0,0.0,0.0,0.0,0.0,0.0,0.0,0.0,0.0,0.0,0.0,0.0,0.0,0.0,0.0,-1.2693,-1.2092,-1.1314,-1.041,-1.0266,-0.9998,0.0,0.0,0.0,0.0,0.0,0.0,0.0,0.0,0.0,0.0,0.0,0.0,0.0,0.0,0.0,0.0,0.0,0.0,0.0,0.0,0.0,0.0,0.0,0.0,0.0,0.0,0.0,0.0,0.0,0.0,0.0,0.0,0.0,0.0,0.0,0.0,0.0,0.0,0.0,0.0,0.0,0.0,0.0,0.0,0.0,0.0,0.0,0.0,0.0,0.0,0.0,0.0,0.0,0.0,0.0,0.0,0.0,0.0,0.0,0.0,0.0,0.0,0.0,0.0,0.0,0.0,0.0,0.0,0.0,0.0,0.0,0.0,0.0,0.0,0.0,0.0,0.0,0.0,0.0,0.0,0.0,0.0,0.0,0.0,0.0,0.0,0.0,0.0,0.0,0.0,0.0,0.0,0.0,0.0,0.0,0.0,0.0,0.0,0.0,0.0,0.0,0.0,0.0,0.0,0.0,0.0,0.0,0.0,0.0,-1.2442,0.0,-1.1374,-1.0468,-1.0301,-1.0096,0.0,0.0,0.0,0.0,0.0,0.0,0.0,0.0,0.0,0.0,0.0,0.0,0.0,0.0,0.0,0.0,0.0,0.0,0.0,0.0,0.0,0.0,0.0,0.0,0.0,0.0,0.0,0.0,0.0,0.0,0.0,0.0,0.0,0.0,0.0,0.0,0.0,0.0,0.0,0.0,0.0,0.0,0.0,0.0,0.0,0.0,0.0,0.0,0.0,0.0,0.0,0.0,0.0,0.0,0.0,0.0,0.0,0.0,0.0,0.0,0.0,0.0,0.0,0.0,0.0,0.0,0.0,0.0,0.0,0.0,0.0,0.0,0.0,0.0,0.0,0.0,0.0,0.0,0.0,0.0,0.0,0.0,0.0,0.0,0.0,0.0,0.0,0.0,0.0,0.0,0.0,0.0,0.0,0.0,0.0,0.0,0.0,0.0,0.0,0.0,0.0,0.0,0.0,0.0,0.0,0.0,0.0,0.0,-1.2164,-1.1911,-1.2873,-1.267,-1.1364,-1.1192,-1.0744,0.0,0.0,0.0,0.0,0.0,0.0,0.0,0.0,0.0,0.0,0.0,0.0,0.0,0.0,0.0,0.0,0.0,0.0,0.0,0.0,0.0,0.0,0.0,0.0,0.0,0.0,0.0,0.0,0.0,0.0,0.0,0.0,0.0,0.0,0.0,0.0,0.0,0.0,0.0,0.0,0.0,0.0,0.0,0.0,0.0,0.0,0.0,0.0,0.0,0.0,0.0,0.0,0.0,0.0,0.0,0.0,0.0,0.0,0.0,0.0,0.0,0.0,0.0,0.0,0.0,0.0,0.0,0.0,0.0,0.0,0.0,0.0,0.0,0.0,0.0,0.0,0.0,0.0,0.0,0.0,0.0,0.0,0.0,0.0,0.0,0.0,0.0,0.0,0.0,0.0,0.0,0.0,0.0,0.0,0.0,0.0,0.0,0.0,0.0,0.0,0.0,0.0,0.0,0.0,0.0,0.0,0.0,0.0,0.0,-1.0316,-1.1882,-1.23,-1.1412,-1.1307,-1.1092,0.0,0.0,0.0,0.0,0.0,0.0,0.0,0.0,0.0,0.0,0.0,0.0,0.0,0.0,0.0,0.0,0.0,0.0,0.0,0.0,0.0,0.0,0.0,0.0,0.0,0.0,0.0,0.0,0.0,0.0,0.0,0.0,0.0,0.0,0.0,0.0,0.0,0.0,0.0,0.0,0.0,0.0,0.0,0.0,0.0,0.0,0.0,0.0,0.0,0.0,0.0,0.0,0.0,0.0,0.0,0.0,0.0,0.0,0.0,0.0,0.0,0.0,0.0,0.0,0.0,0.0,0.0,0.0,0.0,0.0,0.0,0.0,0.0,0.0,0.0,0.0,0.0,0.0,0.0,0.0,0.0,0.0,0.0,0.0,0.0,0.0,0.0,0.0,0.0,0.0,0.0,0.0,0.0,0.0,0.0,0.0,0.0,0.0,0.0,0.0,0.0,0.0,0.0,0.0,0.0,0.0,0.0,0.0,0.0,-1.0743,-1.2311,-1.2933,-1.2301,-1.1979,-1.1614,-1.1209,0.0,0.0,0.0,0.0,0.0,0.0,0.0,0.0,0.0,0.0,0.0,0.0,0.0,0.0,0.0,0.0,0.0,0.0,0.0,0.0,0.0,0.0,0.0,0.0,0.0,0.0,0.0,0.0,0.0,0.0,0.0,0.0,0.0,0.0,0.0,0.0,0.0,0.0,0.0,0.0,0.0,0.0,0.0,0.0,0.0,0.0,0.0,0.0,0.0,0.0,0.0,0.0,0.0,0.0,0.0,0.0,0.0,0.0,0.0,0.0,0.0,0.0,0.0,0.0,0.0,0.0,0.0,0.0,0.0,0.0,0.0,0.0,0.0,0.0,0.0,0.0,0.0,0.0,0.0,0.0,0.0,0.0,0.0,0.0,0.0,0.0,0.0,0.0,0.0,0.0,0.0,0.0,0.0,0.0,0.0,0.0,0.0,0.0,0.0,0.0,0.0,0.0,0.0,0.0,0.0,0.0,0.0,0.0,-1.247,-1.389,-1.441,-1.3927,-1.3164,-1.2306,0.0,0.0,0.0,0.0,0.0,0.0,0.0,0.0,0.0,0.0,0.0,0.0,0.0,0.0,0.0,0.0,0.0,0.0,0.0,0.0,0.0,0.0,0.0,0.0,0.0,0.0,0.0,0.0,0.0,0.0,0.0,0.0,0.0,0.0,0.0,0.0,0.0,0.0,0.0,0.0,0.0,0.0,0.0,0.0,0.0,0.0,0.0,0.0,0.0,0.0,0.0,0.0,0.0,0.0,0.0,0.0,0.0,0.0,0.0,0.0,0.0,0.0,0.0,0.0,0.0,0.0,0.0,0.0,0.0,0.0,0.0,0.0,0.0,0.0,0.0,0.0,0.0,0.0,0.0,0.0,0.0,0.0,0.0,0.0,0.0,0.0,0.0,0.0,0.0,0.0,0.0,0.0,0.0,0.0,0.0,0.0,0.0,0.0,0.0,0.0,0.0,0.0,0.0,0.0,0.0,0.0,0.0,0.0,0.0,-1.2313,-1.4084,-1.5186,-1.546,-1.4297,-1.3437,0.0,0.0,0.0,0.0,0.0,0.0,0.0,0.0,0.0,0.0,0.0,0.0,0.0,0.0,0.0,0.0,0.0,0.0,0.0,0.0,0.0,0.0,0.0,0.0,0.0,0.0,0.0,0.0,0.0,0.0,0.0,0.0,0.0,0.0,0.0,0.0,0.0,0.0,0.0,0.0,0.0,0.0,0.0,0.0,0.0,0.0,0.0,0.0,0.0,0.0,0.0,0.0,0.0,0.0,0.0,0.0,0.0,0.0,0.0,0.0,0.0,0.0,0.0,0.0,0.0,0.0,0.0,0.0,0.0,0.0,0.0,0.0,0.0,0.0,0.0,0.0,0.0,0.0,0.0,0.0,0.0,0.0,0.0,0.0,0.0,0.0,0.0,0.0,0.0,0.0,0.0,0.0,0.0,0.0,0.0,0.0,0.0,0.0,0.0,0.0,0.0,0.0,0.0,0.0,0.0,0.0,0.0,0.0,-1.1589,-1.2942,-1.4536,-1.5941,-1.7115,-1.5393,-1.4043,0.0,0.0,0.0,0.0,0.0,0.0,0.0,0.0,0.0,0.0,0.0,0.0,0.0,0.0,0.0,0.0,0.0,0.0,0.0,0.0,0.0,0.0,0.0,0.0,0.0,0.0,0.0,0.0,0.0,0.0,0.0,0.0,0.0,0.0,0.0,0.0,0.0,0.0,0.0,0.0,0.0,0.0,0.0,0.0,0.0,0.0,0.0,0.0,0.0,0.0,0.0,0.0,0.0,0.0,0.0,0.0,0.0,0.0,0.0,0.0,0.0,0.0,0.0,0.0,0.0,0.0,0.0,0.0,0.0,0.0,0.0,0.0,0.0,0.0,0.0,0.0,0.0,0.0,0.0,0.0,0.0,0.0,0.0,0.0,0.0,0.0,0.0,0.0,0.0,0.0,0.0,0.0,0.0,0.0,0.0,0.0,0.0,0.0,0.0,0.0,0.0,0.0,0.0,0.0,0.0,0.0,0.0,0.0,-1.1697,-1.3618,-1.4785,-1.6268,-1.8018,-1.6239,-1.4424,0.0,0.0,0.0,0.0,0.0,0.0,0.0,0.0,0.0,0.0,0.0,0.0,0.0,0.0,0.0,0.0,0.0,0.0,0.0,0.0,0.0,0.0,0.0,0.0,0.0,0.0,0.0,0.0,0.0,0.0,0.0,0.0,0.0,0.0,0.0,0.0,0.0,0.0,0.0,0.0,0.0,0.0,0.0,0.0,0.0,0.0,0.0,0.0,0.0,0.0,0.0,0.0,0.0,0.0,0.0,0.0,0.0,0.0,0.0,0.0,0.0,0.0,0.0,0.0,0.0,0.0,0.0,0.0,0.0,0.0,0.0,0.0,0.0,0.0,0.0,0.0,0.0,0.0,0.0,0.0,0.0,0.0,0.0,0.0,0.0,0.0,0.0,0.0,0.0,0.0,0.0,0.0,0.0,0.0,0.0,0.0,0.0,0.0,0.0,0.0,0.0,0.0,0.0,0.0,0.0,0.0,0.0,0.0,-1.0608,-1.1398,-1.3005,-1.4343,-1.5341,-1.5727,-1.5403,0.0,0.0,0.0,0.0,0.0,0.0,0.0,0.0,0.0,0.0,0.0,0.0,0.0,0.0,0.0,0.0,0.0,0.0,0.0,0.0,0.0,0.0,0.0,0.0,0.0,0.0,0.0,0.0,0.0,0.0,0.0,0.0,0.0,0.0,0.0,0.0,0.0,0.0,0.0,0.0,0.0,0.0,0.0,0.0,0.0,0.0,0.0,0.0,0.256,0.0,0.0,0.0,0.0,0.0,0.0,0.0,0.0,0.0,0.0,0.0,0.0,0.0,0.0,0.0,0.0,0.0,0.0,0.0,0.0,0.0,0.0,0.0,0.0,0.0,0.0,0.0,0.0,0.0,0.0,0.0,0.0,0.0,0.0,0.0,0.0,0.0,0.0,0.0,0.0,0.0,0.0,0.0,0.0,0.0,0.0,0.0,0.0,0.0,0.0,0.0,0.0,0.0,0.0,0.0,0.0,0.0,0.0,0.0,-0.9957,-1.0752,-1.2058,-1.3417,-1.4822,-1.5706,-1.5478,0.0,0.0,0.0,0.0,0.0,0.0,0.0,0.0,0.0,0.0,0.0,0.0,0.0,0.0,0.0,0.0,0.0,0.0,0.0,0.0,0.0,0.0,0.0,0.0,0.0,0.0,0.0,0.0,0.0,0.0,0.0,0.0,0.0,0.0,0.0,0.0,0.0,0.0,0.0,0.0,0.0,0.0,0.0,0.0,0.0,0.0,0.0,0.0,0.0,0.0,0.0,0.0,0.0,0.0,0.0,0.0,0.0,0.0,0.0,0.0,0.0,0.0,0.0,0.0,0.0,0.0,0.0,0.0,0.0,0.0,0.0,0.0,0.0,0.0,0.0,0.0,0.0,0.0,0.0,0.0,0.0,0.0,0.0,0.0,0.0,0.0,0.0,0.0,0.0,0.0,0.0,0.0,0.0,0.0,0.0,0.0,0.0,0.0,0.0,0.0,0.0,0.0,0.0,0.0,0.0,0.0,0.0,-0.8638,-0.9358,-1.0414,-1.1236,-1.2692,-1.4842,-1.5579,-1.5012,-1.3052,0.0,0.0,0.0,0.0,0.0,0.0,0.0,0.0,0.0,0.0,0.0,0.0,0.0,0.0,0.0,0.0,0.0,0.0,0.0,0.0,0.0,0.0,0.0,0.0,0.0,0.0,0.0,0.0,0.0,0.0,0.0,0.0,0.0,0.0,0.0,0.0,0.0,0.0,-0.545,-0.5579,0.0,0.0,0.0,0.0,0.0,0.0,0.0,0.0,0.0322,0.0,0.0,0.0,0.0,0.0,0.0,0.0,0.0,0.0,0.0,0.0,0.0,0.0,0.0,0.0,0.0,0.0,0.0,0.0,0.0,0.0,0.0,0.0,0.0,0.0,0.0,0.0,0.0,0.0,0.0,0.0,0.0,0.0,0.0,0.0,0.0,0.0,0.0,0.0,0.0,0.0,0.0,0.0,0.0,0.0,0.0,0.0,0.0,0.0,0.0,0.0,0.0,0.0,0.0,0.0,0.0,-0.853,-0.8293,-0.8379,-0.8867,-0.9667,-1.1082,-1.3122,-1.4233,-1.4159,-1.2899,0.0,0.0,0.0,0.0,0.0,0.0,0.0,0.0,0.0,0.0,0.0,0.0,0.0,0.0,0.0,0.0,0.0,0.0,0.0,0.0,0.0,0.0,0.0,0.0,0.0,0.0,0.0,0.0,0.0,0.0,0.0,0.0,0.0,0.0,0.0,0.0,0.0,0.0,0.0,-0.5694,-0.5674,0.0,0.0,0.0,0.0,0.0,0.0,0.0,0.0,-0.1086,0.0,0.0,0.0,0.0,0.0,0.0,0.0,0.0,0.0,0.0,0.0,0.0,0.0,0.0,0.0,0.0,0.0,0.0,0.0,0.0,0.0,0.0,0.0,0.0,0.0,0.0,0.0,0.0,0.0,0.0,0.0,0.0,0.0,0.0,0.0,0.0,0.0,0.0,0.0,0.0,0.0,0.0,0.0,0.0,0.0,0.0,0.0,0.0,0.0,0.0,0.0,0.0,0.0,0.0,0.0,-0.8043,-0.8153,-0.8167,-0.8122,-0.9237,-1.0631,-1.2283,-1.3629,-1.3786,0.0,0.0,0.0,0.0,0.0,0.0,0.0,0.0,0.0,0.0,0.0,0.0,0.0,0.0,0.0,0.0,0.0,0.0,0.0,0.0,0.0,0.0,0.0,0.0,0.0,0.0,0.0,0.0,0.0,0.0,0.0,0.0,0.0,0.0,0.0,0.0,0.0,0.0,0.0,0.0,-0.5052,-0.5051,-0.5125,0.0,0.0,0.0,0.0,0.0,0.0,-0.3106,-0.315,0.0,0.0,0.0,0.0,0.0,0.0,0.0,0.0,0.0,0.0,0.0,0.0,0.0,0.0,0.0,0.0,0.0,0.0,0.0,0.0,0.0,0.0,0.0,0.0,0.0,0.0,0.0,0.0,0.0,0.0,0.0,0.0,0.0,0.0,0.0,0.0,0.0,0.0,0.0,0.0,0.0,0.0,0.0,0.0,0.0,0.0,0.0,0.0,0.0,0.0,0.0,0.0,0.0,0.0,0.0,-0.7508,-0.7922,-0.8017,-0.7821,-0.9044,-1.0396,-1.1744,-1.3141,-1.3325,0.0,0.0,0.0,0.0,0.0,0.0,0.0,0.0,0.0,0.0,0.0,0.0,0.0,0.0,0.0,0.0,0.0,0.0,0.0,0.0,0.0,0.0,0.0,0.0,0.0,0.0,0.0,0.0,0.0,0.0,0.0,0.0,0.0,0.0,0.0,0.0,0.0,0.0,0.0,0.0,0.0,-0.4311,-0.4798,-0.5049,0.0,0.0,0.0,0.0,-0.4725,-0.5064,0.0,0.0,0.0,0.0,0.0,0.0,0.0,0.0,0.0,0.0,0.0,0.0,0.0,0.0,0.0,0.0,0.0,0.0,0.0,0.0,0.0,0.0,0.0,0.0,0.0,0.0,0.0,0.0,0.0,0.0,0.0,0.0,0.0,0.0,0.0,0.0,0.0,0.0,0.0,0.0,0.0,0.0,0.0,0.0,0.0,0.0,0.0,0.0,0.0,0.0,0.0,0.0,0.0,0.0,0.0,0.0,-0.7409,-0.7311,-0.7468,-0.7886,-0.8512,-0.964,-1.1341,-1.2286,-1.2391,0.0,0.0,0.0,0.0,0.0,0.0,0.0,0.0,0.0,0.0,0.0,0.0,0.0,0.0,0.0,0.0,0.0,0.0,0.0,0.0,0.0,0.0,0.0,0.0,0.0,0.0,0.0,0.0,0.0,0.0,0.0,0.0,0.0,0.0,0.0,0.0,0.0,0.0,0.0,0.0,0.0,-0.4031,-0.5237,-0.5245,-0.5243,0.0,0.0,-0.6039,-0.5755,-0.6257,0.0,0.0,0.0,0.0,0.0,0.0,0.0,0.0,0.0,0.0,0.0,0.0,0.0,0.0,0.0,0.0,0.0,0.0,0.0,0.0,0.0,0.0,0.0,0.0,0.0,0.0,0.0,0.0,0.0,0.0,0.0,0.0,0.0,0.0,0.0,0.0,0.0,0.0,0.0,0.0,0.0,0.0,0.0,0.0,0.0,0.0,0.0,0.0,0.0,0.0,0.0,0.0,0.0,0.0,0.0,-0.6808,-0.7155,-0.6857,-0.6851,-0.717,-0.8019,-0.9043,-1.0213,-1.1481,-1.1678,0.0,0.0,0.0,0.0,0.0,0.0,0.0,0.0,0.0,0.0,0.0,0.0,0.0,0.0,0.0,0.0,0.0,0.0,0.0,0.0,0.0,0.0,0.0,0.0,0.0,0.0,0.0,0.0,0.0,0.0,0.0,0.0,0.0,0.0,0.0,0.0,0.0,0.0,0.0,0.0,0.0,0.0,-0.4011,-0.3954,0.0,0.0,0.0,-0.5864,-0.6349,0.0,0.0,0.0,0.0,0.0,0.0,0.0,0.0,0.0,0.0,0.0,0.0,0.0,0.0,0.0,0.0,0.0,0.0,0.0,0.0,0.0,0.0,0.0,0.0,0.0,0.0,0.0,0.0,0.0,0.0,0.0,0.0,0.0,0.0,0.0,0.0,0.0,0.0,0.0,0.0,0.0,0.0,0.0,0.0,0.0,0.0,0.0,0.0,0.0,0.0,0.0,0.0,0.0,0.0,0.0,0.0,0.0,-0.6658,-0.6425,-0.6386,-0.6578,-0.7746,-0.8821,-0.9715,-1.1211,0.0,0.0,0.0,0.0,0.0,0.0,0.0,0.0,0.0,0.0,0.0,0.0,0.0,0.0,0.0,0.0,0.0,0.0,0.0,0.0,0.0,0.0,0.0,0.0,0.0,0.0,0.0,0.0,0.0,0.0,0.0,0.0,0.0,0.0,0.0,0.0,0.0,0.0,0.0,0.0,0.0,0.0,-0.1455,-0.2707,-0.256,-0.2573,0.0,0.0,-0.4313,-0.5668,-0.6047,-0.6301,0.0,0.0,0.0,0.0,0.0,0.0,0.0,0.0,0.0,0.0,0.0,0.0,0.0,0.0,0.0,0.0,0.0,0.0,0.0,0.0,0.0,0.0,0.0,0.0,0.0,0.0,0.0,0.0,0.0,0.0,0.0,0.0,0.0,0.0,0.0,0.0,0.0,0.0,0.0,0.0,0.0,0.0,0.0,0.0,0.0,0.0,0.0,0.0,0.0,0.0,0.0,0.0,0.0,0.0,0.0,-0.5798,-0.5946,-0.6139,-0.6442,-0.7854,-0.9226,-1.058,-1.186,-1.2041,0.0,0.0,0.0,0.0,0.0,0.0,0.0,0.0,0.0,0.0,0.0,0.0,0.0,0.0,0.0,0.0,0.0,0.0,0.0,0.0,0.0,0.0,0.0,0.0,0.0,0.0,0.0,0.0,0.0,0.0,0.0,0.0,0.0,0.0,0.0,0.0,0.0,0.0,0.0,0.0,0.0,-0.083,-0.1848,-0.1452,-0.1059,0.0,0.0,-0.0679,-0.3,-0.3531,-0.4172,-0.565,0.0,0.0,0.0,0.0,0.0,0.0,0.0,0.0,0.0,0.0,0.0,0.0,0.0,0.0,0.0,0.0,0.0,0.0,0.0,0.0,0.0,0.0,0.0,0.0,0.0,0.0,0.0,0.0,0.0,0.0,0.0,0.0,0.0,0.0,0.0,0.0,0.0,0.0,0.0,0.0,0.0,0.0,0.0,0.0,0.0,0.0,0.0,0.0,0.0,0.0,0.0,0.0,0.0,-0.4999,-0.5674,-0.5162,-0.5162,-0.5737,-0.6768,-0.7766,-0.8691,-1.0623,-1.1346,0.0,0.0,0.0,0.0,0.0,0.0,0.0,0.0,0.0,0.0,0.0,0.0,0.0,0.0,0.0,0.0,0.0,0.0,0.0,0.0,0.0,0.0,0.0,0.0,0.0,0.0,0.0,0.0,-0.3298,-0.3136,-0.3333,0.0,0.0,0.0,0.0,0.0,0.0,0.0,0.0,0.0,0.0,0.0,-0.0218,-0.0306,0.0,0.0,0.0188,-0.0253,-0.1914,-0.3036,-0.4089,-0.5239,-0.6042,0.0,0.0,0.0,0.0,0.0,0.0,0.0,0.0,0.0,0.0,0.0,0.0,0.0,0.0,0.0,0.0,0.0,0.0,0.0,0.0,0.0,0.0,0.0,0.0,0.0,0.0,0.0,0.0,0.0,0.0,0.0,0.0,0.0,0.0,0.0,0.0,0.0,0.0,0.0,0.0,0.0,0.0,0.0,0.0,0.0,0.0,0.0,0.0,0.0,0.0,0.0,0.0,-0.4632,-0.5449,-0.4729,-0.4636,-0.5222,-0.597,-0.6798,-0.7796,-0.9705,-1.0695,0.0,0.0,0.0,0.0,0.0,0.0,0.0,0.0,0.0,0.0,0.0,0.0,0.0,0.0,0.0,0.0,0.0,0.0,0.0,0.0,0.0,0.0,0.0,0.0,0.0,0.0,0.0,0.0,-0.2771,-0.2495,-0.2822,0.0,0.0,0.0,0.0,0.0,0.0,0.0,0.0,0.0,0.0,0.0989,0.0978,0.0843,0.0743,0.0671,0.0753,0.0427,-0.0722,-0.2057,-0.3217,-0.3935,0.0,0.0,0.0,0.0,0.0,0.0,0.0,0.0,0.0,0.0,0.0,0.0,0.0,0.0,0.0,0.0,0.0,0.0,0.0,0.0,0.0,0.0,0.0,0.0,0.0,0.0,0.0,0.0,0.0,0.0,-1.4428,0.0,0.0,0.0,0.0,0.0,0.0,0.0,0.0,0.0,0.0,0.0,0.0,0.0,0.0,0.0,0.0,0.0,0.0,0.0,0.0,0.0,0.0,-0.4798,-0.4918,-0.4723,-0.4796,-0.5074,-0.571,-0.6764,-0.8352,-0.9522,-1.0255,-1.0569,0.0,0.0,0.0,0.0,0.0,0.0,0.0,0.0,0.0,0.0,0.0,0.0,0.0,0.0,0.0,0.0,0.0,0.0,0.0,0.0,0.0,0.0,0.0,0.0,0.0,0.0,-0.3399,-0.237,-0.164,0.0,0.0,0.0,0.0,0.0,0.0,0.0,0.0,0.0,0.0,0.1427,0.2111,0.1483,0.1971,0.2002,0.0987,0.1601,0.1837,0.0755,-0.0197,-0.0921,0.0,0.0,0.0,0.0,0.0,0.0,0.0,0.0,0.0,0.0,0.0,0.0,0.0,0.0,0.0,0.0,0.0,0.0,0.0,0.0,0.0,0.0,0.0,0.0,0.0,0.0,0.0,-1.6229,-1.5972,0.0,0.0,0.0,0.0,0.0,0.0,0.0,0.0,0.0,0.0,0.0,-1.2676,-1.4055,0.0,0.0,0.0,0.0,0.0,0.0,0.0,0.0,0.0,0.0,0.0,0.0,-0.4129,-0.433,-0.3802,-0.3663,-0.3966,-0.465,-0.56,-0.6892,-0.8338,-0.949,-1.0294,0.0,0.0,0.0,0.0,0.0,0.0,0.0,0.0,0.0,0.0,0.0,0.0,0.0,0.0,0.0,0.0,0.0,0.0,0.0,0.0,0.0,0.0,0.0,0.0,0.0,-0.2916,0.0,0.0,0.0,0.0,0.0,0.0,0.0,0.0,0.0,0.0,0.0,0.0078,0.1235,0.1483,0.163,0.1827,0.1803,0.1923,0.0,0.0,0.0,0.0,0.0,0.0,0.0,0.0,0.0,0.0,0.0,0.0,0.0,0.0,-0.3416,-0.3516,-0.2986,-0.2447,-0.2154,0.0,0.0,0.0,0.0,0.0,0.0,0.0,0.0,0.0,0.0,0.0,0.0,0.0,0.0,0.0,0.0,-1.588,0.0,0.0,0.0,0.0,0.0,0.0,0.0,0.0,-1.4033,-1.3907,-1.2614,-1.4,-1.3983,0.0,-1.2771,-1.2152,0.0,0.0,0.0,0.0,0.0,0.0,0.0,0.0,-0.4013,-0.4122,-0.3435,-0.3159,-0.3377,-0.386,-0.4573,-0.5556,-0.7364,-0.8851,-0.9851,-0.9965,-0.9521,0.0,0.0,0.0,0.0,0.0,0.0,0.0,0.0,0.0,0.0,0.0,0.0,0.0,0.0,0.0,0.0,0.0,0.0,0.0,0.0,0.0,0.0,0.0,-0.244,0.0,0.0,0.0,0.0,0.0,0.0,0.0,0.0,0.0,-0.0327,0.0102,0.0848,0.2073,0.2177,0.2047,0.1854,0.0,0.0,0.0,0.0,0.0,0.0,0.0,-0.1844,-0.2496,-0.2799,-0.2836,-0.2451,-0.2387,-0.2196,-0.154,0.0,0.0,-0.2386,-0.1945,-0.1411,-0.1102,-0.0774,-0.0411,0.004,0.0658,0.1297,0.0,0.0,0.0,0.0,0.0,0.0,0.0,0.0,-1.6344,-1.627,0.0,-1.622,0.0,0.0,0.0,0.0,0.0,-1.287,0.0,0.0,-1.4041,-1.4144,-1.3205,-1.3788,-1.3907,-1.3613,-1.3433,-1.2579,-1.1106,-1.0795,0.0,0.0,0.0,0.0,0.0,0.0,-0.4408,-0.4208,-0.3567,-0.3258,-0.3286,-0.3326,-0.3727,-0.4533,-0.6662,-0.8247,-0.9117,-0.8756,-0.8548,-0.8611,-0.7138,0.0,0.0,0.0,0.0,0.0,0.0,0.0,0.0,0.0,0.0,0.0,0.0,0.0,0.0,0.0,0.0,0.0,0.0,0.0,0.0,-0.265,0.0,0.0,0.0,0.0,0.0,0.0,0.0,0.0,0.0,0.0,0.0704,0.1166,0.1829,0.2629,0.0,0.0,0.0,0.0,0.1272,-0.0237,-0.0491,-0.0565,-0.0844,-0.095,-0.0871,-0.0522,0.0,0.0,-0.0714,-0.0905,-0.0977,-0.0734,-0.0241,-0.0268,-0.0866,-0.081,-0.058,-0.0145,0.0356,0.0731,0.117,0.197,0.2558,-1.7652,0.0,0.0,0.0,0.0,-1.578,-1.5988,-1.6592,-1.6602,-1.6345,-1.5918,-1.5941,0.0,0.0,0.0,0.0,0.0,0.0,-1.2649,-1.2562,-1.2532,-1.2327,-1.1992,-1.2153,-1.1956,-1.1486,-1.1832,-1.156,-1.0758,-1.0526,-0.9742,-0.8367,0.0,0.0,0.0,0.0,-0.3619,-0.3297,-0.2793,-0.2624,-0.2887,-0.2896,-0.3337,-0.4179,-0.5631,-0.6609,-0.7061,-0.7852,-0.8111,-0.7779,-0.7675,0.0,0.0,0.0,0.0,0.0,0.0,0.0,0.0,0.0,0.0,0.0,0.0,0.0,0.0,0.0,0.0,0.0,0.0,0.0,-0.3001,-0.2128,-0.1826,0.0,0.0,0.0,0.0,0.0,0.0,0.0,0.0,0.0,0.3308,0.2695,0.2453,0.0,0.0,0.2357,0.1739,0.2115,0.2358,0.2186,0.0,0.0,0.0,0.1316,0.0739,0.0653,0.0959,0.1366,0.1776,0.2104,0.2527,0.3045,0.3197,0.3272,0.35,0.2405,0.1685,0.2085,0.2595,0.3077,0.3419,0.3939,0.4455,-1.8124,-1.8177,-1.7056,-1.6261,-1.5803,-1.5531,-1.5807,-1.6435,-1.6426,-1.6137,-1.5647,-1.5827,-1.4746,-1.2805,-1.2396,0.0,0.0,0.0,-1.1871,-1.1682,-1.1332,-1.1101,-1.095,-1.0902,-1.0561,-1.0025,-1.0278,-1.0071,-0.9429,-0.9124,-0.8368,-0.7183,0.0,0.0,-0.491,-0.383,-0.3138,-0.2829,-0.2406,-0.2321,-0.2487,-0.2619,-0.3127,-0.4046,-0.4731,-0.5216,-0.5513,-0.6766,-0.7329,-0.7101,-0.7626,-0.7931,0.0,0.0,0.0,0.0,0.0,0.0,0.0,0.0,0.0,0.0,0.0,-0.5275,0.0,0.0,0.0,0.0,-0.3352,-0.2885,-0.2646,-0.2151,0.0,0.0,0.0,0.0,0.0,0.0,0.0,0.1007,0.2601,0.4009,0.4787,0.4432,0.4128,0.4204,0.377,0.3262,0.2847,0.0,0.3812,0.3734,0.3502,0.3417,0.3649,0.323,0.2855,0.2883,0.3242,0.3597,0.391,0.4263,0.4662,0.4998,0.5053,0.5154,0.5653,0.4812,0.4125,0.4325,0.4664,0.5011,0.5307,0.5871,0.6393,-1.8397,-1.7514,-1.5472,-1.4722,-1.4856,-1.4804,-1.5214,-1.5877,-1.5869,-1.567,-1.5367,-1.571,-1.5168,-1.3909,-1.2871,0.0,-1.1852,-1.1232,-1.0777,-1.0428,-1.0391,-1.0224,-0.9994,-0.9916,-0.9542,-0.8897,-0.8897,-0.8401,-0.7544,-0.716,-0.6523,-0.5734,-0.6367,-0.581,-0.4048,-0.3285,-0.2847,-0.2699,-0.238,-0.2216,-0.2221,-0.252,-0.3052,-0.3818,-0.3885,-0.403,-0.4374,-0.548,-0.6253,-0.6542,-0.7138,-0.7703,-0.8221,0.0,0.0,0.0,0.0,0.0,0.0,0.0,0.0,0.0,0.0,0.0,0.0,0.0,0.0,0.0,-0.3055,0.0,-0.2334,-0.2311,0.0,0.0,0.0,-0.0752,0.0467,0.1684,0.248,0.2528,0.0,0.0,0.557,0.0,0.6403,0.5881,0.5731,0.5349,0.4556,0.5117,0.543,0.4683,0.456,0.4611,0.4751,0.4893,0.5124,0.5484,0.5735,0.5674,0.5759,0.5737,0.5762,0.589,0.5808,0.5921,0.6176,0.6509,0.6755,0.647,0.6439,0.6515,0.6834,0.7441,0.7956,-1.7526,-1.6822,-1.5911,-1.5434,-1.5156,-1.482,-1.4728,-1.4941,-1.4949,-1.4904,-1.4797,-1.4873,-1.4082,-1.2628,-1.1817,-1.1191,-1.0763,-1.0617,-1.0238,-0.9738,-0.9277,-0.8966,-0.8769,-0.8321,-0.8038,-0.784,-0.7877,-0.7493,-0.6761,-0.653,-0.5899,-0.5009,-0.4984,-0.4659,-0.3999,-0.3462,-0.3038,-0.27,-0.2625,-0.2435,-0.2218,-0.2288,-0.2421,-0.2621,-0.2854,-0.3043,-0.3121,-0.404,-0.5006,-0.604,-0.6612,-0.7568,-0.8943,-0.7474,0.0,0.0,0.0,0.0,0.0,0.0,0.0,0.0,0.0,-0.5672,-0.4413,0.0,-0.4142,0.0,-0.214,-0.13,-0.0795,-0.0845,0.0,0.0,0.0,0.0596,0.1425,0.2826,0.3973,0.4616,0.5663,0.6542,0.6945,0.7166,0.7396,0.7714,0.6848,0.5984,0.5667,0.6164,0.653,0.6341,0.6617,0.6962,0.6886,0.6739,0.6588,0.6724,0.6763,0.6853,0.7225,0.7195,0.7205,0.7496,0.7494,0.7565,0.7815,0.8021,0.8048,0.7964,0.768,0.7463,0.7582,0.7944,0.8393,-1.6691,-1.6012,-1.5631,-1.5364,-1.512,-1.4866,-1.471,-1.4542,-1.4542,-1.4512,-1.4344,-1.4007,-1.3235,-1.2105,-1.168,-1.1035,-1.0223,-1.0223,-0.9699,-0.8773,-0.8457,-0.8241,-0.8177,-0.7752,-0.7485,-0.7325,-0.6976,-0.6511,-0.5967,-0.5275,-0.4674,-0.4129,-0.3698,-0.3517,-0.355,-0.3453,-0.327,-0.2965,-0.278,-0.2546,-0.2217,-0.2188,-0.2228,-0.2335,-0.2556,-0.2767,-0.2856,-0.3781,-0.4612,-0.5376,-0.625,-0.7315,-0.8542,-0.773,-0.7345,0.0,0.0,0.0,0.0,0.0,0.0,0.0,0.0,0.0,0.0,0.0,-0.3034,0.0,-0.0978,0.0,-0.0219,-0.0374,-0.0089,0.0947,0.1367,0.2121,0.347,0.4759,0.5712,0.6156,0.6958,0.7609,0.79,0.7964,0.8069,0.8436,0.7788,0.7235,0.7171,0.7426,0.7598,0.7638,0.7912,0.8121,0.8129,0.7891,0.7701,0.7737,0.7706,0.783,0.8051,0.8051,0.8068,0.8291,0.8286,0.8269,0.8447,0.8517,0.8517,0.8484,0.8312,0.8135,0.8118,0.8569,0.9077,-1.6031,-1.5424,-1.5229,-1.5122,-1.5122,-1.5077,-1.4883,-1.4576,-1.4532,-1.4372,-1.3972,-1.3144,-1.2386,-1.1757,-1.1671,-1.0947,-0.9752,-0.9705,-0.901,-0.78,-0.7759,-0.7743,-0.7757,-0.7619,-0.7348,-0.6896,-0.6179,-0.5565,-0.507,-0.3921,-0.3404,-0.3352,-0.2787,-0.2683,-0.3074,-0.3374,-0.346,-0.3334,-0.2907,-0.2554,-0.2285,-0.2306,-0.2437,-0.26,-0.2717,-0.2904,-0.3143,-0.3969,-0.4545,-0.4769,-0.5839,-0.6771,-0.7537,-0.7652,-0.7296,0.0,-0.6152,0.0,0.0,0.0,0.0,0.0,0.0,0.0,0.0,-0.2517,-0.1643,0.0129,0.0237,0.0156,0.0086,-0.006,0.0655,0.2585,0.2945,0.3823,0.5811,0.6806,0.7335,0.7372,0.8027,0.8517,0.8474,0.8517,0.8511,0.8511,0.8452,0.8372,0.8458,0.8436,0.8431,0.8517,0.8517,0.8436,0.8474,0.849,0.8458,0.8501,0.8447,0.8517,0.849,0.849,0.8506,0.8506,0.8474,0.8511,0.8517,0.8517,0.8517,0.8517,0.849,0.8479,0.8544,0.9035,0.9709,-1.5839,-1.5738,-1.5685,-1.5618,-1.5665,-1.5665,-1.5364,-1.4921,-1.4921,-1.44,-1.3517,-1.2191,-1.1252,-1.0598,-1.0038,-0.9231,-0.8237,-0.819,-0.7801,-0.7098,-0.7094,-0.7028,-0.695,-0.6919,-0.6531,-0.5894,-0.5646,-0.4983,-0.3827,-0.3557,-0.3333,-0.3232,-0.3102,-0.3211,-0.3565,0.0,0.0,0.0,-0.3055,-0.2739,-0.2716,-0.2953,-0.3117,-0.3145,-0.3158,0.0,-0.3268,-0.3437,-0.3884,-0.4587,-0.4879,0.0,0.0,0.0,0.0,0.0,0.0,0.0,0.0,0.0,0.0,0.0,-0.1866,-0.1656,-0.1367,-0.0613,-0.003,0.0208,0.0873,0.1355,0.1492,0.1999,0.2807,0.4002,0.4793,0.5741,0.6836,0.7512,0.7949,0.8236,0.8409,0.8517,0.8517,0.8517,0.8517,0.8517,0.8517,0.8517,0.8517,0.8517,0.8517,0.8517,0.8517,0.8517,0.8517,0.8517,0.8517,0.8517,0.8517,0.8517,0.8517,0.8517,0.8517,0.8517,0.8517,0.8517,0.8517,0.8517,0.8517,0.8517,0.8517,0.8517,0.8517,0.8829,0.9364,-1.5825,0.0,-1.5825,-1.5825,0.0,-1.5825,-1.543,-1.483,-1.4688,-1.368,-1.2125,-1.1363,-1.0476,-0.9527,-0.922,-0.8593,-0.7808,-0.7808,-0.7501,-0.6991,-0.6991,-0.695,-0.6915,-0.6848,-0.6431,-0.574,-0.5325,-0.4572,-0.3591,-0.3226,-0.3009,-0.2899,-0.2899,-0.2961,-0.3117,-0.3113,-0.3144,-0.3255,-0.2982,-0.2761,-0.2586,-0.2727,-0.2884,-0.2997,0.0,0.0,0.0,0.0,0.0,0.0,0.0,0.0,0.0,0.0,0.0,-0.4545,-0.3781,-0.3188,-0.2898,-0.1938,-0.1267,-0.101,0.0131,0.0639,0.018,0.1014,0.1596,0.1704,0.2404,0.2843,0.2944,0.3423,0.4238,0.5383,0.5885,0.6572,0.7611,0.8062,0.8317,0.8452,0.8517,0.8517,0.8517,0.8517,0.8517,0.8517,0.8517,0.8517,0.8517,0.8517,0.8517,0.8517,0.8517,0.8517,0.8517,0.8517,0.8517,0.8517,0.8517,0.8517,0.8517,0.8517,0.8517,0.8517,0.8517,0.8517,0.8517,0.8517,0.8517,0.8517,0.8517,0.8517,0.8544,0.899,0.955,-1.5825,-1.5825,-1.5825,-1.5825,-1.5825,-1.5825,-1.5302,-1.4484,0.0,0.0,0.0,-1.0664,-0.9855,-0.8732,-0.87,-0.8335,-0.7764,-0.7687,-0.7448,-0.7095,-0.7095,-0.7095,-0.7088,-0.6847,-0.6402,-0.5699,-0.4942,-0.4177,-0.3467,-0.2949,-0.2666,-0.2621,-0.2617,-0.2593,-0.2545,-0.2531,-0.2651,-0.287,-0.2882,-0.2745,-0.2442,-0.2458,-0.2605,-0.2822,-0.2953,-0.3095,-0.3348,-0.3445,-0.3507,-0.3559,-0.3549,-0.3799,-0.4334,-0.3952,-0.3645,-0.3531,-0.3116,-0.2567,-0.2026,-0.0998,-0.0251,0.011,0.1823,0.2478,0.1617,0.2299,0.29,0.3213,0.373,0.4003,0.4024,0.4431,0.5231,0.6506,0.6718,0.7291,0.8406,0.8587,0.8559,0.8587,0.8554,0.8517,0.8517,0.8517,0.8517,0.8517,0.8517,0.8517,0.8517,0.8517,0.8517,0.8517,0.8517,0.8517,0.8517,0.8517,0.8517,0.8517,0.8517,0.8517,0.8517,0.8517,0.8517,0.8517,0.8517,0.8517,0.8517,0.8517,0.8517,0.8517,0.8517,0.8517,0.8576,0.9145,0.9805,-1.5825,-1.5825,-1.5825,-1.5825,-1.5825,-1.5825,-1.501,-1.3607,-1.2453,-1.1692,-1.1166,-1.0022,-0.9115,-0.8342,-0.8246,-0.7943,-0.7469,-0.7293,-0.7143,0.0,-0.7095,-0.7095,-0.7051,-0.6505,-0.5833,-0.5112,-0.4313,-0.3583,-0.2937,-0.2803,-0.2687,-0.268,-0.268,-0.2674,-0.2664,-0.2616,-0.2643,-0.2747,-0.2917,-0.2976,-0.2913,-0.3203,-0.3349,-0.3389,-0.3374,-0.3431,-0.3469,-0.3451,-0.3338,-0.3045,-0.301,-0.2974,-0.2804,-0.2346,-0.2088,-0.2225,-0.1479,-0.0731,-0.0154,0.0386,0.1112,0.2182,0.2989,0.3118,0.2582,0.3029,0.3403,0.3462,0.3561,0.3713,0.409,0.4908,0.5834,0.686,0.7649,0.8359,0.9005,0.8957,0.884,0.8831,0.8635,0.8533,0.8554,0.8538,0.8533,0.8522,0.8528,0.8517,0.8517,0.8517,0.8517,0.8517,0.8517,0.8517,0.8517,0.8517,0.8517,0.8517,0.8517,0.8517,0.8517,0.8517,0.8517,0.8517,0.8517,0.8517,0.8517,0.8517,0.8517,0.8517,0.8517,0.8517,0.8517,0.9022,0.9614,-1.5825,-1.5825,-1.5825,-1.5825,-1.573,-1.4914,-1.3902,-1.2797,-1.1526,-1.0747,-1.0277,-0.9441,-0.8668,-0.8043,-0.7965,-0.7748,-0.7366,-0.7299,-0.7221,-0.7098,-0.7095,-0.7095,-0.7051,-0.6438,-0.5725,-0.4961,-0.4208,-0.3532,-0.2917,-0.2804,-0.2817,-0.2741,-0.271,-0.2694,-0.2691,-0.2665,-0.2664,-0.2729,-0.2751,-0.2806,-0.2841,-0.3011,-0.2958,-0.2692,-0.2687,-0.2559,-0.2311,-0.2302,-0.2229,-0.2051,-0.2014,-0.2062,-0.2157,-0.1506,-0.1258,-0.1581,-0.078,0.0,0.0588,0.1412,0.2343,0.3203,0.3512,0.3567,0.3336,0.3446,0.355,0.3509,0.3806,0.429,0.4973,0.5622,0.6499,0.7807,0.8217,0.8614,0.9076,0.912,0.9064,0.9079,0.8959,0.886,0.8888,0.8781,0.8738,0.87,0.8614,0.8522,0.8517,0.8517,0.8517,0.8517,0.8517,0.8517,0.8517,0.8517,0.8517,0.8517,0.8517,0.8517,0.8517,0.8517,0.8517,0.8517,0.8517,0.8517,0.8517,0.8517,0.8517,0.8517,0.8517,0.8517,0.8576,0.9172,1.0028,-1.592,-1.5825,-1.5825,-1.5683,-1.5452,-1.4094,-1.3082,-1.2273,-1.1002,-1.0167,-0.9723,-0.9076,-0.8459,-0.7865,-0.7828,-0.7685,-0.7535,-0.7484,-0.7343,-0.7159,-0.7146,-0.7173,-0.7058,-0.6435,-0.5725,-0.4966,-0.4251,-0.3539,-0.2963,-0.292,-0.2852,-0.2804,-0.2756,-0.2733,-0.2733,-0.2719,-0.2718,-0.2728,-0.2673,-0.2658,-0.2691,-0.2694,-0.2501,-0.2177,-0.2164,-0.1985,-0.1642,-0.1625,-0.1586,-0.1479,-0.1476,-0.1556,-0.1752,-0.115,-0.0911,-0.1188,-0.0433,0.0432,0.1295,0.2393,0.3255,0.3763,0.3802,0.3802,0.3795,0.3699,0.3668,0.3736,0.4251,0.4955,0.5821,0.6473,0.7302,0.8564,0.8757,0.897,0.9295,0.9323,0.9294,0.9294,0.9212,0.9195,0.9174,0.9055,0.8947,0.8944,0.8737,0.8587,0.8603,0.8549,0.8517,0.8517,0.8517,0.8517,0.8517,0.8517,0.8517,0.8517,0.8517,0.8517,0.8517,0.8517,0.8517,0.8517,0.8517,0.8517,0.8517,0.8517,0.8517,0.8517,0.8517,0.8549,0.8673,0.9486,1.0528,-1.6204,-1.5832,-1.5825,-1.5404,-1.4736,-1.3854,-1.3087,-1.2268,-1.1002,-1.0364,-1.0216,-0.927,-0.852,-0.8001,-0.7872,-0.7794,-0.7746,-0.7634,-0.7495,-0.7409,-0.735,-0.7275,-0.7074,-0.6441,-0.5725,-0.5013,-0.4297,-0.363,-0.2963,-0.292,-0.2915,-0.2911,-0.2904,-0.2897,-0.2893,-0.2801,-0.2801,-0.2899,-0.2797,-0.2743,-0.2695,-0.2694,-0.2691,-0.2642,-0.2606,-0.2604,-0.2461,-0.2556,-0.2387,-0.209,-0.2003,-0.1837,-0.15,-0.1312,-0.1258,-0.1257,-0.0278,0.094,0.2473,0.3295,0.3728,0.3802,0.3804,0.3802,0.3802,0.3793,0.3941,0.4276,0.4864,0.5488,0.6367,0.7427,0.8259,0.8906,0.9413,0.9793,0.975,0.968,0.955,0.9556,0.9389,0.9176,0.9254,0.9211,0.9174,0.913,0.8998,0.8853,0.8837,0.8652,0.8571,0.8544,0.8522,0.8517,0.8517,0.8517,0.8517,0.8517,0.8517,0.8517,0.8517,0.8517,0.8517,0.8517,0.8517,0.8517,0.8517,0.8517,0.8517,0.8517,0.8549,0.8614,0.8958,0.9646,1.0591,-1.6298,-1.5825,-1.5825,-1.5112,-1.3998,-1.3613,-1.2791,-1.1634,-1.1149,-1.0708,-1.0359,-0.9916,-0.927,-0.8478,-0.8121,-0.7896,-0.7807,-0.775,-0.7648,-0.7516,-0.7506,-0.7475,-0.7319,-0.6584,-0.6054,-0.5724,-0.4949,-0.4208,-0.354,-0.3097,-0.292,-0.292,-0.292,-0.292,-0.2918,-0.2895,-0.285,-0.2917,-0.2893,-0.2824,-0.2804,-0.28,-0.2695,-0.2452,-0.2431,-0.2243,-0.1943,-0.1915,-0.1832,-0.1684,-0.1682,-0.1724,-0.1808,-0.1542,-0.1286,-0.1036,0.0575,0.1962,0.2901,0.3551,0.3844,0.3844,0.3833,0.3802,0.3802,0.3802,0.3958,0.4345,0.4616,0.527,0.6496,0.7421,0.8304,0.9306,0.9765,0.9884,0.9879,0.9841,0.9782,0.9776,0.969,0.962,0.9604,0.9507,0.9373,0.9244,0.9109,0.9089,0.9078,0.8881,0.8814,0.8851,0.8672,0.8528,0.8522,0.8517,0.8517,0.8517,0.8517,0.8517,0.8517,0.8517,0.8517,0.8517,0.8517,0.8517,0.8517,0.8517,0.8517,0.8517,0.87,0.8888,0.9236,0.9748,1.051,-1.6706,-1.6028,-1.5642,-1.4723,-1.3511,-1.3275,-1.2452,-1.1292,-1.1194,-1.0998,-1.0609,-1.0462,-0.9965,-0.9221,-0.8531,-0.8171,-0.8077,-0.7921,-0.7797,-0.7668,-0.7658,-0.7638,-0.7543,-0.6972,-0.6529,-0.6253,-0.5676,-0.4947,-0.4255,-0.3764,-0.3365,-0.323,-0.3186,-0.3097,-0.292,-0.292,-0.292,-0.292,-0.292,-0.292,-0.2918,-0.292,-0.2718,-0.2419,-0.2404,-0.221,-0.1845,-0.1826,-0.1828,-0.18,-0.1841,-0.1969,-0.227,-0.1958,-0.1438,-0.0504,0.1176,0.2564,0.3275,0.3725,0.3938,0.393,0.3854,0.3839,0.3837,0.3818,0.3919,0.419,0.4462,0.5312,0.6577,0.7272,0.8194,0.9501,0.9733,0.9771,0.9884,0.9884,0.9873,0.9884,0.9847,0.9884,0.9857,0.9766,0.961,0.9464,0.9351,0.93,0.9281,0.9117,0.8998,0.9163,0.8942,0.877,0.8641,0.8549,0.8533,0.8517,0.8517,0.8517,0.8517,0.8517,0.8517,0.8517,0.8517,0.8517,0.8517,0.8517,0.8517,0.8544,0.8732,0.9017,0.9358,0.9722,1.0199,-1.7761,-1.6461,-1.5261,-1.434,-1.3463,-1.2754,-1.1975,-1.1194,-1.1194,-1.1194,-1.1051,-1.0659,-1.0413,-1.0265,-0.927,-0.8768,-0.8658,-0.8212,-0.7989,-0.7859,-0.7801,-0.7733,-0.7604,-0.7543,-0.709,-0.6471,-0.6299,-0.5777,-0.5013,-0.4875,-0.452,-0.3849,-0.3805,-0.3496,-0.3008,-0.292,-0.292,-0.292,-0.292,-0.292,-0.292,-0.292,-0.2872,-0.2822,-0.2872,-0.2823,-0.2772,-0.282,-0.2819,-0.2819,-0.2769,-0.2815,-0.2858,-0.2722,-0.1676,0.0295,0.1302,0.2396,0.3665,0.3952,0.3986,0.3978,0.3946,0.3893,0.3889,0.3822,0.3818,0.3843,0.4665,0.5625,0.6591,0.7322,0.8165,0.9203,0.9359,0.9506,0.9846,0.9884,0.9884,0.9884,0.9884,0.9884,0.9884,0.9873,0.9836,0.9766,0.9685,0.9588,0.9516,0.9273,0.913,0.9227,0.9292,0.9322,0.8971,0.87,0.8571,0.8549,0.8565,0.8517,0.8517,0.8517,0.8517,0.8517,0.8517,0.8517,0.8517,0.8517,0.8517,0.8544,0.8641,0.8926,0.9428,0.9486,0.9939,-1.7631,-1.6534,-1.554,-1.4526,-1.3468,-1.2705,-1.1932,-1.1243,-1.1194,-1.1194,-1.1194,-1.1002,-1.09,-1.0855,-1.0162,-0.962,-0.9278,-0.8726,-0.8495,-0.8396,-0.8101,-0.7929,-0.783,-0.7784,-0.7563,-0.719,-0.7044,-0.6566,-0.5735,-0.5233,-0.4607,-0.4028,-0.3892,-0.354,-0.3008,-0.292,-0.292,-0.292,-0.292,-0.292,-0.292,-0.292,-0.292,-0.292,-0.292,-0.292,-0.292,-0.292,-0.292,-0.292,-0.292,-0.292,-0.2872,-0.2451,-0.1458,0.0088,0.1225,0.2362,0.3543,0.398,0.4124,0.4118,0.4038,0.3946,0.3973,0.3906,0.385,0.4,0.4496,0.5126,0.5664,0.6857,0.8203,0.9056,0.9284,0.9435,0.9771,0.9884,0.9884,0.9884,0.9884,0.9884,0.9884,0.9884,0.9884,0.9879,0.9809,0.9756,0.9745,0.9503,0.9367,0.9556,0.9545,0.9473,0.9414,0.9014,0.8771,0.8722,0.869,0.8565,0.8528,0.8522,0.8517,0.8517,0.8517,0.8517,0.8517,0.8517,0.8517,0.8549,0.8646,0.8926,0.946,0.962,1.004,-1.7567,-1.6629,-1.5669,-1.4519,-1.3323,-1.2554,-1.1883,-1.1243,-1.1194,-1.1194,-1.1194,-1.1194,-1.1194,-1.1145,-1.0806,-1.0458,-1.0068,-0.9369,-0.9076,-0.9027,-0.8684,-0.8538,-0.852,-0.8423,-0.829,-0.8171,-0.7969,-0.7514,-0.6935,-0.6384,-0.5672,-0.4783,-0.4694,-0.4253,-0.3497,-0.3365,-0.3275,-0.3186,-0.3142,-0.3053,-0.2918,-0.292,-0.292,-0.292,-0.292,-0.292,-0.292,-0.292,-0.292,-0.292,-0.292,-0.292,-0.283,-0.22,-0.1255,-0.0089,0.0984,0.2194,0.3403,0.3851,0.4083,0.421,0.4134,0.4081,0.4071,0.3969,0.391,0.4004,0.4374,0.4701,0.5049,0.636,0.7744,0.8475,0.8789,0.9051,0.9458,0.9501,0.9582,0.9663,0.9657,0.9733,0.9841,0.9884,0.9804,0.967,0.9617,0.959,0.9381,0.9569,0.9548,0.9616,0.9622,0.9669,0.9641,0.9381,0.9095,0.9014,0.883,0.8678,0.8565,0.8576,0.8533,0.8522,0.8517,0.8517,0.8517,0.8517,0.8517,0.8549,0.8673,0.8894,0.937,0.9817,1.0168,-1.7667,-1.6871,-1.5568,-1.4388,-1.3201,-1.237,-1.1683,-1.1345,-1.1243,-1.1194,-1.1194,-1.1194,-1.1194,-1.1194,-1.1145,-1.1145,-1.09,-1.0113,-0.9673,-0.9575,-0.9529,-0.948,-0.9476,-0.941,-0.9336,-0.9196,-0.8982,-0.8731,-0.838,-0.8149,-0.7441,-0.6517,-0.6118,-0.5319,-0.4253,-0.4166,-0.3987,-0.363,-0.3542,-0.3365,-0.2963,-0.292,-0.292,-0.292,-0.292,-0.292,-0.292,-0.292,-0.292,-0.292,-0.292,-0.292,-0.283,-0.2289,-0.13,-0.0179,0.0672,0.1882,0.3317,0.3626,0.3885,0.4188,0.4218,0.4173,0.4192,0.4016,0.3916,0.3987,0.4381,0.4701,0.4815,0.5822,0.6788,0.7203,0.7825,0.8399,0.8613,0.8737,0.8856,0.9203,0.9284,0.9468,0.9733,0.9765,0.9541,0.9153,0.9023,0.8881,0.8612,0.9104,0.9456,0.9321,0.9488,0.9788,0.9787,0.9723,0.9486,0.927,0.9068,0.8856,0.8786,0.8737,0.8608,0.8571,0.8533,0.8528,0.8517,0.8517,0.8517,0.8549,0.8705,0.8926,0.9364,0.9811,1.0136,-1.8021,-1.7094,-1.6028,-1.4913,-1.3826,-1.2531,-1.1878,-1.1683,-1.1389,-1.1194,-1.1194,-1.1194,-1.1194,-1.1194,-1.1194,-1.1194,-1.1145,-1.0855,-1.0507,-1.0167,-0.9772,-0.9624,-0.9628,-0.9624,-0.9462,-0.922,-0.8984,-0.882,-0.8576,-0.8149,-0.7309,-0.6473,-0.5988,-0.5235,-0.4476,-0.4297,-0.4076,-0.3676,-0.3587,-0.3365,-0.2964,-0.292,-0.292,-0.292,-0.292,-0.292,-0.292,-0.292,-0.292,-0.292,-0.292,-0.292,-0.283,-0.2694,-0.1929,-0.0627,0.0045,0.1164,0.2822,0.3451,0.3764,0.416,0.4271,0.4261,0.4242,0.4053,0.3954,0.4016,0.4419,0.4584,0.4387,0.5198,0.6009,0.6468,0.7442,0.8012,0.8109,0.8441,0.8732,0.8822,0.8899,0.897,0.9046,0.9084,0.892,0.8586,0.8502,0.8395,0.8301,0.8401,0.8871,0.8973,0.9458,0.9879,0.983,0.9836,0.9723,0.9513,0.9292,0.9149,0.9028,0.8872,0.8737,0.8646,0.8565,0.8517,0.8533,0.8517,0.8517,0.8673,0.8861,0.9145,0.9486,0.9811,1.0136,-1.8183,-1.7139,-1.6408,-1.5252,-1.3859,-1.2709,-1.2078,-1.1683,-1.134,-1.1194,-1.1194,-1.1194,-1.1194,-1.1194,-1.1194,-1.1194,-1.1194,-1.1194,-1.1047,-1.0708,-1.0408,-1.0216,-1.0216,-1.0216,-1.0013,-0.9686,-0.9572,-0.9377,-0.9126,-0.8632,-0.8057,-0.7353,-0.6915,-0.6384,-0.5669,-0.5581,-0.5359,-0.4961,-0.4959,-0.4563,-0.4072,-0.3939,-0.3719,-0.3363,-0.3274,-0.3139,-0.2963,-0.292,-0.292,-0.292,-0.292,-0.292,-0.292,-0.2875,-0.2244,-0.0987,-0.0314,0.0582,0.2374,0.3048,0.354,0.3942,0.421,0.4297,0.4271,0.4107,0.398,0.406,0.4192,0.4192,0.4036,0.4657,0.5276,0.5273,0.636,0.7165,0.7349,0.7872,0.8315,0.8408,0.8479,0.8441,0.8399,0.8351,0.8085,0.7699,0.7623,0.7597,0.7467,0.7434,0.7906,0.8622,0.9416,0.9702,0.9873,0.9879,0.9879,0.9712,0.9556,0.9421,0.9319,0.9087,0.891,0.8834,0.8781,0.8662,0.863,0.8544,0.8549,0.877,0.8958,0.9204,0.9454,0.9875,1.0206,-1.8082,-1.7036,-1.6707,-1.5361,-1.3463,-1.2959,-1.2273,-1.1443,-1.1194,-1.1194,-1.1194,-1.1194,-1.1194,-1.1194,-1.1194,-1.1194,-1.1194,-1.1194,-1.1194,-1.1145,-1.1047,-1.1042,-1.1005,-1.0947,-1.0728,-1.0487,-1.0426,-1.027,-0.9834,-0.9641,-0.9593,-0.8759,-0.8448,-0.8408,-0.757,-0.7702,-0.7302,-0.6773,-0.6858,-0.6413,-0.5617,-0.5573,-0.5043,-0.3983,-0.3849,-0.354,-0.3006,-0.292,-0.292,-0.292,-0.292,-0.292,-0.292,-0.292,-0.2244,-0.0852,-0.0718,0.0403,0.1791,0.2587,0.3077,0.3612,0.3968,0.4297,0.4233,0.413,0.399,0.3988,0.3951,0.3841,0.3919,0.4309,0.4426,0.4114,0.5082,0.5899,0.6483,0.7061,0.7373,0.7718,0.791,0.7868,0.7587,0.7548,0.7079,0.6492,0.6426,0.638,0.6335,0.6587,0.7057,0.8009,0.9211,0.9697,0.9884,0.9884,0.9884,0.9825,0.9728,0.9658,0.954,0.9278,0.9055,0.899,0.8849,0.8781,0.8667,0.8565,0.8517,0.8608,0.8829,0.9107,0.946,0.9849,1.0238,-1.8082,-1.6994,-1.6707,-1.5711,-1.426,-1.3252,-1.2662,-1.2273,-1.1536,-1.1243,-1.1194,-1.1194,-1.1194,-1.1194,-1.1194,-1.1194,-1.1194,-1.1194,-1.1194,-1.1194,-1.1194,-1.1104,-1.1,-1.0972,-1.0764,-1.0455,-1.0412,-1.0255,-0.9965,-0.955,-0.9152,-0.889,-0.8492,-0.8097,-0.783,-0.7878,-0.7566,-0.717,-0.7122,-0.6899,-0.6369,-0.5971,-0.5265,-0.4514,-0.4115,-0.3628,-0.2963,-0.292,-0.292,-0.292,-0.292,-0.292,-0.292,-0.2875,-0.2289,-0.1076,-0.0628,0.0089,0.1671,0.2236,0.2673,0.3416,0.3647,0.3879,0.4289,0.4105,0.4021,0.3964,0.3873,0.3802,0.3841,0.3958,0.3919,0.3919,0.4506,0.5168,0.5705,0.5977,0.6135,0.624,0.636,0.6356,0.6318,0.623,0.6075,0.5654,0.563,0.5755,0.5686,0.6181,0.681,0.7976,0.903,0.9569,0.9884,0.9884,0.9884,0.9879,0.983,0.9809,0.9675,0.9425,0.9195,0.9026,0.8821,0.8698,0.8608,0.8528,0.8517,0.8517,0.8797,0.9107,0.9428,0.9786,1.0174,-1.8277,-1.7402,-1.6857,-1.6088,-1.5139,-1.3539,-1.2953,-1.299,-1.2019,-1.1541,-1.1541,-1.1536,-1.1389,-1.1194,-1.1194,-1.1194,-1.1194,-1.1194,-1.1194,-1.1194,-1.1194,-1.1085,-1.0943,-1.0891,-1.0679,-1.0355,-1.0317,-1.0198,-0.9989,-0.9554,-0.9375,-0.9331,-0.8934,-0.8755,-0.8803,-0.8715,-0.8623,-0.8404,-0.8313,-0.8093,-0.761,-0.7346,-0.6552,-0.5711,-0.4959,-0.4204,-0.3141,-0.292,-0.292,-0.292,-0.292,-0.292,-0.292,-0.292,-0.2334,-0.1211,-0.0897,-0.0089,0.1091,0.1781,0.2334,0.2846,0.321,0.3627,0.3868,0.3938,0.3993,0.3961,0.388,0.3818,0.3802,0.3802,0.3802,0.3841,0.4118,0.4587,0.5162,0.547,0.5589,0.5583,0.5583,0.5467,0.5276,0.5237,0.5049,0.4874,0.4908,0.5043,0.517,0.591,0.6596,0.7566,0.8727,0.9398,0.9679,0.9674,0.9884,0.9879,0.9879,0.9884,0.9761,0.9585,0.9462,0.9235,0.8922,0.8675,0.8683,0.8619,0.8517,0.8608,0.8829,0.9081,0.9396,0.9626,1.0015,-1.8496,-1.7989,-1.7079,-1.6538,-1.5932,-1.405,-1.3565,-1.3692,-1.2743,-1.2116,-1.198,-1.198,-1.1639,-1.1194,-1.1194,-1.1194,-1.1194,-1.1194,-1.1194,-1.1194,-1.1175,-1.1075,-1.0839,-1.082,-1.0635,-1.0308,-1.0279,-1.017,-1.0032,-0.9951,-0.9951,-0.9859,-0.9859,-0.9946,-0.9772,-0.9864,-0.9994,-0.9816,-0.9685,-0.9467,-0.9117,-0.8903,-0.8149,-0.6949,-0.5797,-0.4559,-0.3361,-0.2963,-0.2963,-0.292,-0.292,-0.292,-0.292,-0.292,-0.2515,-0.184,-0.1165,-0.0577,0.0217,0.1207,0.1884,0.2116,0.2812,0.3411,0.3475,0.3697,0.3852,0.3918,0.3857,0.381,0.3802,0.3802,0.3802,0.3802,0.3841,0.4075,0.4543,0.5082,0.5428,0.5389,0.5351,0.5124,0.4815,0.4584,0.4423,0.4312,0.4365,0.4533,0.4723,0.512,0.5816,0.6577,0.7871,0.9251,0.9394,0.947,0.9717,0.9884,0.9879,0.9879,0.9847,0.975,0.9707,0.9541,0.9147,0.8976,0.8929,0.8829,0.8635,0.8544,0.87,0.9017,0.9332,0.9434,0.9728,-1.8396,-1.7749,-1.7535,-1.708,-1.6422,-1.5547,-1.4895,-1.4513,-1.3788,-1.2931,-1.217,-1.2029,-1.1683,-1.1194,-1.1194,-1.1194,-1.1194,-1.1194,-1.1194,-1.1194,-1.1194,-1.0972,-1.0721,-1.0655,-1.0464,-1.017,-1.007,-1.0042,-0.9994,-0.9994,-0.9994,-0.9994,-0.9994,-0.9994,-0.9994,-0.9994,-0.9994,-0.9994,-0.9994,-0.9951,-0.9781,-0.9476,-0.8855,-0.7698,-0.6284,-0.465,-0.3363,-0.3275,-0.3275,-0.3008,-0.292,-0.292,-0.292,-0.292,-0.256,-0.2018,-0.1657,-0.119,-0.0513,0.0254,0.088,0.1317,0.1947,0.2623,0.3365,0.3417,0.3624,0.3802,0.3859,0.3806,0.3802,0.3802,0.3802,0.3802,0.3802,0.3841,0.3997,0.4151,0.4307,0.4268,0.4268,0.4151,0.4036,0.4075,0.3958,0.3837,0.3926,0.4115,0.4291,0.4497,0.5027,0.5712,0.6692,0.8038,0.8838,0.9135,0.9717,0.9884,0.9884,0.9884,0.9847,0.9825,0.9777,0.9612,0.9348,0.9238,0.9141,0.8981,0.8765,0.8657,0.8576,0.8861,0.9081,0.9215,0.9536,-1.8596,-1.821,-1.7831,-1.7699,-1.7426,-1.6318,-1.571,-1.5425,-1.4657,-1.3559,-1.2559,-1.237,-1.1927,-1.1243,-1.1194,-1.1194,-1.1194,-1.1194,-1.1194,-1.1194,-1.1179,-1.0967,-1.0645,-1.0578,-1.0407,-1.0051,-0.9994,-0.9994,-0.9994,-0.9994,-0.9994,-0.9994,-0.9994,-0.9994,-0.9994,-0.9994,-0.9994,-0.9994,-0.9994,-0.9994,-0.9951,-0.9777,-0.8894,-0.765,-0.611,-0.4563,-0.3409,-0.323,-0.3142,-0.2964,-0.292,-0.292,-0.292,-0.292,-0.2694,-0.2377,-0.1908,-0.1657,-0.1102,-0.054,0.0,0.0321,0.1089,0.166,0.2366,0.2795,0.3352,0.3521,0.3677,0.3802,0.3802,0.3802,0.3802,0.3802,0.3802,0.3802,0.3802,0.3802,0.3802,0.3802,0.388,0.388,0.3802,0.3802,0.3802,0.38,0.3798,0.3953,0.3868,0.4084,0.4303,0.4882,0.5664,0.667,0.7843,0.8757,0.975,0.9884,0.9884,0.9884,0.9868,0.9814,0.9761,0.9633,0.9527,0.9331,0.919,0.9041,0.8846,0.8652,0.8576,0.87,0.8861,0.9081,0.944,-1.8781,-1.8727,-1.811,-1.821,-1.8496,-1.7023,-1.6513,-1.6527,-1.5663,-1.4513,-1.3286,-1.3093,-1.27,-1.1824,-1.1438,-1.134,-1.1194,-1.1189,-1.1184,-1.1118,-1.1113,-1.0868,-1.0584,-1.0507,-1.036,-1.0023,-0.9994,-0.9994,-0.9994,-0.9994,-0.9994,-0.9994,-0.9994,-0.9994,-0.9994,-0.9994,-0.9994,-0.9994,-0.9994,-0.9994,-0.9951,-0.9864,-0.8894,-0.739,-0.6113,-0.4875,-0.3898,-0.3408,-0.3008,-0.292,-0.292,-0.292,-0.292,-0.292,-0.2867,-0.2815,-0.2239,-0.1977,-0.1758,-0.119,-0.0766,-0.0709,0.0199,0.0839,0.1228,0.2032,0.2751,0.3247,0.3491,0.3802,0.3802,0.3802,0.3802,0.3802,0.3802,0.3802,0.3802,0.3802,0.3802,0.3802,0.3802,0.3802,0.3802,0.3802,0.3802,0.3802,0.38,0.3738,0.3689,0.369,0.3946,0.4269,0.501,0.6493,0.7744,0.844,0.9417,0.9728,0.9771,0.9825,0.983,0.9873,0.9814,0.9825,0.9702,0.9497,0.9281,0.9098,0.8883,0.863,0.8544,0.8608,0.8765,0.8952,0.935,-1.8781,-1.8781,-1.8689,-1.8681,-1.8727,-1.8404,-1.7932,-1.7559,-1.7171,-1.6129,-1.4472,-1.4376,-1.3986,-1.3307,-1.2262,-1.1683,-1.158,-1.1531,-1.1303,-1.1187,-1.1144,-1.0933,-1.056,-1.0488,-1.0281,-1.0061,-0.9994,-0.9994,-0.9994,-0.9994,-0.9994,-0.9994,-0.9994,-0.9994,-0.9994,-0.9994,-0.9994,-0.9994,-0.9994,-0.9994,-0.9951,-0.9559,-0.8903,-0.7485,-0.6514,-0.5494,-0.4516,-0.3808,-0.332,-0.2963,-0.292,-0.2918,-0.2913,-0.2913,-0.2846,-0.2768,-0.2654,-0.2431,-0.227,-0.1872,-0.1523,-0.1304,-0.071,0.0118,0.0628,0.1219,0.201,0.2914,0.3452,0.3763,0.3802,0.3802,0.3802,0.3802,0.3802,0.3802,0.3802,0.3802,0.3802,0.3802,0.3802,0.3802,0.3802,0.3802,0.3802,0.3802,0.3802,0.3744,0.3632,0.3578,0.3641,0.3987,0.4452,0.6151,0.7851,0.8421,0.9052,0.9398,0.9515,0.9659,0.9712,0.983,0.9868,0.9879,0.9814,0.9653,0.9437,0.9211,0.8953,0.8694,0.8597,0.8517,0.8738,0.8926,0.9206,-1.8781,-1.8781,-1.8781,-1.8781,-1.8781,-1.8781,-1.8357,-1.7785,-1.7684,-1.6788,-1.5656,-1.5229,-1.4984,-1.4399,-1.3926,-1.3258,-1.2829,-1.2495,-1.2272,-1.2062,-1.2,-1.1549,-1.088,-1.0801,-1.0445,-1.0178,-0.9994,-0.9994,-0.9994,-0.9994,-0.9994,-0.9994,-0.9994,-0.9994,-0.9994,-0.9994,-0.9994,-0.9994,-0.9994,-0.9994,-0.9903,-0.934,-0.8504,-0.7889,-0.7,-0.5983,-0.4872,-0.4383,-0.3719,-0.3096,-0.292,-0.2856,-0.2882,-0.287,-0.2813,-0.2824,-0.2795,-0.27,-0.2612,-0.2254,-0.21,-0.2005,-0.149,-0.098,-0.0274,0.0392,0.141,0.247,0.3141,0.3452,0.3413,0.3645,0.3802,0.3802,0.3802,0.3802,0.3802,0.3802,0.3802,0.3802,0.3802,0.3802,0.3802,0.3802,0.3802,0.3802,0.3802,0.3725,0.3589,0.3517,0.3471,0.3732,0.4194,0.5358,0.6909,0.7558,0.8212,0.8657,0.905,0.9197,0.9505,0.9579,0.9777,0.9873,0.9793,0.976,0.955,0.9303,0.9034,0.877,0.8635,0.8565,0.8743,0.8969,0.9206,-1.8781,-1.8781,-1.8781,-1.8781,-1.8781,-1.8781,-1.8504,-1.8025,-1.7978,-1.7311,-1.6271,-1.617,-1.5974,-1.5636,-1.5352,-1.4972,-1.4364,-1.3746,-1.3334,-1.2901,-1.2851,-1.234,-1.1507,-1.1115,-1.0764,-1.0062,-0.9994,-0.9994,-0.9994,-0.9994,-0.9994,-0.9994,-0.9994,-0.9994,-0.9994,-0.9994,-0.9994,-0.9994,-0.9994,-0.9994,-0.9689,-0.9074,-0.8504,-0.8197,-0.7312,-0.6201,-0.509,-0.4648,-0.3941,-0.323,-0.2914,-0.2847,-0.2839,-0.2827,-0.2814,-0.2787,-0.2699,-0.2646,-0.2589,-0.2505,-0.24,-0.2392,-0.2038,-0.1763,-0.1135,0.0,0.1254,0.2078,0.2707,0.3061,0.3178,0.3413,0.3684,0.3802,0.3802,0.3802,0.3802,0.3802,0.3802,0.3802,0.3802,0.3802,0.3802,0.3802,0.3802,0.3777,0.3775,0.3709,0.3575,0.3475,0.3432,0.3552,0.3956,0.4708,0.569,0.6309,0.6973,0.7545,0.8057,0.837,0.884,0.9277,0.9493,0.976,0.9873,0.9782,0.961,0.9378,0.9098,0.8851,0.8657,0.8576,0.8684,0.8894,0.9183,-1.8781,-1.8781,-1.8781,-1.8781,-1.8781,-1.8781,-1.8781,-1.8643,-1.8596,-1.821,-1.7404,-1.7458,-1.7397,-1.721,-1.6788,-1.5792,-1.4794,-1.4309,-1.3902,-1.3285,-1.3054,-1.2428,-1.1271,-1.1072,-1.0794,-1.0207,-1.0038,-0.9994,-0.9994,-0.9994,-0.9994,-0.9994,-0.9994,-0.9994,-0.9994,-0.9994,-0.9994,-0.9994,-0.9994,-0.982,-0.9388,-0.8903,-0.8592,-0.8241,-0.7529,-0.6511,-0.5664,-0.509,-0.4206,-0.3141,-0.292,-0.2843,-0.2796,-0.2827,-0.2719,-0.2658,-0.261,-0.2586,-0.2538,-0.2516,-0.251,-0.251,-0.2353,-0.2078,-0.141,-0.0352,0.0744,0.1057,0.192,0.2588,0.2863,0.3139,0.3372,0.3645,0.3802,0.3802,0.3802,0.3802,0.3802,0.3802,0.3802,0.3802,0.3802,0.3802,0.38,0.3771,0.3695,0.3634,0.3552,0.3446,0.3326,0.3419,0.3531,0.4222,0.4533,0.516,0.5649,0.6326,0.6985,0.7518,0.8093,0.8652,0.9348,0.9566,0.9701,0.9782,0.962,0.9383,0.9141,0.891,0.8673,0.8571,0.8517,0.8829,0.9139,-1.8781,-1.8781,-1.8781,-1.8781,-1.8781,-1.8781,-1.8781,-1.8781,-1.8781,-1.8643,-1.8357,-1.8303,-1.8303,-1.8172,-1.7785,-1.703,-1.6048,-1.5497,-1.489,-1.4063,-1.3747,-1.3123,-1.2279,-1.1714,-1.1198,-1.0598,-1.0207,-0.9994,-0.9994,-0.9994,-0.9994,-0.9994,-0.9994,-0.9994,-0.9994,-0.9994,-0.9994,-0.9994,-0.9994,-0.9781,-0.9301,-0.8859,-0.8636,-0.8592,-0.8061,-0.7305,-0.6419,-0.593,-0.487,-0.3762,-0.3186,-0.287,-0.2759,-0.2722,-0.2679,-0.2567,-0.255,-0.2538,-0.2516,-0.2511,-0.251,-0.251,-0.247,-0.2195,-0.1606,-0.0979,-0.0235,0.0039,0.0862,0.1647,0.2275,0.2668,0.3215,0.3567,0.3802,0.3802,0.3802,0.3802,0.3802,0.3802,0.3802,0.3802,0.3802,0.3802,0.3798,0.3779,0.3685,0.3607,0.3509,0.3391,0.3279,0.3246,0.3381,0.3612,0.3721,0.4051,0.4367,0.5005,0.5944,0.6548,0.7272,0.7919,0.8688,0.9292,0.9469,0.9515,0.9545,0.9398,0.9104,0.8888,0.8673,0.8619,0.8576,0.8797,0.9177,-1.8781,-1.8781,-1.8781,-1.8781,-1.8781,-1.8781,-1.8781,-1.8781,-1.8781,-1.8781,-1.8781,-1.8781,-1.8781,-1.8735,-1.835,-1.7832,-1.7265,-1.6631,-1.5805,-1.5181,-1.4572,-1.3838,-1.29,-1.2272,-1.1585,-1.103,-1.0294,-1.0033,-0.9994,-0.9994,-0.9994,-0.9994,-0.9994,-0.9994,-0.9994,-0.9994,-0.9994,-0.9994,-0.9994,-0.982,-0.9476,-0.9034,-0.8855,-0.8811,-0.8636,-0.8149,-0.6997,-0.6508,-0.5531,-0.4122,-0.3197,-0.2789,-0.2694,-0.2665,-0.2623,-0.2541,-0.2519,-0.2518,-0.2511,-0.251,-0.251,-0.251,-0.247,-0.2313,-0.1959,-0.1724,-0.145,-0.0824,0.0039,0.0823,0.1528,0.2273,0.294,0.345,0.3802,0.3802,0.3802,0.3802,0.3802,0.3802,0.3802,0.3802,0.3802,0.3802,0.3795,0.3783,0.3717,0.3583,0.346,0.333,0.3251,0.3192,0.3267,0.3347,0.3379,0.3406,0.3563,0.3912,0.4833,0.5633,0.6429,0.7352,0.8263,0.873,0.9129,0.9207,0.9145,0.9129,0.9066,0.8877,0.8733,0.8679,0.8705,0.8894,0.9087,-1.8781,-1.8781,-1.8781,-1.8781,-1.8781,-1.8781,-1.8781,-1.8781,-1.8781,-1.8781,-1.8781,-1.8781,-1.8781,-1.8765,-1.8626,-1.8209,-1.7538,-1.7047,-1.6195,-1.5355,-1.4706,-1.4087,-1.3363,-1.265,-1.188,-1.1198,-1.0593,-1.025,-1.0038,-1.0038,-1.0038,-0.9994,-0.9994,-0.9994,-0.9994,-0.9994,-0.9994,-0.9994,-0.9994,-0.9907,-0.9689,-0.9388,-0.917,-0.917,-0.9078,-0.8504,-0.6953,-0.6536,-0.5698,-0.4059,-0.3225,-0.2743,-0.2647,-0.2625,-0.258,-0.253,-0.251,-0.251,-0.251,-0.251,-0.251,-0.251,-0.247,-0.247,-0.2273,-0.1842,-0.1607,-0.1412,-0.0588,0.0392,0.1215,0.2037,0.2549,0.3096,0.3409,0.3567,0.3606,0.3802,0.3802,0.3802,0.3802,0.3802,0.3783,0.3777,0.376,0.3746,0.3626,0.3491,0.3375,0.3229,0.322,0.3192,0.3192,0.323,0.323,0.3293,0.3393,0.3689,0.4402,0.5057,0.5705,0.6674,0.7672,0.8232,0.8601,0.8677,0.8801,0.8805,0.8826,0.8834,0.8788,0.8674,0.8641,0.877,0.8894,-1.8781,-1.8781,-1.8781,-1.8781,-1.8781,-1.8781,-1.8781,-1.8781,-1.8781,-1.8781,-1.8781,-1.8781,-1.8781,-1.8726,-1.8528,-1.8167,-1.7559,-1.6963,-1.6249,-1.5677,-1.5134,-1.4846,-1.4258,-1.3711,-1.3154,-1.2345,-1.1526,-1.0717,-1.0419,-1.0164,-1.0038,-0.9994,-1.0038,-0.9994,-0.9994,-0.9994,-0.9994,-0.9994,-0.9946,-0.9816,-0.9205,-0.9301,-0.917,-0.8859,-0.8859,-0.8592,-0.7779,-0.6552,-0.554,-0.4497,-0.3384,-0.2884,-0.2613,-0.26,-0.2567,-0.2519,-0.2511,-0.251,-0.251,-0.251,-0.251,-0.251,-0.251,-0.251,-0.251,-0.2234,-0.1998,-0.1686,-0.1138,-0.0157,0.0627,0.1176,0.1688,0.2431,0.2901,0.3136,0.337,0.3526,0.3763,0.3763,0.3802,0.3802,0.3775,0.3748,0.3689,0.3661,0.3526,0.3399,0.3295,0.3192,0.3192,0.3192,0.3192,0.3192,0.3192,0.3192,0.3192,0.3603,0.4,0.4608,0.5237,0.5992,0.6934,0.7517,0.8101,0.8255,0.8414,0.8529,0.8622,0.8651,0.863,0.8544,0.8576,0.8641,0.877,-1.8781,-1.8781,-1.8781,-1.8781,-1.8781,-1.8781,-1.8781,-1.8781,-1.8781,-1.8781,-1.8781,-1.8781,-1.8756,-1.8621,-1.8401,-1.7987,-1.7451,-1.6863,-1.6397,-1.5898,-1.556,-1.5443,-1.5179,-1.4636,-1.3844,-1.3281,-1.2425,-1.1483,-1.0804,-1.0376,-1.025,-1.0207,-1.0081,-1.0038,-0.9994,-0.9994,-0.9994,-0.9994,-0.9946,-0.9772,-0.9161,-0.934,-0.9476,-0.9117,-0.9161,-0.8804,-0.8186,-0.7049,-0.5795,-0.4746,-0.3722,-0.2923,-0.2678,-0.2568,-0.2549,-0.2526,-0.251,-0.251,-0.251,-0.251,-0.251,-0.251,-0.251,-0.251,-0.247,-0.2392,-0.2078,-0.1882,-0.1373,-0.0706,0.0196,0.0784,0.1334,0.2078,0.2352,0.2586,0.2938,0.3173,0.3526,0.3724,0.3748,0.372,0.3748,0.3667,0.3575,0.3548,0.3471,0.336,0.3241,0.3192,0.3192,0.3192,0.3192,0.3192,0.3192,0.3192,0.323,0.3391,0.382,0.4316,0.4977,0.5711,0.6279,0.6869,0.7381,0.7785,0.8121,0.8322,0.845,0.8544,0.8517,0.8517,0.8517,0.8576,0.8646,-1.8781,-1.8781,-1.8781,-1.8781,-1.8781,-1.8781,-1.8781,-1.8781,-1.8781,-1.8781,-1.8773,-1.8804,-1.8621,-1.8383,-1.8232,-1.7846,-1.7329,-1.6846,-1.6442,-1.6095,-1.582,-1.556,-1.5311,-1.4936,-1.4475,-1.3451,-1.2772,-1.2132,-1.1278,-1.0809,-1.0636,-1.0419,-1.0207,-0.9994,-0.9994,-0.9994,-0.9994,-0.9994,-0.9994,-0.9907,-0.9733,-0.9777,-0.9777,-0.9646,-0.9557,-0.9134,-0.8396,-0.7458,-0.6235,-0.5156,-0.4164,-0.3418,-0.2852,-0.2685,-0.2636,-0.2591,-0.2549,-0.2549,-0.2549,-0.251,-0.251,-0.251,-0.251,-0.251,-0.2431,-0.2234,-0.1998,-0.1882,-0.1334,-0.0588,0.0078,0.0588,0.1059,0.1372,0.1608,0.196,0.2313,0.2702,0.2978,0.3134,0.3392,0.3577,0.3616,0.362,0.3487,0.342,0.3381,0.3318,0.3246,0.3192,0.3192,0.3192,0.3192,0.3192,0.3192,0.3192,0.3234,0.3353,0.3644,0.4167,0.4767,0.5464,0.5987,0.6353,0.6922,0.7487,0.7866,0.8176,0.8292,0.843,0.8484,0.8517,0.8517,0.8517,0.8582,-1.8781,-1.8781,-1.8781,-1.8781,-1.8781,-1.8781,-1.8781,-1.8781,-1.8781,-1.8781,-1.8772,-1.8605,-1.8438,-1.8216,-1.7834,-1.7509,-1.7252,-1.6877,-1.6539,-1.6474,-1.6237,-1.6319,-1.6105,-1.5809,-1.5262,-1.4384,-1.3626,-1.2735,-1.1757,-1.1284,-1.0852,-1.0593,-1.0294,-1.0033,-0.9994,-0.9994,-0.9994,-0.9994,-0.9951,-0.9864,-0.9602,-0.9825,-0.9864,-0.9598,-0.9436,-0.911,-0.8577,-0.7658,-0.6702,-0.5851,-0.4999,-0.4187,-0.3565,-0.3329,-0.3018,-0.2942,-0.2904,-0.2904,-0.2824,-0.2707,-0.251,-0.251,-0.251,-0.251,-0.247,-0.2392,-0.2195,-0.1921,-0.1569,-0.1059,-0.0824,-0.0353,0.0039,0.0236,0.051,0.1059,0.1491,0.196,0.2273,0.2311,0.2484,0.2791,0.2947,0.3196,0.3171,0.3275,0.3303,0.3289,0.3198,0.3192,0.3192,0.3192,0.3192,0.3192,0.3192,0.3192,0.3192,0.3272,0.356,0.3988,0.4624,0.5202,0.5595,0.5916,0.6555,0.72,0.7588,0.7941,0.8179,0.8305,0.8468,0.8522,0.8517,0.8517,0.8517,-1.8966,-1.8781,-1.8781,-1.8781,-1.8781,-1.8781,-1.8781,-1.8781,-1.8773,-1.8764,-1.8613,-1.8383,-1.8128,-1.7866,-1.7525,-1.7159,-1.708,-1.6832,-1.6697,-1.6689,-1.6689,-1.6607,-1.6648,-1.6566,-1.5726,-1.4943,-1.4307,-1.3542,-1.2272,-1.1794,-1.1241,-1.0684,-1.0337,-1.0164,-1.0077,-0.9994,-0.9994,-0.9994,-0.9994,-0.9907,-0.9781,-0.9816,-0.9826,-0.9527,-0.9285,-0.9023,-0.8561,-0.7886,-0.7113,-0.6652,-0.5993,-0.5154,-0.4533,-0.3951,-0.3604,-0.3489,-0.3374,-0.3295,-0.3061,-0.2904,-0.2707,-0.251,-0.251,-0.251,-0.2431,-0.2313,-0.2117,-0.1921,-0.1843,-0.1608,-0.1296,-0.0904,-0.0786,-0.0589,-0.0236,0.0314,0.0785,0.1255,0.1608,0.1608,0.1745,0.2033,0.2343,0.2613,0.2829,0.3019,0.3198,0.3194,0.3194,0.3192,0.3192,0.3192,0.3192,0.3192,0.3192,0.3192,0.3192,0.3192,0.3474,0.3774,0.4162,0.4668,0.5054,0.5501,0.62,0.6822,0.7327,0.7697,0.8146,0.8396,0.8505,0.8549,0.8522,0.8517,0.8517,-1.9325,-1.8874,-1.8835,-1.8874,-1.8819,-1.8874,-1.8866,-1.8804,-1.875,-1.8597,-1.8279,-1.8232,-1.7906,-1.7448,-1.7262,-1.7072,-1.68,-1.6713,-1.6697,-1.6689,-1.6689,-1.6689,-1.6648,-1.6525,-1.5733,-1.5068,-1.4398,-1.3675,-1.2705,-1.21,-1.1413,-1.0895,-1.0636,-1.0376,-1.0164,-1.0038,-1.0038,-0.9994,-0.9994,-0.9951,-0.9907,-0.9913,-0.978,-0.9545,-0.9405,-0.9083,-0.8698,-0.8286,-0.7661,-0.7153,-0.6588,-0.5967,-0.527,-0.4533,-0.4263,-0.407,-0.3919,-0.3724,-0.3374,-0.3255,-0.302,-0.2784,-0.2549,-0.251,-0.2431,-0.2273,-0.2156,-0.1999,-0.1883,-0.1649,-0.1375,-0.1335,-0.1296,-0.1099,-0.0864,-0.0393,0.0079,0.051,0.0943,0.1094,0.1234,0.1506,0.1866,0.2161,0.2276,0.2861,0.3061,0.3141,0.3139,0.3192,0.3192,0.3192,0.3192,0.3192,0.3192,0.3192,0.3192,0.3192,0.323,0.3479,0.3816,0.4162,0.4577,0.5102,0.5799,0.6473,0.7223,0.7837,0.8358,0.8518,0.8673,0.8576,0.8549,0.8522,0.8517,-2.0019,-1.9828,-1.9509,-1.9371,-1.9371,-1.9371,-1.905,-1.8462,-1.8446,-1.8255,-1.795,-1.7676,-1.7563,-1.727,-1.7008,-1.6849,-1.6729,-1.6689,-1.6689,-1.6689,-1.6689,-1.6689,-1.6566,-1.6278,-1.5484,-1.4859,-1.423,-1.3766,-1.2833,-1.2229,-1.1972,-1.1585,-1.0982,-1.0636,-1.0381,-1.0125,-1.0081,-0.9994,-0.9994,-0.9994,-0.9937,-0.9828,-0.9677,-0.9564,-0.9319,-0.9001,-0.8832,-0.8636,-0.8223,-0.8068,-0.7748,-0.7246,-0.6623,-0.5809,-0.5267,-0.4618,-0.4616,-0.4649,-0.4031,-0.345,-0.3139,-0.3098,-0.2823,-0.2549,-0.247,-0.2392,-0.2313,-0.2157,-0.2118,-0.1962,-0.1884,-0.1845,-0.1766,-0.1608,-0.1334,-0.0982,-0.0589,-0.0432,-0.0039,0.0078,0.0232,0.0648,0.1072,0.1363,0.158,0.2369,0.2861,0.294,0.3083,0.3139,0.3192,0.3192,0.3192,0.3192,0.3192,0.3192,0.3192,0.3194,0.323,0.3236,0.3479,0.3816,0.4169,0.4684,0.5377,0.631,0.7307,0.785,0.8329,0.8695,0.8841,0.8684,0.8576,0.8549,0.8522,-2.0464,-2.0246,-2.0011,-1.9874,-1.9849,-1.9669,-1.9231,-1.8737,-1.8774,-1.8622,-1.813,-1.7959,-1.7653,-1.7316,-1.7089,-1.691,-1.6697,-1.6689,-1.6689,-1.6689,-1.6689,-1.6689,-1.6484,-1.6237,-1.5824,-1.511,-1.4601,-1.4223,-1.3209,-1.2528,-1.2229,-1.1886,-1.1327,-1.0982,-1.0636,-1.0332,-1.0168,-1.0081,-0.9994,-0.9994,-0.9909,-0.9738,-0.9592,-0.9418,-0.9122,-0.8981,-0.8863,-0.8746,-0.8718,-0.8703,-0.8403,-0.7983,-0.728,-0.6433,-0.5893,-0.5279,-0.4968,-0.4846,-0.4343,-0.3567,-0.3413,-0.3295,-0.2942,-0.2705,-0.2627,-0.2588,-0.251,-0.2431,-0.247,-0.2431,-0.2392,-0.2313,-0.2234,-0.2117,-0.1844,-0.1569,-0.1413,-0.1335,-0.1257,-0.1179,-0.0858,-0.0425,-0.0038,0.0304,0.086,0.1658,0.2284,0.2575,0.2818,0.3091,0.3173,0.3192,0.3192,0.3192,0.3192,0.3192,0.3192,0.3192,0.3194,0.3234,0.3311,0.3398,0.3691,0.4253,0.4897,0.5969,0.7153,0.7736,0.8201,0.8632,0.8996,0.8933,0.8748,0.8576,0.8549,-2.0907,-2.0555,-2.0348,-2.0305,-2.0234,-1.9891,-1.9522,-1.9307,-1.954,-1.923,-1.8581,-1.8495,-1.8052,-1.7581,-1.7359,-1.7106,-1.6902,-1.6771,-1.6689,-1.6689,-1.6689,-1.6689,-1.6689,-1.6566,-1.5982,-1.5775,-1.5311,-1.4475,-1.3724,-1.3088,-1.2613,-1.21,-1.1929,-1.1542,-1.1025,-1.0766,-1.0511,-1.0207,-1.0241,-1.0231,-0.9928,-0.9667,-0.9475,-0.9304,-0.9091,-0.8916,-0.877,-0.8703,-0.8703,-0.8703,-0.8589,-0.8246,-0.7442,-0.6865,-0.644,-0.5938,-0.5473,-0.5046,-0.4577,-0.3839,-0.3411,-0.3139,-0.2785,-0.2785,-0.2785,-0.2668,-0.2549,-0.251,-0.251,-0.251,-0.2431,-0.2431,-0.2353,-0.2313,-0.2157,-0.1961,-0.1922,-0.1804,-0.1727,-0.1649,-0.1449,-0.1048,-0.0694,-0.0306,0.0152,0.0991,0.1407,0.1784,0.2465,0.2836,0.3093,0.3171,0.3192,0.3192,0.3192,0.3192,0.3192,0.3192,0.3192,0.3194,0.3236,0.3232,0.3194,0.3823,0.4545,0.5758,0.684,0.7513,0.8208,0.8886,0.9157,0.9141,0.8969,0.8759,0.8576,-2.2309,-2.205,-2.0864,-2.0386,-2.0342,-1.9939,-1.9782,-1.976,-1.979,-1.9203,-1.8318,-1.8168,-1.8102,-1.7904,-1.7603,-1.7351,-1.7188,-1.6902,-1.673,-1.6689,-1.6689,-1.6689,-1.6607,-1.6319,-1.5982,-1.5609,-1.5151,-1.4692,-1.4019,-1.3555,-1.313,-1.2571,-1.2272,-1.18,-1.1542,-1.1327,-1.0939,-1.0506,-1.0674,-1.0421,-0.9899,-0.9563,-0.9258,-0.9105,-0.8911,-0.8803,-0.8703,-0.8703,-0.8703,-0.8703,-0.8703,-0.825,-0.7535,-0.7526,-0.6984,-0.6247,-0.6093,-0.555,-0.4849,-0.4226,-0.3761,-0.3372,-0.3057,-0.2942,-0.2824,-0.2628,-0.251,-0.251,-0.251,-0.251,-0.251,-0.251,-0.251,-0.247,-0.2431,-0.2392,-0.2313,-0.2235,-0.2157,-0.204,-0.1883,-0.1641,-0.132,-0.0926,-0.0459,-0.0076,0.015,0.0661,0.1753,0.2394,0.2949,0.3099,0.3198,0.3192,0.3192,0.3192,0.3192,0.3192,0.3192,0.3192,0.3192,0.3228,0.3263,0.3558,0.423,0.5474,0.6596,0.7461,0.8186,0.8918,0.9372,0.9405,0.9289,0.9084,0.8775,-2.3104,-2.2769,-2.1455,-2.0903,-2.0778,-2.0144,-1.9879,-1.9843,-1.9692,-1.9241,-1.8652,-1.8545,-1.8474,-1.8371,-1.8089,-1.7644,-1.7473,-1.7147,-1.6902,-1.6771,-1.673,-1.6689,-1.6484,-1.6278,-1.6312,-1.5982,-1.5443,-1.4943,-1.4482,-1.3857,-1.3392,-1.3045,-1.2613,-1.2229,-1.2057,-1.1666,-1.1365,-1.0933,-1.1241,-1.0857,-1.0149,-0.9843,-0.9385,-0.9104,-0.8845,-0.8732,-0.8703,-0.8703,-0.8703,-0.8589,-0.8518,-0.8479,-0.8025,-0.7795,-0.7595,-0.7207,-0.6822,-0.6202,-0.5389,-0.4652,-0.4109,-0.3682,-0.3018,-0.2746,-0.2943,-0.2746,-0.251,-0.251,-0.251,-0.251,-0.251,-0.251,-0.251,-0.247,-0.247,-0.2431,-0.2431,-0.2392,-0.2353,-0.2314,-0.2235,-0.2155,-0.1912,-0.1872,-0.1315,-0.0461,-0.0305,0.0341,0.1304,0.185,0.2436,0.2962,0.3037,0.3171,0.3192,0.3192,0.3192,0.3192,0.3192,0.3192,0.3192,0.3228,0.3301,0.3717,0.4315,0.5185,0.6256,0.7212,0.8115,0.8892,0.9327,0.9685,0.9538,0.9322,0.9032,-2.3501,-2.2878,-2.1921,-2.1457,-2.1307,-2.0476,-1.9964,-1.9778,-1.9556,-1.9399,-1.9271,-1.9341,-1.9152,-1.8891,-1.866,-1.8129,-1.7765,-1.7554,-1.7229,-1.6943,-1.6861,-1.6779,-1.673,-1.6648,-1.6566,-1.6443,-1.6064,-1.5733,-1.5443,-1.4692,-1.411,-1.3688,-1.3137,-1.2577,-1.2229,-1.2057,-1.1886,-1.1537,-1.1509,-1.132,-1.0852,-1.0336,-0.9707,-0.9217,-0.8831,-0.8718,-0.8703,-0.8703,-0.8703,-0.8627,-0.8437,-0.8365,-0.825,-0.7987,-0.7983,-0.7706,-0.7207,-0.6665,-0.6005,-0.5079,-0.4499,-0.3839,-0.3018,-0.2746,-0.2981,-0.2824,-0.2588,-0.251,-0.251,-0.251,-0.251,-0.251,-0.251,-0.251,-0.251,-0.251,-0.251,-0.251,-0.251,-0.251,-0.247,-0.247,-0.2431,-0.2431,-0.1832,-0.0968,-0.0231,0.0499,0.11,0.133,0.171,0.238,0.2814,0.2953,0.3141,0.3192,0.3192,0.3192,0.3192,0.3192,0.3192,0.3228,0.3458,0.4023,0.4654,0.5164,0.5992,0.6982,0.7894,0.8702,0.9134,0.9479,0.9653,0.9452,0.9197,-2.3474,-2.2501,-2.1959,-2.1449,-2.1009,-2.0899,-2.0351,-1.9571,-1.9861,-1.9775,-1.9578,-1.9814,-1.9736,-1.9183,-1.8812,-1.8451,-1.829,-1.8049,-1.7676,-1.731,-1.7188,-1.6984,-1.6812,-1.6689,-1.6689,-1.6607,-1.6443,-1.6229,-1.5899,-1.5443,-1.4734,-1.3857,-1.3688,-1.3173,-1.2662,-1.2491,-1.232,-1.2057,-1.2023,-1.1937,-1.1024,-1.0459,-0.9948,-0.9454,-0.9005,-0.8818,-0.8703,-0.8703,-0.8703,-0.8665,-0.8585,-0.8475,-0.8327,-0.8136,-0.8097,-0.8016,-0.7514,-0.7126,-0.6468,-0.5812,-0.5234,-0.4457,-0.3717,-0.3096,-0.3098,-0.2824,-0.2628,-0.2588,-0.2549,-0.251,-0.251,-0.251,-0.251,-0.251,-0.251,-0.251,-0.251,-0.251,-0.251,-0.251,-0.251,-0.247,-0.247,-0.2227,-0.1744,-0.096,-0.0341,0.0378,0.105,0.1089,0.1165,0.1824,0.2573,0.2868,0.3147,0.3196,0.3192,0.3192,0.3192,0.3192,0.3192,0.3192,0.3525,0.4054,0.4453,0.484,0.5768,0.6694,0.7485,0.824,0.8768,0.915,0.9443,0.9502,0.9205]},{"header":{"parameterUnit":"m.s-1","parameterCategory":1,"la1":31.0,"la2":29.5877,"lo1":-88.7671,"lo2":-86.6584,"dx":0.0162,"dy":0.0185,"nx":115,"ny":88,"refTime":"2023-01-14T18:00:00:Z","depth":0,"parameterNumber":3,"parameterNumberName":"V-component_of_WINDS"},"data":[0.0,0.0,0.0,0.0,0.0,0.0,0.0,0.0,0.0,0.0,0.0,0.0,0.0,0.0,0.0,0.0,0.0,0.0,0.0,0.0,0.0,0.0,0.0,0.0,0.0,0.0,0.0,0.0,0.0,0.0,0.0,0.0,0.0,0.0,0.0,0.0,0.0,0.0,0.0,0.0,0.0,0.0,0.0,0.0,0.0,0.0,0.0,0.0,0.0,0.0,0.0,0.0,0.0,0.0,0.0,0.0,0.0,0.0,0.0,0.0,0.0,0.0,0.0,0.0,0.0,0.0,0.0,0.0,0.0,0.0,0.0,0.0,0.0,0.0,0.0,0.0,0.0,0.0,0.0,0.0,0.0,0.0,0.0,0.0,0.0,0.0,0.0,0.0,0.0,0.0,0.0,0.0,0.0,0.0,0.0,0.0,0.0,0.0,0.0,0.0,0.0,0.0,0.0,0.0,0.0,0.0,0.0,0.0,0.0,0.0,0.0,0.0,0.0,0.0,0.0,0.0,0.0,0.0,0.0,0.0,0.0,0.0,0.0,0.0,0.0,0.0,0.0,0.0,0.0,0.0,0.0,0.0,0.0,0.0,0.0,0.0,0.0,0.0,0.0,0.0,0.0,0.0,0.0,0.0,0.0,0.0,0.0,0.0,0.0,0.0,0.0,0.0,0.0,0.0,0.0,0.0,0.0,0.0,0.0,0.0,0.0,0.0,0.0,0.0,0.0,0.0,0.0,0.0,0.0,0.0,0.0,0.0,0.0,0.0,0.0,0.0,0.0,0.0,0.0,0.0,0.0,0.0,0.0,0.0,0.0,0.0,0.0,0.0,0.0,0.0,0.0,0.0,0.0,0.0,0.0,0.0,0.0,0.0,0.0,0.0,0.0,0.0,0.0,0.0,0.0,0.0,0.0,0.0,0.0,0.0,0.0,0.0,0.0,0.0,0.0,0.0,0.0,0.0,0.0,0.0,0.0,0.0,0.0,0.0,0.0,0.0,0.0,0.0,0.0,0.0,0.0,0.0,0.0,0.0,0.0,0.0,0.0,0.0,0.0,0.0,0.0,0.0,0.0,0.0,0.0,0.0,0.0,0.0,0.0,0.0,0.0,0.0,0.0,0.0,0.0,0.0,0.0,0.0,0.0,0.0,0.0,0.0,0.0,0.0,0.0,0.0,0.0,0.0,0.0,0.0,0.0,0.0,0.0,0.0,0.0,0.0,0.0,0.0,0.0,0.0,0.0,0.0,0.0,0.0,0.0,0.0,0.0,0.0,0.0,0.0,0.0,0.0,0.0,0.0,0.0,0.0,0.0,0.0,0.0,0.0,0.0,0.0,0.0,0.0,0.0,0.0,0.0,0.0,0.0,0.0,0.0,0.0,0.0,0.0,0.0,0.0,0.0,0.0,0.0,0.0,0.0,0.0,0.0,0.0,0.0,0.0,0.0,0.0,0.0,0.0,0.0,0.0,0.0,0.0,0.0,0.0,0.0,0.0,0.0,0.0,0.0,0.0,0.0,0.0,0.0,0.0,0.0,0.0,0.0,0.0,0.0,0.0,0.0,0.0,0.0,0.0,0.0,0.0,0.0,0.0,0.0,0.0,0.0,0.0,0.0,0.0,0.0,0.0,0.0,0.0,0.0,0.0,0.0,0.0,0.0,0.0,0.0,0.0,0.0,0.0,0.0,0.0,0.0,0.0,0.0,0.0,0.0,0.0,0.0,0.0,0.0,0.0,0.0,0.0,0.0,0.0,0.0,0.0,0.0,0.0,0.0,0.0,0.0,0.0,0.0,0.0,0.0,0.0,0.0,0.0,0.0,0.0,0.0,0.0,0.0,0.0,0.0,0.0,0.0,0.0,0.0,0.0,0.0,0.0,0.0,0.0,0.0,0.0,0.0,0.0,0.0,0.0,0.0,0.0,0.0,0.0,0.0,0.0,0.0,0.0,0.0,0.0,0.0,0.0,0.0,0.0,0.0,0.0,0.0,0.0,0.0,0.0,0.0,0.0,0.0,0.0,0.0,0.0,0.0,0.0,0.0,0.0,0.0,0.0,0.0,0.0,0.0,0.0,0.0,0.0,0.0,0.0,0.0,0.0,0.0,0.0,0.0,0.0,0.0,0.0,0.0,0.0,0.0,0.0,0.0,0.0,0.0,0.0,0.0,0.0,0.0,0.0,0.0,0.0,0.0,0.0,0.0,0.0,0.0,0.0,0.0,0.0,0.0,0.0,0.0,0.0,0.0,0.0,0.0,0.0,0.0,0.0,0.0,0.0,0.0,0.0,0.0,0.0,0.0,0.0,0.0,0.0,0.0,0.0,0.0,0.0,0.0,0.0,0.0,0.0,0.0,0.0,0.0,0.0,0.0,0.0,0.0,0.0,0.0,0.0,0.0,0.0,0.0,0.0,0.0,0.0,0.0,0.0,0.0,0.0,0.0,0.0,0.0,0.0,0.0,0.0,0.0,0.0,0.0,0.0,0.0,0.0,0.0,0.0,0.0,0.0,0.0,0.0,0.0,0.0,0.0,0.0,0.0,0.0,0.0,0.0,0.0,0.0,0.0,0.0,0.0,0.0,0.0,0.0,0.0,0.0,0.0,0.0,0.0,0.0,0.0,0.0,0.0,0.0,0.0,0.0,0.0,0.0,0.0,0.0,0.0,0.0,0.0,0.0,0.0,0.0,0.0,0.0,0.0,0.0,0.0,0.0,0.0,0.0,0.0,0.0,0.0,0.0,0.0,0.0,0.0,0.0,0.0,0.0,0.0,0.0,0.0,0.0,0.0,0.0,0.0,0.0,0.0,0.0,0.0,0.0,0.0,0.0,0.0,0.0,0.0,0.0,0.0,0.0,0.0,0.0,0.0,0.0,0.0,0.0,0.0,0.0,0.0,0.0,0.0,0.0,0.0,0.0,0.0,0.0,0.0,0.0,0.0,0.0,0.0,0.0,0.0,0.0,0.0,0.0,0.0,0.0,0.0,0.0,0.0,0.0,0.0,0.0,0.0,0.0,0.0,0.0,0.0,0.0,0.0,0.0,0.0,0.0,0.0,0.0,0.0,0.0,0.0,0.0,0.0,0.0,0.0,0.0,0.0,0.0,0.0,0.0,0.0,0.0,0.0,0.0,0.0,0.0,0.0,0.0,0.0,0.0,0.0,0.0,0.0,0.0,0.0,0.0,0.0,0.0,0.0,0.0,0.0,0.0,0.0,0.0,0.0,0.0,0.0,0.0,0.0,0.0,0.0,0.0,0.0,0.0,0.0,0.0,0.0,0.0,0.0,0.0,0.0,0.0,0.0,0.0,0.0,0.0,0.0,0.0,0.0,0.0,0.0,0.0,0.0,0.0,0.0,0.0,0.0,0.0,0.0,0.0,0.0,0.0,0.0,0.0,0.0,0.0,0.0,0.0,0.0,0.0,0.0,0.0,0.0,0.0,0.0,0.0,0.0,0.0,0.0,0.0,0.0,0.0,0.0,0.0,0.0,0.0,0.0,0.0,0.0,0.0,0.0,0.0,0.0,0.0,0.0,0.0,0.0,0.0,0.0,0.0,0.0,0.0,0.0,0.0,0.0,0.0,0.0,0.0,0.0,0.0,0.0,0.0,0.0,0.0,0.0,0.0,0.0,0.0,0.0,0.0,0.0,0.0,0.0,0.0,0.0,0.0,0.0,0.0,0.0,0.0,0.0,0.0,0.0,0.0,0.0,0.0,0.0,0.0,0.0,0.0,0.0,0.0,0.0,0.0,0.0,0.0,0.0,0.0,0.0,0.0,0.0,0.0,0.0,0.0,0.0,0.0,0.0,0.0,0.0,0.0,0.0,0.0,0.0,0.0,0.0,0.0,0.0,0.0,0.0,0.0,0.0,0.0,0.0,0.0,0.0,0.0,0.0,0.0,0.0,0.0,0.0,0.0,0.0,0.0,0.0,0.0,0.0,0.0,0.0,0.0,0.0,0.0,0.0,0.0,0.0,0.0,0.0,0.0,0.0,0.0,0.0,0.0,0.0,0.0,0.0,0.0,0.0,0.0,0.0,0.0,0.0,0.0,0.0,0.0,0.0,0.0,0.0,0.0,0.0,0.0,0.0,0.0,0.0,0.0,0.0,0.0,0.0,0.0,0.0,0.0,0.0,0.0,0.0,0.0,0.0,0.0,0.0,0.0,0.0,0.0,0.0,0.0,0.0,0.0,0.0,0.0,0.0,0.0,0.0,0.0,0.0,0.0,0.0,0.0,0.0,0.0,0.0,0.0,0.0,0.0,0.0,0.0,0.0,0.0,0.6031,0.0,0.0,0.0,0.0,0.0,0.0,0.0,0.0,0.0,0.0,0.0,0.0,0.0,0.0,0.0,0.0,0.0,0.0,0.0,0.0,0.0,0.0,0.0,0.0,0.0,0.0,0.0,0.0,0.0,0.0,0.0,0.0,0.0,0.0,0.0,0.0,0.0,0.0,0.0,0.0,0.0,0.0,0.0,0.0,0.0,0.0,0.0,0.0,0.0,0.0,0.0,0.0,0.0,0.0,0.0,0.0,0.0,0.0,0.0,0.0,0.0,0.0,0.0,0.0,0.0,0.0,0.0,0.0,0.0,0.0,0.0,0.0,0.0,0.0,0.0,0.0,0.0,0.0,0.0,0.0,0.0,0.0,0.0,0.0,0.0,0.0,0.0,0.0,0.0,0.0,0.0,0.0,0.0,0.0,0.0,0.0,0.0,0.0,0.0,0.0,0.0,0.0,0.0,0.0,0.0,0.0,0.0,0.0,0.0,0.0,0.6367,0.674,0.5668,0.5255,0.5648,0.0,0.0,0.0,0.0,0.0,0.0,0.0,0.0,0.0,0.0,0.0,0.0,0.0,0.0,0.0,0.0,0.0,0.0,0.0,0.0,0.0,0.0,0.0,0.0,0.0,0.0,0.0,0.0,0.0,0.0,0.0,0.0,0.0,0.0,0.0,0.0,0.0,0.0,0.0,0.0,0.0,0.0,0.0,0.0,0.0,0.0,0.0,0.0,0.0,0.0,0.0,0.0,0.0,0.0,0.0,0.0,0.0,0.0,0.0,0.0,0.0,0.0,0.0,0.0,0.0,0.0,0.0,0.0,0.0,0.0,0.0,0.0,0.0,0.0,0.0,0.0,0.0,0.0,0.0,0.0,0.0,0.0,0.0,0.0,0.0,0.0,0.0,0.0,0.0,0.0,0.0,0.0,0.0,0.0,0.0,0.0,0.0,0.0,0.0,0.0,0.0,0.0,0.0,0.0,0.0,0.0,0.0,0.0,0.0,0.0,0.0,0.0,0.5352,0.4945,0.513,0.0,0.0,0.0,0.0,0.0,0.0,0.0,0.0,0.0,0.0,0.0,0.0,0.0,0.0,0.0,0.0,0.0,0.0,0.0,0.0,0.0,0.0,0.0,0.0,0.0,0.0,0.0,0.0,0.0,0.0,0.0,0.0,0.0,0.0,0.0,0.0,0.0,0.0,0.0,0.0,0.0,0.0,0.0,0.0,0.0,0.0,0.0,0.0,0.0,0.0,0.0,0.0,0.0,0.0,0.0,0.0,0.0,0.0,0.0,0.0,0.0,0.0,0.0,0.0,0.0,0.0,0.0,0.0,0.0,0.0,0.0,0.0,0.0,0.0,0.0,0.0,0.0,0.0,0.0,0.0,0.0,0.0,0.0,0.0,0.0,0.0,0.0,0.0,0.0,0.0,0.0,0.0,0.0,0.0,0.0,0.0,0.0,0.0,0.0,0.0,0.0,0.0,0.0,0.0,0.0,0.0,0.0,0.0,0.0,0.0,0.577,0.5505,0.5166,0.0,0.4419,0.0,0.0,0.0,0.0,0.0,0.0,0.0,0.0,0.0,0.0,0.0,0.0,0.0,0.0,0.0,0.0,0.0,0.0,0.0,0.0,0.0,0.0,0.0,0.0,0.0,0.0,0.0,0.0,0.0,0.0,0.0,0.0,0.0,0.0,0.0,0.0,0.0,0.0,0.0,0.0,0.0,0.0,0.0,0.0,0.0,0.0,0.0,0.0,0.0,0.0,0.0,0.0,0.0,0.0,0.0,0.0,0.0,0.0,0.0,0.0,0.0,0.0,0.0,0.0,0.0,0.0,0.0,0.0,0.0,0.0,0.0,0.0,0.0,0.0,0.0,0.0,0.0,0.0,0.0,0.0,0.0,0.0,0.0,0.0,0.0,0.0,0.0,0.0,0.0,0.0,0.0,0.0,0.0,0.0,0.0,0.0,0.0,0.0,0.0,0.0,0.0,0.0,0.0,0.0,0.0,0.0,0.0,0.0,0.0,0.0,0.5187,0.5061,0.4631,0.4286,0.0,0.0,0.0,0.0,0.0,0.0,0.0,0.0,0.0,0.0,0.0,0.0,0.0,0.0,0.0,0.0,0.0,0.0,0.0,0.0,0.0,0.0,0.0,0.0,0.0,0.0,0.0,0.0,0.0,0.0,0.0,0.0,0.0,0.0,0.0,0.0,0.0,0.0,0.0,0.0,0.0,0.0,0.0,0.0,0.0,0.0,0.0,0.0,0.0,0.0,0.0,0.0,0.0,0.0,0.0,0.0,0.0,0.0,0.0,0.0,0.0,0.0,0.0,0.0,0.0,0.0,0.0,0.0,0.0,0.0,0.0,0.0,0.0,0.0,0.0,0.0,0.0,0.0,0.0,0.0,0.0,0.0,0.0,0.0,0.0,0.0,0.0,0.0,0.0,0.0,0.0,0.0,0.0,0.0,0.0,0.0,0.0,0.0,0.0,0.0,0.0,0.0,0.0,0.0,0.0,0.0,0.0,0.0,0.0,0.0,0.5312,0.4707,0.4445,0.4151,0.3969,0.3906,0.0,0.0,0.0,0.0,0.0,0.0,0.0,0.0,0.0,0.0,0.0,0.0,0.0,0.0,0.0,0.0,0.0,0.0,0.0,0.0,0.0,0.0,0.0,0.0,0.0,0.0,0.0,0.0,0.0,0.0,0.0,0.0,0.0,0.0,0.0,0.0,0.0,0.0,0.0,0.0,0.0,0.0,0.0,0.0,0.0,0.0,0.0,0.0,0.0,0.0,0.0,0.0,0.0,0.0,0.0,0.0,0.0,0.0,0.0,0.0,0.0,0.0,0.0,0.0,0.0,0.0,0.0,0.0,0.0,0.0,0.0,0.0,0.0,0.0,0.0,0.0,0.0,0.0,0.0,0.0,0.0,0.0,0.0,0.0,0.0,0.0,0.0,0.0,0.0,0.0,0.0,0.0,0.0,0.0,0.0,0.0,0.0,0.0,0.0,0.0,0.0,0.0,0.0,0.0,0.0,0.0,0.0,0.0,0.0,0.5175,0.4522,0.3591,0.3831,0.3958,0.0,0.0,0.0,0.0,0.0,0.0,0.0,0.0,0.0,0.0,0.0,0.0,0.0,0.0,0.0,0.0,0.0,0.0,0.0,0.0,0.0,0.0,0.0,0.0,0.0,0.0,0.0,0.0,0.0,0.0,0.0,0.0,0.0,0.0,0.0,0.0,0.0,0.0,0.0,0.0,0.0,0.0,0.0,0.0,0.0,0.0,0.0,0.0,0.0,0.0,0.0,0.0,0.0,0.0,0.0,0.0,0.0,0.0,0.0,0.0,0.0,0.0,0.0,0.0,0.0,0.0,0.0,0.0,0.0,0.0,0.0,0.0,0.0,0.0,0.0,0.0,0.0,0.0,0.0,0.0,0.0,0.0,0.0,0.0,0.0,0.0,0.0,0.0,0.0,0.0,0.0,0.0,0.0,0.0,0.0,0.0,0.0,0.0,0.0,0.0,0.0,0.0,0.0,0.0,0.0,0.0,0.0,0.0,0.0,0.5869,0.4687,0.3608,0.2729,0.3163,0.3418,0.0,0.0,0.0,0.0,0.0,0.0,0.0,0.0,0.0,0.0,0.0,0.0,0.0,0.0,0.0,0.0,0.0,0.0,0.0,0.0,0.0,0.0,0.0,0.0,0.0,0.0,0.0,0.0,0.0,0.0,0.0,0.0,0.0,0.0,0.0,0.0,0.0,0.0,0.0,0.0,0.0,0.0,0.0,0.0,0.0,0.0,0.0,0.0,0.0,0.0,0.0,0.0,0.0,0.0,0.0,0.0,0.0,0.0,0.0,0.0,0.0,0.0,0.0,0.0,0.0,0.0,0.0,0.0,0.0,0.0,0.0,0.0,0.0,0.0,0.0,0.0,0.0,0.0,0.0,0.0,0.0,0.0,0.0,0.0,0.0,0.0,0.0,0.0,0.0,0.0,0.0,0.0,0.0,0.0,0.0,0.0,0.0,0.0,0.0,0.0,0.0,0.0,0.0,0.0,0.0,0.0,0.0,0.0,0.0,0.5523,0.0,0.3275,0.2321,0.276,0.3051,0.0,0.0,0.0,0.0,0.0,0.0,0.0,0.0,0.0,0.0,0.0,0.0,0.0,0.0,0.0,0.0,0.0,0.0,0.0,0.0,0.0,0.0,0.0,0.0,0.0,0.0,0.0,0.0,0.0,0.0,0.0,0.0,0.0,0.0,0.0,0.0,0.0,0.0,0.0,0.0,0.0,0.0,0.0,0.0,0.0,0.0,0.0,0.0,0.0,0.0,0.0,0.0,0.0,0.0,0.0,0.0,0.0,0.0,0.0,0.0,0.0,0.0,0.0,0.0,0.0,0.0,0.0,0.0,0.0,0.0,0.0,0.0,0.0,0.0,0.0,0.0,0.0,0.0,0.0,0.0,0.0,0.0,0.0,0.0,0.0,0.0,0.0,0.0,0.0,0.0,0.0,0.0,0.0,0.0,0.0,0.0,0.0,0.0,0.0,0.0,0.0,0.0,0.0,0.0,0.0,0.0,0.0,0.0,0.6198,0.4394,0.4183,0.3499,0.2429,0.2661,0.2917,0.0,0.0,0.0,0.0,0.0,0.0,0.0,0.0,0.0,0.0,0.0,0.0,0.0,0.0,0.0,0.0,0.0,0.0,0.0,0.0,0.0,0.0,0.0,0.0,0.0,0.0,0.0,0.0,0.0,0.0,0.0,0.0,0.0,0.0,0.0,0.0,0.0,0.0,0.0,0.0,0.0,0.0,0.0,0.0,0.0,0.0,0.0,0.0,0.0,0.0,0.0,0.0,0.0,0.0,0.0,0.0,0.0,0.0,0.0,0.0,0.0,0.0,0.0,0.0,0.0,0.0,0.0,0.0,0.0,0.0,0.0,0.0,0.0,0.0,0.0,0.0,0.0,0.0,0.0,0.0,0.0,0.0,0.0,0.0,0.0,0.0,0.0,0.0,0.0,0.0,0.0,0.0,0.0,0.0,0.0,0.0,0.0,0.0,0.0,0.0,0.0,0.0,0.0,0.0,0.0,0.0,0.0,0.0,0.0,0.3806,0.3045,0.2224,0.1288,0.1501,0.1757,0.0,0.0,0.0,0.0,0.0,0.0,0.0,0.0,0.0,0.0,0.0,0.0,0.0,0.0,0.0,0.0,0.0,0.0,0.0,0.0,0.0,0.0,0.0,0.0,0.0,0.0,0.0,0.0,0.0,0.0,0.0,0.0,0.0,0.0,0.0,0.0,0.0,0.0,0.0,0.0,0.0,0.0,0.0,0.0,0.0,0.0,0.0,0.0,0.0,0.0,0.0,0.0,0.0,0.0,0.0,0.0,0.0,0.0,0.0,0.0,0.0,0.0,0.0,0.0,0.0,0.0,0.0,0.0,0.0,0.0,0.0,0.0,0.0,0.0,0.0,0.0,0.0,0.0,0.0,0.0,0.0,0.0,0.0,0.0,0.0,0.0,0.0,0.0,0.0,0.0,0.0,0.0,0.0,0.0,0.0,0.0,0.0,0.0,0.0,0.0,0.0,0.0,0.0,0.0,0.0,0.0,0.0,0.0,0.0,0.4533,0.3256,0.2121,0.1022,0.089,0.1042,0.1501,0.0,0.0,0.0,0.0,0.0,0.0,0.0,0.0,0.0,0.0,0.0,0.0,0.0,0.0,0.0,0.0,0.0,0.0,0.0,0.0,0.0,0.0,0.0,0.0,0.0,0.0,0.0,0.0,0.0,0.0,0.0,0.0,0.0,0.0,0.0,0.0,0.0,0.0,0.0,0.0,0.0,0.0,0.0,0.0,0.0,0.0,0.0,0.0,0.0,0.0,0.0,0.0,0.0,0.0,0.0,0.0,0.0,0.0,0.0,0.0,0.0,0.0,0.0,0.0,0.0,0.0,0.0,0.0,0.0,0.0,0.0,0.0,0.0,0.0,0.0,0.0,0.0,0.0,0.0,0.0,0.0,0.0,0.0,0.0,0.0,0.0,0.0,0.0,0.0,0.0,0.0,0.0,0.0,0.0,0.0,0.0,0.0,0.0,0.0,0.0,0.0,0.0,0.0,0.0,0.0,0.0,0.0,0.0,0.6286,0.4715,0.3129,0.1464,0.0719,0.0672,0.0,0.0,0.0,0.0,0.0,0.0,0.0,0.0,0.0,0.0,0.0,0.0,0.0,0.0,0.0,0.0,0.0,0.0,0.0,0.0,0.0,0.0,0.0,0.0,0.0,0.0,0.0,0.0,0.0,0.0,0.0,0.0,0.0,0.0,0.0,0.0,0.0,0.0,0.0,0.0,0.0,0.0,0.0,0.0,0.0,0.0,0.0,0.0,0.0,0.0,0.0,0.0,0.0,0.0,0.0,0.0,0.0,0.0,0.0,0.0,0.0,0.0,0.0,0.0,0.0,0.0,0.0,0.0,0.0,0.0,0.0,0.0,0.0,0.0,0.0,0.0,0.0,0.0,0.0,0.0,0.0,0.0,0.0,0.0,0.0,0.0,0.0,0.0,0.0,0.0,0.0,0.0,0.0,0.0,0.0,0.0,0.0,0.0,0.0,0.0,0.0,0.0,0.0,0.0,0.0,0.0,0.0,0.0,0.0,0.815,0.6945,0.4571,0.0929,0.0094,-0.0103,0.0,0.0,0.0,0.0,0.0,0.0,0.0,0.0,0.0,0.0,0.0,0.0,0.0,0.0,0.0,0.0,0.0,0.0,0.0,0.0,0.0,0.0,0.0,0.0,0.0,0.0,0.0,0.0,0.0,0.0,0.0,0.0,0.0,0.0,0.0,0.0,0.0,0.0,0.0,0.0,0.0,0.0,0.0,0.0,0.0,0.0,0.0,0.0,0.0,0.0,0.0,0.0,0.0,0.0,0.0,0.0,0.0,0.0,0.0,0.0,0.0,0.0,0.0,0.0,0.0,0.0,0.0,0.0,0.0,0.0,0.0,0.0,0.0,0.0,0.0,0.0,0.0,0.0,0.0,0.0,0.0,0.0,0.0,0.0,0.0,0.0,0.0,0.0,0.0,0.0,0.0,0.0,0.0,0.0,0.0,0.0,0.0,0.0,0.0,0.0,0.0,0.0,0.0,0.0,0.0,0.0,0.0,0.0,1.0855,0.9664,0.8648,0.632,0.2558,0.0723,-0.0077,0.0,0.0,0.0,0.0,0.0,0.0,0.0,0.0,0.0,0.0,0.0,0.0,0.0,0.0,0.0,0.0,0.0,0.0,0.0,0.0,0.0,0.0,0.0,0.0,0.0,0.0,0.0,0.0,0.0,0.0,0.0,0.0,0.0,0.0,0.0,0.0,0.0,0.0,0.0,0.0,0.0,0.0,0.0,0.0,0.0,0.0,0.0,0.0,0.0,0.0,0.0,0.0,0.0,0.0,0.0,0.0,0.0,0.0,0.0,0.0,0.0,0.0,0.0,0.0,0.0,0.0,0.0,0.0,0.0,0.0,0.0,0.0,0.0,0.0,0.0,0.0,0.0,0.0,0.0,0.0,0.0,0.0,0.0,0.0,0.0,0.0,0.0,0.0,0.0,0.0,0.0,0.0,0.0,0.0,0.0,0.0,0.0,0.0,0.0,0.0,0.0,0.0,0.0,0.0,0.0,0.0,0.0,0.0,1.238,1.1176,1.0281,0.8468,0.5595,0.2192,0.0535,0.0,0.0,0.0,0.0,0.0,0.0,0.0,0.0,0.0,0.0,0.0,0.0,0.0,0.0,0.0,0.0,0.0,0.0,0.0,0.0,0.0,0.0,0.0,0.0,0.0,0.0,0.0,0.0,0.0,0.0,0.0,0.0,0.0,0.0,0.0,0.0,0.0,0.0,0.0,0.0,0.0,0.0,0.0,0.0,0.0,0.0,0.0,0.0,0.0,0.0,0.0,0.0,0.0,0.0,0.0,0.0,0.0,0.0,0.0,0.0,0.0,0.0,0.0,0.0,0.0,0.0,0.0,0.0,0.0,0.0,0.0,0.0,0.0,0.0,0.0,0.0,0.0,0.0,0.0,0.0,0.0,0.0,0.0,0.0,0.0,0.0,0.0,0.0,0.0,0.0,0.0,0.0,0.0,0.0,0.0,0.0,0.0,0.0,0.0,0.0,0.0,0.0,0.0,0.0,0.0,0.0,0.0,0.0,1.4769,1.3434,1.3234,1.146,0.7965,0.3848,0.1619,0.0,0.0,0.0,0.0,0.0,0.0,0.0,0.0,0.0,0.0,0.0,0.0,0.0,0.0,0.0,0.0,0.0,0.0,0.0,0.0,0.0,0.0,0.0,0.0,0.0,0.0,0.0,0.0,0.0,0.0,0.0,0.0,0.0,0.0,0.0,0.0,0.0,0.0,0.0,0.0,0.0,0.0,0.0,0.0,0.0,0.0,0.0,0.0,1.0714,0.0,0.0,0.0,0.0,0.0,0.0,0.0,0.0,0.0,0.0,0.0,0.0,0.0,0.0,0.0,0.0,0.0,0.0,0.0,0.0,0.0,0.0,0.0,0.0,0.0,0.0,0.0,0.0,0.0,0.0,0.0,0.0,0.0,0.0,0.0,0.0,0.0,0.0,0.0,0.0,0.0,0.0,0.0,0.0,0.0,0.0,0.0,0.0,0.0,0.0,0.0,0.0,0.0,0.0,0.0,0.0,0.0,0.0,0.0,1.5517,1.4833,1.4435,1.2985,1.033,0.7075,0.4548,0.0,0.0,0.0,0.0,0.0,0.0,0.0,0.0,0.0,0.0,0.0,0.0,0.0,0.0,0.0,0.0,0.0,0.0,0.0,0.0,0.0,0.0,0.0,0.0,0.0,0.0,0.0,0.0,0.0,0.0,0.0,0.0,0.0,0.0,0.0,0.0,0.0,0.0,0.0,0.0,0.0,0.0,0.0,0.0,0.0,0.0,0.0,0.0,0.0,0.0,0.0,0.0,0.0,0.0,0.0,0.0,0.0,0.0,0.0,0.0,0.0,0.0,0.0,0.0,0.0,0.0,0.0,0.0,0.0,0.0,0.0,0.0,0.0,0.0,0.0,0.0,0.0,0.0,0.0,0.0,0.0,0.0,0.0,0.0,0.0,0.0,0.0,0.0,0.0,0.0,0.0,0.0,0.0,0.0,0.0,0.0,0.0,0.0,0.0,0.0,0.0,0.0,0.0,0.0,0.0,0.0,0.0,1.5152,1.5886,1.6036,1.5254,1.4065,1.2454,1.0434,0.7961,0.5076,0.0,0.0,0.0,0.0,0.0,0.0,0.0,0.0,0.0,0.0,0.0,0.0,0.0,0.0,0.0,0.0,0.0,0.0,0.0,0.0,0.0,0.0,0.0,0.0,0.0,0.0,0.0,0.0,0.0,0.0,0.0,0.0,0.0,0.0,0.0,0.0,0.0,0.0,1.0441,0.895,0.0,0.0,0.0,0.0,0.0,0.0,0.0,0.0,1.0542,0.0,0.0,0.0,0.0,0.0,0.0,0.0,0.0,0.0,0.0,0.0,0.0,0.0,0.0,0.0,0.0,0.0,0.0,0.0,0.0,0.0,0.0,0.0,0.0,0.0,0.0,0.0,0.0,0.0,0.0,0.0,0.0,0.0,0.0,0.0,0.0,0.0,0.0,0.0,0.0,0.0,0.0,0.0,0.0,0.0,0.0,0.0,0.0,0.0,0.0,0.0,0.0,0.0,0.0,0.0,0.0,1.7635,1.7337,1.7469,1.8079,1.7531,1.6012,1.3529,1.1812,0.9914,0.7846,0.0,0.0,0.0,0.0,0.0,0.0,0.0,0.0,0.0,0.0,0.0,0.0,0.0,0.0,0.0,0.0,0.0,0.0,0.0,0.0,0.0,0.0,0.0,0.0,0.0,0.0,0.0,0.0,0.0,0.0,0.0,0.0,0.0,0.0,0.0,0.0,0.0,0.0,0.0,0.9201,0.7634,0.0,0.0,0.0,0.0,0.0,0.0,0.0,0.0,1.0903,0.0,0.0,0.0,0.0,0.0,0.0,0.0,0.0,0.0,0.0,0.0,0.0,0.0,0.0,0.0,0.0,0.0,0.0,0.0,0.0,0.0,0.0,0.0,0.0,0.0,0.0,0.0,0.0,0.0,0.0,0.0,0.0,0.0,0.0,0.0,0.0,0.0,0.0,0.0,0.0,0.0,0.0,0.0,0.0,0.0,0.0,0.0,0.0,0.0,0.0,0.0,0.0,0.0,0.0,0.0,1.8012,1.8583,1.9067,1.9488,1.8375,1.6848,1.4933,1.2877,1.0843,0.0,0.0,0.0,0.0,0.0,0.0,0.0,0.0,0.0,0.0,0.0,0.0,0.0,0.0,0.0,0.0,0.0,0.0,0.0,0.0,0.0,0.0,0.0,0.0,0.0,0.0,0.0,0.0,0.0,0.0,0.0,0.0,0.0,0.0,0.0,0.0,0.0,0.0,0.0,0.0,0.9942,0.8449,0.778,0.0,0.0,0.0,0.0,0.0,0.0,1.0079,1.0066,0.0,0.0,0.0,0.0,0.0,0.0,0.0,0.0,0.0,0.0,0.0,0.0,0.0,0.0,0.0,0.0,0.0,0.0,0.0,0.0,0.0,0.0,0.0,0.0,0.0,0.0,0.0,0.0,0.0,0.0,0.0,0.0,0.0,0.0,0.0,0.0,0.0,0.0,0.0,0.0,0.0,0.0,0.0,0.0,0.0,0.0,0.0,0.0,0.0,0.0,0.0,0.0,0.0,0.0,0.0,1.7904,1.9423,2.0353,2.0575,1.9013,1.7518,1.6165,1.3402,1.1132,0.0,0.0,0.0,0.0,0.0,0.0,0.0,0.0,0.0,0.0,0.0,0.0,0.0,0.0,0.0,0.0,0.0,0.0,0.0,0.0,0.0,0.0,0.0,0.0,0.0,0.0,0.0,0.0,0.0,0.0,0.0,0.0,0.0,0.0,0.0,0.0,0.0,0.0,0.0,0.0,0.0,0.9711,1.0003,0.957,0.0,0.0,0.0,0.0,0.8725,0.9207,0.0,0.0,0.0,0.0,0.0,0.0,0.0,0.0,0.0,0.0,0.0,0.0,0.0,0.0,0.0,0.0,0.0,0.0,0.0,0.0,0.0,0.0,0.0,0.0,0.0,0.0,0.0,0.0,0.0,0.0,0.0,0.0,0.0,0.0,0.0,0.0,0.0,0.0,0.0,0.0,0.0,0.0,0.0,0.0,0.0,0.0,0.0,0.0,0.0,0.0,0.0,0.0,0.0,0.0,0.0,0.0,1.8808,1.9953,2.0872,2.1448,2.0299,1.8718,1.6734,1.3032,1.0724,0.0,0.0,0.0,0.0,0.0,0.0,0.0,0.0,0.0,0.0,0.0,0.0,0.0,0.0,0.0,0.0,0.0,0.0,0.0,0.0,0.0,0.0,0.0,0.0,0.0,0.0,0.0,0.0,0.0,0.0,0.0,0.0,0.0,0.0,0.0,0.0,0.0,0.0,0.0,0.0,0.0,1.0816,1.3868,1.1217,0.8812,0.0,0.0,0.9952,0.9507,1.0413,0.0,0.0,0.0,0.0,0.0,0.0,0.0,0.0,0.0,0.0,0.0,0.0,0.0,0.0,0.0,0.0,0.0,0.0,0.0,0.0,0.0,0.0,0.0,0.0,0.0,0.0,0.0,0.0,0.0,0.0,0.0,0.0,0.0,0.0,0.0,0.0,0.0,0.0,0.0,0.0,0.0,0.0,0.0,0.0,0.0,0.0,0.0,0.0,0.0,0.0,0.0,0.0,0.0,0.0,0.0,1.791,1.9136,2.1183,2.2148,2.1903,2.0688,1.8906,1.6625,1.3413,1.1131,0.0,0.0,0.0,0.0,0.0,0.0,0.0,0.0,0.0,0.0,0.0,0.0,0.0,0.0,0.0,0.0,0.0,0.0,0.0,0.0,0.0,0.0,0.0,0.0,0.0,0.0,0.0,0.0,0.0,0.0,0.0,0.0,0.0,0.0,0.0,0.0,0.0,0.0,0.0,0.0,0.0,0.0,1.4839,1.2883,0.0,0.0,0.0,1.1326,1.0335,0.0,0.0,0.0,0.0,0.0,0.0,0.0,0.0,0.0,0.0,0.0,0.0,0.0,0.0,0.0,0.0,0.0,0.0,0.0,0.0,0.0,0.0,0.0,0.0,0.0,0.0,0.0,0.0,0.0,0.0,0.0,0.0,0.0,0.0,0.0,0.0,0.0,0.0,0.0,0.0,0.0,0.0,0.0,0.0,0.0,0.0,0.0,0.0,0.0,0.0,0.0,0.0,0.0,0.0,0.0,0.0,0.0,1.9335,2.2316,2.3422,2.2475,2.1353,1.9697,1.7437,1.481,0.0,0.0,0.0,0.0,0.0,0.0,0.0,0.0,0.0,0.0,0.0,0.0,0.0,0.0,0.0,0.0,0.0,0.0,0.0,0.0,0.0,0.0,0.0,0.0,0.0,0.0,0.0,0.0,0.0,0.0,0.0,0.0,0.0,0.0,0.0,0.0,0.0,0.0,0.0,0.0,0.0,0.0,1.5832,1.5448,1.48,1.45,0.0,0.0,1.3323,1.1621,1.3192,1.3397,0.0,0.0,0.0,0.0,0.0,0.0,0.0,0.0,0.0,0.0,0.0,0.0,0.0,0.0,0.0,0.0,0.0,0.0,0.0,0.0,0.0,0.0,0.0,0.0,0.0,0.0,0.0,0.0,0.0,0.0,0.0,0.0,0.0,0.0,0.0,0.0,0.0,0.0,0.0,0.0,0.0,0.0,0.0,0.0,0.0,0.0,0.0,0.0,0.0,0.0,0.0,0.0,0.0,0.0,0.0,1.9651,2.3094,2.4396,2.3427,2.2889,2.18,2.0056,1.775,1.5104,0.0,0.0,0.0,0.0,0.0,0.0,0.0,0.0,0.0,0.0,0.0,0.0,0.0,0.0,0.0,0.0,0.0,0.0,0.0,0.0,0.0,0.0,0.0,0.0,0.0,0.0,0.0,0.0,0.0,0.0,0.0,0.0,0.0,0.0,0.0,0.0,0.0,0.0,0.0,0.0,0.0,1.4899,1.6538,1.7244,1.7311,0.0,0.0,1.5962,1.3819,1.4779,1.4489,1.071,0.0,0.0,0.0,0.0,0.0,0.0,0.0,0.0,0.0,0.0,0.0,0.0,0.0,0.0,0.0,0.0,0.0,0.0,0.0,0.0,0.0,0.0,0.0,0.0,0.0,0.0,0.0,0.0,0.0,0.0,0.0,0.0,0.0,0.0,0.0,0.0,0.0,0.0,0.0,0.0,0.0,0.0,0.0,0.0,0.0,0.0,0.0,0.0,0.0,0.0,0.0,0.0,0.0,1.8335,1.9626,2.3282,2.4681,2.367,2.3315,2.2238,2.0351,1.8539,1.628,0.0,0.0,0.0,0.0,0.0,0.0,0.0,0.0,0.0,0.0,0.0,0.0,0.0,0.0,0.0,0.0,0.0,0.0,0.0,0.0,0.0,0.0,0.0,0.0,0.0,0.0,0.0,0.0,1.367,1.3789,1.3883,0.0,0.0,0.0,0.0,0.0,0.0,0.0,0.0,0.0,0.0,1.8027,1.8182,1.7536,0.0,0.0,1.7225,1.6561,1.6019,1.6282,1.5464,1.2268,1.1453,0.0,0.0,0.0,0.0,0.0,0.0,0.0,0.0,0.0,0.0,0.0,0.0,0.0,0.0,0.0,0.0,0.0,0.0,0.0,0.0,0.0,0.0,0.0,0.0,0.0,0.0,0.0,0.0,0.0,0.0,0.0,0.0,0.0,0.0,0.0,0.0,0.0,0.0,0.0,0.0,0.0,0.0,0.0,0.0,0.0,0.0,0.0,0.0,0.0,0.0,0.0,0.0,1.8753,2.0074,2.3772,2.5321,2.4568,2.4055,2.3042,2.1418,2.0234,1.834,0.0,0.0,0.0,0.0,0.0,0.0,0.0,0.0,0.0,0.0,0.0,0.0,0.0,0.0,0.0,0.0,0.0,0.0,0.0,0.0,0.0,0.0,0.0,0.0,0.0,0.0,0.0,0.0,1.4424,1.38,1.2598,0.0,0.0,0.0,0.0,0.0,0.0,0.0,0.0,0.0,0.0,2.0132,1.9468,1.8379,1.7914,1.864,1.7249,1.6322,1.6957,1.6907,1.5988,1.3724,0.0,0.0,0.0,0.0,0.0,0.0,0.0,0.0,0.0,0.0,0.0,0.0,0.0,0.0,0.0,0.0,0.0,0.0,0.0,0.0,0.0,0.0,0.0,0.0,0.0,0.0,0.0,0.0,0.0,0.0,1.4491,0.0,0.0,0.0,0.0,0.0,0.0,0.0,0.0,0.0,0.0,0.0,0.0,0.0,0.0,0.0,0.0,0.0,0.0,0.0,0.0,0.0,0.0,2.018,2.1195,2.4729,2.6523,2.6411,2.5361,2.4493,2.3833,2.3348,2.1682,1.8728,0.0,0.0,0.0,0.0,0.0,0.0,0.0,0.0,0.0,0.0,0.0,0.0,0.0,0.0,0.0,0.0,0.0,0.0,0.0,0.0,0.0,0.0,0.0,0.0,0.0,0.0,1.1521,1.2054,1.2668,0.0,0.0,0.0,0.0,0.0,0.0,0.0,0.0,0.0,0.0,1.9205,2.0301,2.0258,2.0236,1.988,1.9232,1.6818,1.5379,1.6467,1.6386,1.5911,0.0,0.0,0.0,0.0,0.0,0.0,0.0,0.0,0.0,0.0,0.0,0.0,0.0,0.0,0.0,0.0,0.0,0.0,0.0,0.0,0.0,0.0,0.0,0.0,0.0,0.0,0.0,1.5948,1.5457,0.0,0.0,0.0,0.0,0.0,0.0,0.0,0.0,0.0,0.0,0.0,1.84,1.878,0.0,0.0,0.0,0.0,0.0,0.0,0.0,0.0,0.0,0.0,0.0,0.0,2.0407,2.1402,2.544,2.759,2.7568,2.7064,2.6345,2.539,2.4829,2.277,1.9058,0.0,0.0,0.0,0.0,0.0,0.0,0.0,0.0,0.0,0.0,0.0,0.0,0.0,0.0,0.0,0.0,0.0,0.0,0.0,0.0,0.0,0.0,0.0,0.0,0.0,1.4096,0.0,0.0,0.0,0.0,0.0,0.0,0.0,0.0,0.0,0.0,0.0,1.7988,1.8533,1.9671,2.0423,2.0367,2.035,2.0437,0.0,0.0,0.0,0.0,0.0,0.0,0.0,0.0,0.0,0.0,0.0,0.0,0.0,0.0,1.6246,1.3596,1.3402,1.3788,1.4094,0.0,0.0,0.0,0.0,0.0,0.0,0.0,0.0,0.0,0.0,0.0,0.0,0.0,0.0,0.0,0.0,1.88,0.0,0.0,0.0,0.0,0.0,0.0,0.0,0.0,2.3126,2.3202,2.2126,2.2459,2.2216,0.0,2.115,1.9306,0.0,0.0,0.0,0.0,0.0,0.0,0.0,0.0,2.1523,2.2794,2.6536,2.8556,2.8531,2.8135,2.7513,2.6713,2.611,2.4318,2.1245,1.9452,1.7766,0.0,0.0,0.0,0.0,0.0,0.0,0.0,0.0,0.0,0.0,0.0,0.0,0.0,0.0,0.0,0.0,0.0,0.0,0.0,0.0,0.0,0.0,0.0,1.478,0.0,0.0,0.0,0.0,0.0,0.0,0.0,0.0,0.0,1.6657,1.8769,2.0451,2.0363,2.1158,2.1504,2.0934,0.0,0.0,0.0,0.0,0.0,0.0,0.0,1.6184,1.7084,1.6185,1.5782,1.717,1.4967,1.4266,1.8059,0.0,0.0,1.633,1.6133,1.6541,1.7093,1.8187,1.8843,1.8281,1.8836,1.9155,0.0,0.0,0.0,0.0,0.0,0.0,0.0,0.0,2.2913,2.2291,0.0,2.2376,0.0,0.0,0.0,0.0,0.0,2.4015,0.0,0.0,2.8551,2.9,2.7762,2.728,2.6714,2.5942,2.5065,2.4036,2.2833,2.1417,0.0,0.0,0.0,0.0,0.0,0.0,2.3496,2.5317,2.8036,2.9449,2.9407,2.8636,2.8074,2.7836,2.7224,2.6357,2.5219,2.2811,2.1024,1.9981,1.5485,0.0,0.0,0.0,0.0,0.0,0.0,0.0,0.0,0.0,0.0,0.0,0.0,0.0,0.0,0.0,0.0,0.0,0.0,0.0,0.0,1.6052,0.0,0.0,0.0,0.0,0.0,0.0,0.0,0.0,0.0,0.0,1.9558,2.1355,2.2915,2.2857,0.0,0.0,0.0,0.0,2.1975,1.9725,2.144,2.1594,1.7577,1.7396,1.8124,1.9153,0.0,0.0,2.0437,2.0214,1.9878,1.9224,2.0116,2.0467,2.0333,1.9534,1.8975,1.8964,1.9215,1.9146,1.9124,2.0001,2.0466,2.7775,0.0,0.0,0.0,0.0,2.5192,2.5339,2.5857,2.5873,2.5412,2.4688,2.5022,0.0,0.0,0.0,0.0,0.0,0.0,2.7676,2.8635,2.9435,2.9945,3.0249,3.0079,2.9969,2.9922,2.9471,2.9159,2.8965,2.7967,2.4417,1.8574,0.0,0.0,0.0,0.0,2.5151,2.6377,2.9006,3.0375,3.0332,3.0076,2.9578,2.882,2.7834,2.7136,2.6699,2.5784,2.4328,2.2275,2.0734,0.0,0.0,0.0,0.0,0.0,0.0,0.0,0.0,0.0,0.0,0.0,0.0,0.0,0.0,0.0,0.0,0.0,0.0,0.0,1.5712,1.7646,1.8131,0.0,0.0,0.0,0.0,0.0,0.0,0.0,0.0,0.0,2.3538,2.3655,2.3584,0.0,0.0,2.1964,2.0924,2.1007,2.1315,2.1707,0.0,0.0,0.0,2.0426,1.9908,2.1377,2.2538,2.3163,2.288,2.346,2.4047,2.4145,2.4913,2.5494,2.5306,2.3373,2.2025,2.2423,2.2999,2.3372,2.3404,2.354,2.3607,3.3208,3.1724,2.91,2.8522,2.9334,2.8904,2.9265,3.0191,3.0174,2.9798,2.9197,2.9455,2.894,2.7776,2.7598,0.0,0.0,0.0,3.0527,3.1455,3.1562,3.1789,3.2027,3.2002,3.1911,3.1797,3.1634,3.17,3.1958,3.105,2.8137,2.3313,0.0,0.0,2.2378,2.4705,2.6514,2.7786,2.9747,3.0772,3.0739,3.0709,3.0386,2.9726,2.9051,2.8491,2.8037,2.7782,2.6769,2.4865,2.3644,2.2013,0.0,0.0,0.0,0.0,0.0,0.0,0.0,0.0,0.0,0.0,0.0,1.6296,0.0,0.0,0.0,0.0,1.938,1.9021,1.8247,1.9845,0.0,0.0,0.0,0.0,0.0,0.0,0.0,2.365,2.5277,2.6238,2.6147,2.5794,2.5172,2.4307,2.3805,2.3209,2.2378,0.0,2.263,2.3573,2.3787,2.3937,2.4238,2.3352,2.3046,2.4361,2.5045,2.5391,2.5404,2.5822,2.6269,2.6804,2.7429,2.7808,2.7631,2.5964,2.4816,2.5337,2.5793,2.6085,2.6087,2.5946,2.5761,3.8247,3.8101,3.3085,3.1753,3.298,3.2961,3.3676,3.4941,3.4923,3.4584,3.4014,3.4673,3.3868,3.199,3.1558,0.0,3.2787,3.3087,3.3669,3.4514,3.4525,3.4106,3.3339,3.3342,3.3004,3.2354,3.2354,3.2486,3.2676,3.1802,3.1021,3.0382,2.7716,2.6479,2.6687,2.6752,2.7666,2.9368,3.0238,3.0721,3.0799,3.0737,3.0649,3.0543,3.0535,3.0102,2.9265,2.9038,2.8502,2.7514,2.5098,2.3619,2.3216,0.0,0.0,0.0,0.0,0.0,0.0,0.0,0.0,0.0,0.0,0.0,0.0,0.0,0.0,0.0,2.3809,0.0,2.3183,2.2459,0.0,0.0,0.0,2.0259,1.9467,2.3005,2.5465,2.5382,0.0,0.0,2.7687,0.0,2.7326,2.6664,2.6397,2.5998,2.5197,2.5009,2.5143,2.5114,2.6029,2.6318,2.5479,2.577,2.6362,2.7107,2.7574,2.7427,2.7389,2.7135,2.7109,2.7561,2.8077,2.8313,2.7859,2.7642,2.7604,2.7611,2.7478,2.74,2.7282,2.7062,2.6752,3.9595,3.9751,3.865,3.7262,3.5705,3.5127,3.5123,3.5415,3.5432,3.5325,3.5179,3.5359,3.5408,3.5414,3.5445,3.5628,3.5902,3.5986,3.5852,3.5566,3.5709,3.5305,3.4529,3.466,3.4646,3.4471,3.4463,3.4508,3.458,3.3789,3.3032,3.2309,3.1028,2.9418,2.7583,2.7695,2.8314,2.9388,2.963,3.0097,3.076,3.0794,3.0764,3.0728,3.0688,3.0552,3.0328,3.018,2.9916,2.9525,2.8782,2.7878,2.6727,2.2584,0.0,0.0,0.0,0.0,0.0,0.0,0.0,0.0,0.0,2.0195,1.762,0.0,2.1559,0.0,2.6456,2.7059,2.4284,2.4986,0.0,0.0,2.3887,2.3742,2.5096,2.6333,2.7192,2.7585,2.8147,2.8477,2.8381,2.8346,2.8469,2.8789,2.7339,2.592,2.5171,2.5677,2.607,2.6036,2.6913,2.7411,2.6866,2.6903,2.7182,2.735,2.738,2.7358,2.7322,2.7209,2.7368,2.8099,2.8847,2.9252,2.9166,2.9171,2.9143,2.9086,2.8171,2.7258,2.7226,2.7143,2.6925,4.0926,4.1176,4.0988,4.0024,3.8631,3.8227,3.7826,3.7515,3.7515,3.7317,3.7005,3.7092,3.7374,3.7817,3.7909,3.7858,3.766,3.766,3.7335,3.672,3.6814,3.6603,3.6137,3.5891,3.5788,3.5801,3.5473,3.5343,3.5419,3.5035,3.4627,3.4244,3.3429,3.2113,3.0281,2.9171,2.8701,2.8813,2.9204,2.9852,3.074,3.0801,3.0426,2.9674,2.9969,2.9754,2.9,2.9209,2.8912,2.7984,2.7762,2.7299,2.6386,2.3528,2.2031,0.0,0.0,0.0,0.0,0.0,0.0,0.0,0.0,0.0,0.0,0.0,2.324,0.0,2.715,0.0,2.5116,2.6364,2.7304,2.7112,2.6645,2.6948,2.852,2.8631,2.8715,2.8962,2.9122,2.916,2.9103,2.9086,2.9219,2.9664,2.8567,2.7603,2.7236,2.7592,2.7869,2.7778,2.8289,2.8677,2.835,2.8336,2.8368,2.8378,2.8387,2.8353,2.8311,2.8311,2.8489,2.8913,2.9381,2.969,2.9701,2.9701,2.9701,2.9589,2.8988,2.8368,2.8312,2.8138,2.7937,4.2173,4.2378,4.1701,4.1407,4.1407,4.1423,4.0891,4.0047,4.0063,3.9622,3.8915,3.9141,3.9285,3.9376,3.9401,3.9142,3.8753,3.8744,3.8451,3.7917,3.7925,3.7849,3.7706,3.7037,3.6733,3.6761,3.5957,3.5642,3.5795,3.5801,3.5756,3.5624,3.4928,3.4094,3.306,3.0812,2.923,2.8438,2.9191,2.995,3.0755,3.0577,2.9724,2.8299,2.8876,2.8524,2.7064,2.7587,2.7161,2.5575,2.5292,2.5159,2.5043,2.4087,2.3319,0.0,2.1906,0.0,0.0,0.0,0.0,0.0,0.0,0.0,0.0,2.556,2.5063,2.3691,2.7108,2.8535,2.6367,2.748,2.8586,2.9183,2.9247,2.9539,3.0248,3.0079,2.9834,2.9704,2.9696,2.9701,2.9673,2.9701,2.9683,2.9683,2.9598,2.9438,2.9617,2.9542,2.9523,2.9701,2.9701,2.9542,2.9551,2.9608,2.9617,2.9645,2.9579,2.9701,2.9608,2.9608,2.9664,2.9664,2.9673,2.9683,2.9701,2.9701,2.9701,2.9701,2.9608,2.957,2.9551,2.9323,2.923,4.3224,4.324,4.3094,4.3056,4.3039,4.3039,4.2213,4.0857,4.0857,4.0525,3.9963,4.0347,4.0233,3.9724,3.9889,3.9983,4.004,4.003,3.967,3.9008,3.8989,3.8624,3.7963,3.779,3.776,3.7746,3.6954,3.6616,3.6794,3.6114,3.5429,3.4752,3.4588,3.3734,3.2225,0.0,0.0,0.0,3.0335,3.0541,3.0661,2.9324,2.8463,2.8145,2.8262,0.0,2.7875,2.7993,2.7855,2.7412,2.7322,0.0,0.0,0.0,0.0,0.0,0.0,0.0,0.0,0.0,0.0,0.0,2.587,2.5689,2.5549,2.6751,2.7441,2.7187,2.8561,2.9559,2.9709,2.9992,3.0182,3.0146,3.005,3.0062,3.0213,2.9991,2.9798,2.9699,2.9692,2.9701,2.9701,2.9701,2.9701,2.9701,2.9701,2.9701,2.9701,2.9701,2.9701,2.9701,2.9701,2.9701,2.9701,2.9701,2.9701,2.9701,2.9701,2.9701,2.9701,2.9701,2.9701,2.9701,2.9701,2.9701,2.9701,2.9701,2.9701,2.9701,2.9701,2.9701,2.9701,2.9569,2.9363,4.3479,0.0,4.3479,4.3479,0.0,4.3479,4.3123,4.2465,4.206,4.1638,4.1263,4.15,4.1249,4.0657,4.0747,4.0644,4.0405,4.0405,4.0225,3.99,3.99,3.9669,3.9219,3.8834,3.8688,3.8698,3.7889,3.7574,3.772,3.7341,3.6693,3.584,3.584,3.5168,3.392,3.3881,3.3034,3.1296,3.1323,3.1559,3.1966,3.117,3.0293,2.9438,0.0,0.0,0.0,0.0,0.0,0.0,0.0,0.0,0.0,0.0,0.0,2.8903,2.8244,2.7983,2.8466,2.8606,2.9015,2.9846,2.998,2.929,2.7558,2.9025,2.984,2.9443,3.055,3.1316,3.1288,3.1258,3.1139,3.0922,3.0452,3.0111,2.9967,2.9828,2.9738,2.972,2.9701,2.9701,2.9701,2.9701,2.9701,2.9701,2.9701,2.9701,2.9701,2.9701,2.9701,2.9701,2.9701,2.9701,2.9701,2.9701,2.9701,2.9701,2.9701,2.9701,2.9701,2.9701,2.9701,2.9701,2.9701,2.9701,2.9701,2.9701,2.9701,2.9701,2.9701,2.9701,2.9673,2.9521,2.9283,4.3479,4.3479,4.3479,4.3479,4.3479,4.3479,4.3666,4.3923,0.0,0.0,0.0,4.2571,4.2265,4.1753,4.16,4.1196,4.0652,4.0488,4.0433,4.0496,4.0496,4.0496,4.0458,3.9846,3.9583,3.9612,3.8847,3.8524,3.8653,3.854,3.8129,3.7487,3.7428,3.7077,3.6395,3.6201,3.5154,3.3216,3.2529,3.2599,3.3348,3.3073,3.2199,3.071,3.1385,3.1077,2.9675,3.0234,2.9912,2.847,2.8392,2.838,2.8362,2.8576,2.9423,3.0991,3.129,3.1732,3.2535,3.266,3.2929,3.3515,3.3388,3.2386,3.023,3.14,3.1939,3.1222,3.2423,3.2902,3.2191,3.2039,3.1898,3.1623,3.0939,3.0367,3.0057,2.9945,2.9974,2.9945,2.9833,2.9701,2.9701,2.9701,2.9701,2.9701,2.9701,2.9701,2.9701,2.9701,2.9701,2.9701,2.9701,2.9701,2.9701,2.9701,2.9701,2.9701,2.9701,2.9701,2.9701,2.9701,2.9701,2.9701,2.9701,2.9701,2.9701,2.9701,2.9701,2.9701,2.9701,2.9701,2.9664,2.9453,2.9198,4.3479,4.3479,4.3479,4.3479,4.3479,4.3479,4.3747,4.4162,4.4339,4.402,4.3371,4.3629,4.3349,4.2669,4.1931,4.1592,4.1561,4.0838,4.0508,0.0,4.0496,4.0496,4.0504,4.0496,4.0539,4.0538,3.9786,3.9466,3.952,3.8864,3.8422,3.8324,3.8324,3.8246,3.809,3.7409,3.7211,3.7517,3.4643,3.3187,3.3291,3.1812,3.0893,3.0633,3.0812,3.0707,3.0447,3.0587,3.0482,3.0238,3.0222,3.0539,3.1261,3.2043,3.2961,3.3951,3.4754,3.5246,3.5332,3.5408,3.5139,3.4443,3.3735,3.3135,3.2809,3.2967,3.3068,3.2943,3.3188,3.3231,3.3009,3.2838,3.2667,3.2447,3.2169,3.175,3.1146,3.0855,3.0828,3.1054,3.0237,2.9758,2.9833,2.9777,2.9758,2.972,2.9739,2.9701,2.9701,2.9701,2.9701,2.9701,2.9701,2.9701,2.9701,2.9701,2.9701,2.9701,2.9701,2.9701,2.9701,2.9701,2.9701,2.9701,2.9701,2.9701,2.9701,2.9701,2.9701,2.9701,2.9701,2.9701,2.9701,2.9511,2.9262,4.3479,4.3479,4.3479,4.3479,4.3513,4.3779,4.4091,4.4444,4.477,4.4763,4.4513,4.4657,4.4336,4.366,4.3237,4.2582,4.1777,4.1393,4.095,4.0516,4.0496,4.0496,4.0504,4.0646,4.0732,4.0773,4.0465,4.0373,4.0442,4.0097,3.9666,3.9201,3.8753,3.8519,3.848,3.811,3.809,3.8419,3.6478,3.5651,3.6099,3.5301,3.4679,3.4211,3.4622,3.4436,3.3573,3.3985,3.4009,3.3531,3.3533,3.3706,3.4053,3.4498,3.4938,3.5336,3.5753,3.5976,3.5952,3.5949,3.5744,3.5284,3.4882,3.4661,3.4644,3.4221,3.3779,3.339,3.4065,3.4323,3.3776,3.3595,3.3437,3.3156,3.2654,3.2289,3.2182,3.1804,3.1739,3.2059,3.1505,3.1025,3.0997,3.0621,3.0349,3.034,3.0039,2.972,2.9701,2.9701,2.9701,2.9701,2.9701,2.9701,2.9701,2.9701,2.9701,2.9701,2.9701,2.9701,2.9701,2.9701,2.9701,2.9701,2.9701,2.9701,2.9701,2.9701,2.9701,2.9701,2.9701,2.9701,2.9664,2.9424,2.9123,4.3444,4.3479,4.3479,4.3531,4.3634,4.403,4.4341,4.4632,4.4962,4.5159,4.5256,4.537,4.5092,4.4605,4.4393,4.3585,4.2462,4.2173,4.1643,4.0862,4.0785,4.0681,4.0543,4.0626,4.0732,4.0812,4.0873,4.0961,4.1085,4.1107,4.0779,4.0097,3.9415,3.9084,3.9084,3.8889,3.887,3.9006,3.8227,3.8013,3.848,3.8519,3.816,3.7613,3.8103,3.7878,3.6682,3.723,3.7251,3.663,3.6552,3.6549,3.6481,3.6349,3.6297,3.6289,3.6091,3.5974,3.5973,3.5916,3.5849,3.5799,3.5795,3.5795,3.5736,3.5197,3.4532,3.4112,3.4938,3.5259,3.4552,3.4297,3.417,3.3876,3.3261,3.3042,3.3236,3.2782,3.2547,3.2953,3.2529,3.2067,3.1992,3.1579,3.1203,3.1062,3.0471,2.9945,2.9758,2.9692,2.9701,2.9701,2.9701,2.9701,2.9701,2.9701,2.9701,2.9701,2.9701,2.9701,2.9701,2.9701,2.9701,2.9701,2.9701,2.9701,2.9701,2.9701,2.9701,2.9701,2.9701,2.9692,2.9636,2.9304,2.8925,4.3339,4.3497,4.3479,4.3651,4.3881,4.4106,4.436,4.4613,4.4962,4.5114,4.5148,4.5311,4.5419,4.5374,4.4643,4.4201,4.3932,4.3297,4.2508,4.175,4.1681,4.1258,4.0639,4.0665,4.0732,4.0826,4.0888,4.0972,4.1085,4.1107,4.1049,4.099,4.0893,4.0796,4.0737,4.0058,4.0058,4.0815,4.0,3.9221,3.8539,3.8519,3.848,3.8386,3.8466,3.8447,3.8182,3.8352,3.8344,3.8283,3.8229,3.8237,3.8174,3.7575,3.7186,3.7166,3.6405,3.5906,3.5931,3.5864,3.5842,3.5795,3.5814,3.5795,3.5795,3.5717,3.5622,3.5466,3.5449,3.5397,3.521,3.4942,3.4735,3.4594,3.4379,3.4435,3.4285,3.3757,3.3306,3.3325,3.2743,3.2133,3.2274,3.2123,3.1992,3.1842,3.125,3.0499,2.9832,2.9805,2.9889,2.9795,2.972,2.9701,2.9701,2.9701,2.9701,2.9701,2.9701,2.9701,2.9701,2.9701,2.9701,2.9701,2.9701,2.9701,2.9701,2.9701,2.9701,2.9701,2.9692,2.9673,2.9531,2.9251,2.8902,4.3304,4.3479,4.3479,4.3732,4.406,4.4181,4.4426,4.4783,4.4926,4.5033,4.5095,4.5194,4.5311,4.5466,4.5194,4.4778,4.4278,4.3951,4.3374,4.2624,4.2566,4.2393,4.2043,4.1572,4.1435,4.1383,4.105,4.0897,4.098,4.1075,4.1107,4.1107,4.1107,4.1107,4.1088,4.0757,4.076,4.1068,4.0737,4.039,4.0097,4.0039,3.9792,3.9377,3.975,3.9507,3.8682,3.8976,3.9019,3.8576,3.8518,3.8516,3.8512,3.8191,3.8025,3.7994,3.7652,3.7429,3.7387,3.688,3.6576,3.6576,3.6086,3.5795,3.5795,3.5795,3.5778,3.5713,3.5659,3.5529,3.5266,3.5103,3.4925,3.4732,3.4626,3.4612,3.4594,3.432,3.4113,3.4095,3.3794,3.355,3.3494,3.3156,3.2687,3.2236,3.1767,3.1183,3.0045,3.0104,3.0612,3.0865,3.0368,2.9739,2.972,2.9701,2.9701,2.9701,2.9701,2.9701,2.9701,2.9701,2.9701,2.9701,2.9701,2.9701,2.9701,2.9701,2.9701,2.9701,2.9608,2.9531,2.9404,2.9238,2.8973,4.3379,4.3446,4.3566,4.3844,4.4192,4.4283,4.4522,4.487,4.4895,4.4943,4.5057,4.5091,4.5184,4.5321,4.5476,4.5185,4.4666,4.4635,4.422,4.3489,4.3431,4.3316,4.3055,4.2518,4.2114,4.184,4.137,4.1031,4.0912,4.096,4.1034,4.1045,4.1048,4.1075,4.1107,4.1107,4.1107,4.1107,4.1107,4.1107,4.1088,4.1107,4.0788,4.0279,4.0769,4.0486,3.9312,3.9821,3.988,3.9256,3.9215,3.9208,3.9212,3.8994,3.8743,3.8512,3.8478,3.8469,3.8396,3.7825,3.7469,3.7392,3.6673,3.6144,3.6125,3.595,3.5782,3.5732,3.5699,3.5543,3.5271,3.5154,3.4971,3.4699,3.4655,3.4645,3.4612,3.4612,3.4575,3.4612,3.4481,3.4612,3.4518,3.4057,3.3513,3.3006,3.2611,3.2301,3.1208,3.1154,3.125,3.1954,3.1185,3.0584,3.0133,2.9814,2.9758,2.9701,2.9701,2.9701,2.9701,2.9701,2.9701,2.9701,2.9701,2.9701,2.9701,2.9701,2.9701,2.9673,2.9598,2.9492,2.9345,2.9267,2.9104,4.3549,4.3305,4.3701,4.3971,4.4206,4.4477,4.4693,4.4895,4.4895,4.4895,4.495,4.5045,4.5103,4.5136,4.5311,4.5371,4.5333,4.5416,4.5019,4.4288,4.4239,4.3855,4.3124,4.3055,4.2657,4.2044,4.1833,4.1435,4.0826,4.0804,4.0864,4.0913,4.0917,4.0984,4.1081,4.1107,4.1107,4.1107,4.1107,4.1107,4.1107,4.1107,4.1071,4.0997,4.1071,4.1016,4.0922,4.0977,4.0958,4.0958,4.0883,4.0899,4.0877,4.0181,3.9378,3.8632,3.8494,3.848,3.8498,3.841,3.8328,3.8251,3.7547,3.7042,3.7003,3.6362,3.595,3.581,3.5732,3.5514,3.5348,3.5203,3.5018,3.48,3.4778,3.4718,3.4623,3.4612,3.4612,3.4612,3.4612,3.4612,3.4612,3.4575,3.4443,3.4199,3.3776,3.3438,3.36,3.2471,3.1842,3.218,3.2405,3.2376,3.1156,3.034,2.9889,2.9814,2.987,2.9701,2.9701,2.9701,2.9701,2.9701,2.9701,2.9701,2.9701,2.9701,2.9701,2.9673,2.9645,2.954,2.9343,2.9304,2.9174,4.3095,4.3214,4.3582,4.3889,4.4225,4.4491,4.4725,4.4883,4.4895,4.4895,4.4895,4.4962,4.4967,4.4998,4.514,4.5258,4.535,4.5419,4.5284,4.5025,4.5079,4.497,4.469,4.4143,4.3448,4.268,4.209,4.1456,4.081,4.0779,4.0835,4.0896,4.0889,4.098,4.1081,4.1107,4.1107,4.1107,4.1107,4.1107,4.1107,4.1107,4.1107,4.1107,4.1107,4.1107,4.1107,4.1107,4.1107,4.1107,4.1107,4.1107,4.1071,4.0805,4.0481,4.0117,4.0079,4.0048,4.0,3.9527,3.9237,3.9179,3.8421,3.794,3.78,3.7159,3.6634,3.652,3.597,3.5629,3.5508,3.5277,3.5009,3.4859,3.4798,3.4758,3.4645,3.4612,3.4612,3.4612,3.4612,3.4612,3.4612,3.4612,3.4612,3.4594,3.4349,3.4304,3.4266,3.3279,3.2668,3.3325,3.3287,3.2902,3.2695,3.1306,3.0462,3.0293,3.018,2.987,2.9739,2.972,2.9701,2.9701,2.9701,2.9701,2.9701,2.9701,2.9701,2.9692,2.9664,2.954,2.9332,2.928,2.916,4.2805,4.3178,4.3494,4.3871,4.4269,4.4513,4.4738,4.4883,4.4895,4.4895,4.4895,4.4895,4.4895,4.4907,4.501,4.5072,4.5181,4.5291,4.537,4.538,4.5467,4.5515,4.5419,4.49,4.419,4.3298,4.2223,4.1295,4.0623,4.0595,4.0681,4.0795,4.0805,4.0893,4.1003,4.1034,4.1041,4.1048,4.1071,4.1078,4.1088,4.1107,4.1107,4.1107,4.1107,4.1107,4.1107,4.1107,4.1107,4.1107,4.1107,4.1107,4.1114,4.1113,4.1074,4.1015,4.1004,4.1015,4.0953,4.0462,4.0105,4.0053,3.9334,3.8829,3.8732,3.7761,3.7197,3.6932,3.628,3.5707,3.564,3.539,3.5113,3.4964,3.4927,3.484,3.4691,3.4699,3.4697,3.4695,3.4676,3.4655,3.4604,3.4612,3.4473,3.4287,3.4242,3.429,3.4408,3.4072,3.3713,3.4384,3.3976,3.3719,3.3483,3.2582,3.1588,3.1306,3.0668,3.0265,2.9992,2.9908,2.9758,2.972,2.9701,2.9701,2.9701,2.9701,2.9701,2.9692,2.9636,2.955,2.9382,2.9235,2.9115,4.2785,4.3105,4.351,4.3955,4.4387,4.4605,4.477,4.4877,4.4883,4.4895,4.4895,4.4895,4.4895,4.4895,4.4907,4.4907,4.4967,4.5151,4.5267,4.5288,4.5317,4.5328,4.5309,4.5243,4.464,4.3731,4.2259,4.1074,4.029,4.0278,4.0394,4.0574,4.0636,4.0748,4.0893,4.0921,4.0939,4.0972,4.1,4.1034,4.1085,4.1107,4.1107,4.1107,4.1107,4.1107,4.1107,4.1107,4.1107,4.1107,4.1107,4.1107,4.1114,4.1108,4.1073,4.1015,4.1069,4.1051,4.0999,4.0933,4.0812,4.0703,4.013,3.9703,3.9465,3.8207,3.7256,3.715,3.6338,3.5707,3.5672,3.5502,3.533,3.5208,3.5115,3.4982,3.487,3.4879,3.487,3.48,3.4798,3.4728,3.4655,3.4626,3.4405,3.3863,3.3675,3.3733,3.4065,3.3977,3.4388,3.4485,3.4358,3.4274,3.4132,3.3907,3.3081,3.233,3.1494,3.0884,3.064,3.0471,3.0021,2.9889,2.9758,2.9739,2.9701,2.9701,2.9701,2.9692,2.9626,2.954,2.9363,2.9217,2.9127,4.2976,4.3815,4.3592,4.4089,4.4871,4.4804,4.4719,4.477,4.4846,4.4895,4.4895,4.4895,4.4895,4.4895,4.4895,4.4895,4.4907,4.4998,4.5061,4.5159,4.5246,4.5277,4.5297,4.5277,4.4513,4.3147,4.2039,4.1055,4.0348,4.0278,4.0419,4.0581,4.0675,4.0798,4.0869,4.0888,4.093,4.0988,4.0996,4.1034,4.1104,4.1107,4.1107,4.1107,4.1107,4.1107,4.1107,4.1107,4.1107,4.1107,4.1107,4.1107,4.1114,4.1103,4.1087,4.1069,4.1035,4.1038,4.0997,4.0988,4.096,4.0863,4.0635,4.0538,4.0364,3.8969,3.8018,3.7815,3.6649,3.5723,3.5728,3.5579,3.5432,3.5331,3.5198,3.5053,3.495,3.4992,3.5022,3.4898,3.4879,3.484,3.4821,3.4811,3.449,3.3809,3.3629,3.3515,3.2834,3.2929,3.3251,3.3487,3.3961,3.4594,3.4425,3.4301,3.3907,3.3175,3.2405,3.1775,3.1485,3.0941,3.0471,3.0152,2.9992,2.9823,2.9758,2.9701,2.9701,2.9636,2.956,2.9453,2.9304,2.9217,2.9127,4.3098,4.4216,4.3596,4.4138,4.5331,4.4876,4.4685,4.477,4.4858,4.4895,4.4895,4.4895,4.4895,4.4895,4.4895,4.4895,4.4895,4.4895,4.4931,4.5033,4.5084,4.5148,4.5148,4.5148,4.4252,4.2804,4.2089,4.1232,4.0128,4.0177,4.0276,4.0411,4.0508,4.0595,4.0661,4.0674,4.0703,4.0773,4.0754,4.084,4.0891,4.0904,4.0964,4.1015,4.1022,4.1032,4.1085,4.1107,4.1107,4.1107,4.1107,4.1107,4.1107,4.111,4.1111,4.1101,4.1073,4.1031,4.1025,4.102,4.098,4.0943,4.0917,4.0888,4.0635,3.9494,3.8682,3.8222,3.6793,3.5751,3.5769,3.5674,3.5568,3.5548,3.539,3.5216,3.5138,3.5145,3.5143,3.502,3.4983,3.4992,3.4982,3.4954,3.4675,3.4023,3.3519,3.2743,3.1711,3.1418,3.2007,3.2893,3.3953,3.44,3.4575,3.4594,3.4594,3.4011,3.3325,3.2856,3.2499,3.1692,3.1072,3.0809,3.0621,3.0208,3.0096,2.9795,2.9692,2.9607,2.9531,2.9414,2.9314,2.9195,2.9123,4.312,4.4235,4.3524,4.4142,4.545,4.4824,4.4632,4.4852,4.4895,4.4895,4.4895,4.4895,4.4895,4.4895,4.4895,4.4895,4.4895,4.4895,4.4895,4.4907,4.4931,4.4912,4.4761,4.4735,4.3843,4.2454,4.2208,4.1381,4.0,3.9967,3.9958,4.0129,4.0176,4.0204,4.0351,4.0326,4.038,4.0472,4.0438,4.0491,4.0609,4.0615,4.0704,4.09,4.0913,4.098,4.1062,4.1107,4.1107,4.1107,4.1107,4.1107,4.1107,4.1107,4.1111,4.1104,4.1107,4.1014,4.1016,4.0836,4.0802,4.0778,4.0745,4.0888,4.0698,3.9708,3.878,3.8348,3.682,3.5791,3.5782,3.5737,3.5723,3.576,3.5596,3.549,3.5407,3.5297,3.5253,3.5179,3.5136,3.5126,3.5127,3.5136,3.4795,3.4194,3.3451,3.2445,3.1139,3.0987,3.1344,3.2424,3.3786,3.4381,3.4612,3.4612,3.4612,3.4406,3.3926,3.3682,3.3269,3.249,3.1579,3.1354,3.0988,3.0621,3.0227,2.987,2.9701,2.9655,2.9569,2.9444,2.9332,2.9225,2.9112,4.312,4.4272,4.3524,4.406,4.5227,4.4739,4.4524,4.4632,4.4808,4.4883,4.4895,4.4895,4.4895,4.4895,4.4895,4.4895,4.4895,4.4895,4.4895,4.4895,4.4895,4.4535,4.4118,4.4004,4.317,4.1738,4.1567,4.0942,3.9968,3.9969,4.0041,4.0101,4.0167,4.0248,4.0281,4.0292,4.0332,4.0404,4.0392,4.0411,4.0498,4.0559,4.0676,4.0806,4.0867,4.0953,4.1085,4.1107,4.1107,4.1107,4.1107,4.1107,4.1107,4.111,4.1108,4.1099,4.1089,4.0801,4.0297,4.0153,4.0106,4.005,4.0167,4.0282,4.081,3.9474,3.8659,3.8115,3.6848,3.5795,3.5791,3.5778,3.5782,3.5782,3.5733,3.5643,3.5521,3.5477,3.5469,3.5391,3.539,3.5371,3.5378,3.5334,3.5123,3.4481,3.3871,3.3275,3.184,3.0553,3.0879,3.2291,3.3552,3.4214,3.4612,3.4612,3.4612,3.4594,3.4425,3.4349,3.388,3.3281,3.2331,3.1608,3.1016,3.0584,3.0143,2.9739,2.9701,2.9701,2.9579,2.9444,2.9343,2.9246,2.9134,4.3059,4.4177,4.3488,4.3903,4.492,4.4632,4.444,4.4388,4.4661,4.4827,4.4827,4.4808,4.4846,4.4895,4.4895,4.4895,4.4895,4.4895,4.4895,4.4895,4.4895,4.4459,4.3891,4.3682,4.2829,4.134,4.1188,4.0715,4.0063,3.9988,4.001,4.002,4.0091,4.011,4.012,4.0139,4.0139,4.0185,4.0184,4.0229,4.0323,4.0372,4.0509,4.0636,4.0754,4.0858,4.1052,4.1107,4.1107,4.1107,4.1107,4.1107,4.1107,4.1107,4.1106,4.1115,4.1103,4.0722,4.0005,3.9784,3.958,3.9468,3.9675,3.9953,3.9714,3.8687,3.7994,3.7683,3.6533,3.595,3.5795,3.5795,3.5795,3.5791,3.5799,3.5742,3.5604,3.5538,3.554,3.5501,3.5501,3.5519,3.5568,3.5574,3.5364,3.4955,3.4378,3.3746,3.2877,3.1501,3.0866,3.245,3.3592,3.4323,3.4609,3.4591,3.4612,3.4594,3.4594,3.4612,3.4323,3.3845,3.3271,3.234,3.1373,3.0631,3.0406,3.0058,2.9701,2.9655,2.9569,2.9472,2.9353,2.9299,2.9189,4.2922,4.3835,4.3359,4.3652,4.4375,4.4392,4.4196,4.4095,4.4439,4.4635,4.4712,4.4712,4.4802,4.4895,4.4895,4.4895,4.4895,4.4895,4.4895,4.4895,4.4819,4.4421,4.3474,4.3398,4.2458,4.115,4.1037,4.0601,4.0052,3.9911,3.9911,3.9914,3.9914,3.9892,3.9935,3.9933,3.99,3.9924,3.9956,4.0008,4.009,4.0158,4.0278,4.0442,4.0604,4.0801,4.0995,4.1085,4.1085,4.1107,4.1107,4.1107,4.1107,4.1107,4.1114,4.1111,4.1058,4.0679,3.9824,3.9513,3.9232,3.8751,3.9588,3.9991,3.8751,3.7965,3.7439,3.7275,3.6319,3.5872,3.5795,3.5795,3.5795,3.5795,3.5791,3.5765,3.5708,3.5596,3.5525,3.5531,3.5537,3.561,3.5672,3.5723,3.5704,3.5442,3.4923,3.4429,3.3871,3.3023,3.2571,3.3063,3.3923,3.4524,3.4607,3.4586,3.4599,3.4612,3.4594,3.4594,3.4481,3.4143,3.3993,3.341,3.2568,3.1825,3.1269,3.079,3.0114,2.9673,2.9608,2.9492,2.9373,2.9361,2.9286,4.2562,4.2983,4.286,4.3085,4.3487,4.36,4.3724,4.3852,4.4065,4.4365,4.464,4.4699,4.477,4.4895,4.4895,4.4895,4.4895,4.4895,4.4895,4.4895,4.4895,4.4004,4.3,4.2735,4.1776,4.0601,4.0203,4.0089,3.99,3.99,3.99,3.99,3.99,3.99,3.99,3.99,3.99,3.99,3.99,3.9911,3.9973,4.0046,4.0148,4.0307,4.0531,4.081,4.1015,4.1041,4.1041,4.1081,4.1107,4.1107,4.1107,4.1107,4.1112,4.1083,4.1021,4.0393,3.9157,3.8769,3.8408,3.7711,3.7938,3.8113,3.8466,3.7638,3.7207,3.6953,3.6339,3.5834,3.5795,3.5795,3.5795,3.5795,3.5795,3.5791,3.5773,3.5736,3.5718,3.5722,3.5722,3.5736,3.5769,3.5765,3.5778,3.5752,3.5487,3.5092,3.4637,3.4158,3.3887,3.3679,3.3837,3.4305,3.433,3.4393,3.4599,3.4612,3.4612,3.4612,3.4481,3.4406,3.4237,3.4081,3.385,3.3029,3.1879,3.1194,3.0443,3.0067,2.9664,2.956,2.9472,2.9451,2.9349,4.2389,4.2514,4.2653,4.2729,4.2862,4.3213,4.3458,4.356,4.3804,4.4177,4.4532,4.4605,4.4706,4.4883,4.4895,4.4895,4.4895,4.4895,4.4895,4.4895,4.4838,4.3985,4.2697,4.223,4.1548,4.0127,3.99,3.99,3.99,3.99,3.99,3.99,3.99,3.99,3.99,3.99,3.99,3.99,3.99,3.99,3.9911,3.9954,4.012,4.0296,4.0578,4.084,4.103,4.1045,4.1071,4.1104,4.1107,4.1107,4.1107,4.1107,4.1103,4.1064,4.0639,3.9946,3.8832,3.8082,3.7539,3.6737,3.6957,3.7092,3.7347,3.7063,3.6918,3.6569,3.6122,3.5795,3.5795,3.5795,3.5795,3.5795,3.5795,3.5795,3.5795,3.5795,3.5795,3.5795,3.5786,3.5786,3.5795,3.5795,3.5795,3.5775,3.5756,3.5385,3.4962,3.4505,3.4124,3.3928,3.3846,3.3921,3.397,3.4169,3.4569,3.4612,3.4612,3.4612,3.4556,3.451,3.4465,3.4298,3.4064,3.3084,3.2048,3.14,3.0724,3.0049,2.9664,2.9608,2.956,2.9472,2.938,4.2308,4.231,4.2536,4.2514,4.2412,4.294,4.316,4.3196,4.3475,4.3852,4.4321,4.4378,4.4472,4.4713,4.4833,4.4858,4.4895,4.4876,4.4857,4.4592,4.4573,4.3587,4.245,4.1946,4.1359,4.0014,3.99,3.99,3.99,3.99,3.99,3.99,3.99,3.99,3.99,3.99,3.99,3.99,3.99,3.99,3.9911,3.9933,4.012,4.0364,4.0597,4.0804,4.0948,4.1011,4.1081,4.1107,4.1107,4.1107,4.1107,4.1107,4.0994,4.0899,4.0211,3.9364,3.8339,3.7618,3.6945,3.6126,3.6562,3.6611,3.6307,3.6486,3.6478,3.6202,3.5846,3.5795,3.5795,3.5795,3.5795,3.5795,3.5795,3.5795,3.5795,3.5795,3.5795,3.5795,3.5795,3.5795,3.5795,3.5795,3.5795,3.5795,3.5775,3.5566,3.51,3.4746,3.4305,3.3558,3.3277,3.3597,3.3712,3.4168,3.454,3.4494,3.4502,3.4548,3.4567,3.4575,3.451,3.4406,3.3974,3.3118,3.2367,3.1729,3.0978,3.0096,2.9673,2.9655,2.9589,2.9512,2.9429,4.2308,4.2308,4.2348,4.2331,4.231,4.2452,4.2632,4.2787,4.2902,4.3284,4.3886,4.3918,4.4023,4.4213,4.4595,4.477,4.4777,4.4789,4.4505,4.4051,4.388,4.3047,4.1772,4.1488,4.0855,4.0165,3.99,3.99,3.99,3.99,3.99,3.99,3.99,3.99,3.99,3.99,3.99,3.99,3.99,3.99,3.9911,4.0007,4.0158,4.0386,4.0554,4.0705,4.0825,4.0956,4.1038,4.1085,4.1107,4.1088,4.101,4.101,4.0701,4.0217,3.9833,3.9045,3.7783,3.7277,3.6726,3.6207,3.6145,3.6211,3.5991,3.6034,3.6096,3.6015,3.585,3.5799,3.5795,3.5795,3.5795,3.5795,3.5795,3.5795,3.5795,3.5795,3.5795,3.5795,3.5795,3.5795,3.5795,3.5795,3.5795,3.5795,3.5795,3.5251,3.4556,3.4404,3.428,3.3376,3.245,3.2986,3.3506,3.4092,3.4536,3.4323,3.431,3.4392,3.4438,3.4567,3.4556,3.4451,3.4226,3.3663,3.2912,3.2123,3.1222,3.0321,2.9983,2.9701,2.9617,2.954,2.9536,4.2308,4.2308,4.2308,4.2308,4.2308,4.2308,4.2472,4.2673,4.2693,4.3032,4.3457,4.3609,4.3673,4.3828,4.4001,4.4227,4.4374,4.449,4.4065,4.3495,4.3269,4.2542,4.1144,4.1024,4.0571,4.0075,3.99,3.99,3.99,3.99,3.99,3.99,3.99,3.99,3.99,3.99,3.99,3.99,3.99,3.99,3.9903,4.0058,4.0224,4.0349,4.0473,4.0636,4.0784,4.084,4.0964,4.1055,4.1107,4.0838,4.0581,4.0406,4.0234,3.9763,3.9354,3.8617,3.735,3.6845,3.6287,3.5999,3.5926,3.5924,3.5897,3.5896,3.589,3.5892,3.5898,3.585,3.5853,3.5811,3.5795,3.5795,3.5795,3.5795,3.5795,3.5795,3.5795,3.5795,3.5795,3.5795,3.5795,3.5795,3.5795,3.5795,3.5795,3.5076,3.4148,3.3821,3.3728,3.2757,3.1854,3.2451,3.3035,3.3574,3.4043,3.3933,3.4072,3.4175,3.4273,3.4394,3.4521,3.4575,3.4293,3.4038,3.3306,3.2443,3.1504,3.0584,3.0114,2.9748,2.9636,2.9568,2.9536,4.2308,4.2308,4.2308,4.2308,4.2308,4.2308,4.243,4.2593,4.2613,4.2846,4.3231,4.3248,4.33,4.3402,4.3503,4.3636,4.3881,4.4099,4.3613,4.2866,4.2698,4.1994,4.0973,4.0596,4.0347,3.9984,3.99,3.99,3.99,3.99,3.99,3.99,3.99,3.99,3.99,3.99,3.99,3.99,3.99,3.99,3.9975,4.0099,4.0224,4.0288,4.0438,4.0584,4.0718,4.0791,4.0924,4.1045,4.1029,4.0721,3.9977,3.9802,3.9627,3.9237,3.8597,3.7837,3.7019,3.6398,3.6014,3.5897,3.5899,3.5894,3.588,3.5898,3.5896,3.5897,3.5894,3.5885,3.5875,3.5853,3.5807,3.5795,3.5795,3.5795,3.5795,3.5795,3.5795,3.5795,3.5795,3.5795,3.5795,3.5795,3.5795,3.5562,3.5542,3.4921,3.4012,3.306,3.2652,3.1794,3.1373,3.1979,3.2474,3.2837,3.3161,3.3176,3.3558,3.3884,3.4027,3.4173,3.4377,3.4607,3.4575,3.4256,3.3513,3.2705,3.1729,3.0865,3.019,2.9786,2.9673,2.955,2.9461,4.2308,4.2308,4.2308,4.2308,4.2308,4.2308,4.2308,4.2369,4.2389,4.2514,4.2808,4.2807,4.279,4.2865,4.3032,4.3387,4.3738,4.3714,4.3107,4.2135,4.188,4.1132,3.9964,3.9756,3.9934,3.9826,3.9889,3.99,3.99,3.99,3.99,3.99,3.99,3.99,3.99,3.99,3.99,3.99,3.99,3.9943,4.0067,4.0158,4.0205,4.0279,4.0378,4.0535,4.0623,4.0718,4.0878,4.1052,4.1107,4.0662,3.998,3.9802,3.8889,3.8013,3.7331,3.698,3.6298,3.5986,3.5889,3.5889,3.5899,3.5897,3.589,3.5897,3.5891,3.5883,3.5886,3.5883,3.5882,3.5878,3.5838,3.5811,3.5795,3.5795,3.5795,3.5795,3.5795,3.5795,3.5795,3.5795,3.5795,3.5795,3.5775,3.5503,3.5158,3.4575,3.3798,3.2788,3.1976,3.122,3.0991,3.1535,3.1748,3.2127,3.2243,3.2356,3.3039,3.3563,3.371,3.3914,3.4437,3.4641,3.4542,3.4256,3.355,3.2724,3.1879,3.1072,3.0246,2.9889,2.9701,2.9569,2.9434,4.2308,4.2308,4.2308,4.2308,4.2308,4.2308,4.2308,4.2308,4.2308,4.2369,4.2472,4.2474,4.2474,4.2552,4.2673,4.2958,4.321,4.3016,4.2341,4.1428,4.0937,4.0238,3.9544,3.9389,3.9539,3.9724,3.9826,3.99,3.99,3.99,3.99,3.99,3.99,3.99,3.99,3.99,3.99,3.99,3.99,3.9973,4.0087,4.0167,4.0196,4.0205,4.0295,4.0399,4.053,4.0585,4.0765,4.0941,4.1048,4.0406,3.9454,3.8928,3.8305,3.6707,3.6473,3.6298,3.5986,3.5908,3.5889,3.5889,3.5892,3.589,3.5882,3.5885,3.5917,3.5957,3.5927,3.5919,3.5904,3.5897,3.5852,3.5819,3.5795,3.5795,3.5795,3.5795,3.5795,3.5795,3.5795,3.5795,3.5795,3.5795,3.5756,3.5581,3.5061,3.4323,3.339,3.2264,3.1529,3.0884,3.087,3.1099,3.1146,3.1301,3.1318,3.1598,3.2667,3.3109,3.3317,3.3631,3.4368,3.423,3.3715,3.3458,3.3287,3.2639,3.1748,3.0997,3.0246,2.9936,2.9664,2.9579,2.9443,4.2308,4.2308,4.2308,4.2308,4.2308,4.2308,4.2308,4.2308,4.2308,4.2308,4.2308,4.2308,4.2308,4.2328,4.2454,4.2526,4.2464,4.2087,4.1444,4.074,4.0173,3.9626,3.9263,3.9219,3.9427,3.9606,3.9804,3.987,3.99,3.99,3.99,3.99,3.99,3.99,3.99,3.99,3.99,3.99,3.99,3.9943,4.0046,4.0128,4.0148,4.0158,4.0196,4.0278,4.0454,4.0516,4.0641,4.0494,4.0616,3.9883,3.8519,3.811,3.7506,3.6337,3.6025,3.6006,3.5908,3.5889,3.5889,3.5889,3.5892,3.5883,3.5884,3.5896,3.5908,3.5948,3.5957,3.5928,3.5905,3.5885,3.5856,3.583,3.5795,3.5795,3.5795,3.5795,3.5795,3.5795,3.5795,3.5795,3.5795,3.5795,3.5736,3.562,3.4998,3.4089,3.2924,3.1681,3.1257,3.0694,3.0764,3.0874,3.0851,3.0789,3.0673,3.1024,3.2099,3.2781,3.3072,3.3859,3.4754,3.4216,3.3343,3.3058,3.3116,3.237,3.1616,3.0959,3.033,2.9898,2.9626,2.955,2.9491,4.2308,4.2308,4.2308,4.2308,4.2308,4.2308,4.2308,4.2308,4.2308,4.2308,4.2308,4.2308,4.2308,4.2272,4.2206,4.2004,4.1569,4.1667,4.0852,4.0131,3.9729,3.9372,3.9087,3.9078,3.9318,3.9539,3.9705,3.9815,3.9889,3.9889,3.9889,3.99,3.99,3.99,3.99,3.99,3.99,3.99,3.99,3.9922,3.9975,4.0067,4.0118,4.0118,4.0118,4.0224,4.0462,4.0412,4.0223,3.9872,3.987,3.9221,3.7857,3.7545,3.6902,3.6181,3.5889,3.5889,3.5889,3.5889,3.5889,3.5889,3.5892,3.5892,3.5885,3.589,3.5901,3.5929,3.5952,3.5955,3.5917,3.588,3.5886,3.5843,3.5815,3.5819,3.5815,3.5795,3.5795,3.5795,3.5795,3.5795,3.562,3.5562,3.5406,3.527,3.4144,3.3215,3.2108,3.1043,3.0966,3.0694,3.0694,3.0729,3.0729,3.0683,3.0672,3.1169,3.2082,3.2618,3.2987,3.394,3.5149,3.4621,3.3866,3.3403,3.2704,3.1751,3.1035,3.0809,3.0396,2.988,2.9645,2.9607,2.955,4.2308,4.2308,4.2308,4.2308,4.2308,4.2308,4.2308,4.2308,4.2308,4.2308,4.2308,4.2308,4.2308,4.2183,4.1736,4.1533,4.1242,4.0328,3.9841,3.9419,3.9044,3.8674,3.852,3.8718,3.889,3.9154,3.9383,3.9651,3.9751,3.9837,3.9889,3.99,3.9889,3.99,3.99,3.99,3.99,3.99,3.9892,3.9924,4.007,4.0087,4.0118,4.0167,4.0167,4.0205,4.0251,3.9955,3.9733,3.9471,3.917,3.8251,3.737,3.7175,3.6707,3.6025,3.5908,3.5889,3.5889,3.5889,3.5889,3.5889,3.5889,3.5889,3.5889,3.5887,3.5882,3.5917,3.5958,3.5957,3.5912,3.5938,3.5956,3.5894,3.5859,3.584,3.5818,3.5803,3.5799,3.5799,3.5795,3.5795,3.5542,3.529,3.51,3.4828,3.3546,3.2341,3.1351,3.0694,3.0694,3.0694,3.0694,3.0694,3.0694,3.0694,3.0694,3.1317,3.1997,3.2527,3.3064,3.4424,3.5262,3.4803,3.407,3.3107,3.2099,3.1017,3.0443,3.0293,3.0096,2.9795,2.9664,2.9645,2.9607,4.2308,4.2308,4.2308,4.2308,4.2308,4.2308,4.2308,4.2308,4.2308,4.2308,4.2308,4.2308,4.2126,4.1823,4.1451,4.0758,4.0374,3.9606,3.9103,3.874,3.8392,3.8103,3.8167,3.8378,3.8691,3.8847,3.9109,3.9396,3.9628,3.9762,3.9815,3.9826,3.9878,3.9889,3.99,3.99,3.99,3.99,3.9892,3.9935,4.008,4.0058,4.0046,4.009,4.008,3.9919,3.9792,3.9473,3.9065,3.8655,3.8218,3.766,3.713,3.6727,3.6454,3.6123,3.5889,3.5889,3.5889,3.5889,3.5889,3.5889,3.5889,3.5889,3.5892,3.5897,3.5897,3.5908,3.595,3.597,3.5898,3.5948,3.5952,3.5897,3.588,3.5864,3.5837,3.5817,3.5803,3.5803,3.5663,3.5391,3.529,3.4886,3.4012,3.3759,3.3021,3.1972,3.116,3.0694,3.0694,3.0694,3.0694,3.0694,3.0694,3.0694,3.0729,3.0967,3.1685,3.2508,3.3302,3.459,3.5385,3.5135,3.4173,3.274,3.1832,3.1194,3.0471,2.9795,2.9701,2.9701,2.9701,2.9664,2.9664,4.2308,4.2308,4.2308,4.2308,4.2308,4.2308,4.2308,4.2308,4.2308,4.2308,4.229,4.2234,4.1823,4.1288,4.0949,4.0201,3.9383,3.8976,3.8618,3.815,3.8075,3.8034,3.8135,3.8283,3.846,3.8789,3.9017,3.9221,3.9495,3.9647,3.9693,3.9751,3.9826,3.99,3.99,3.99,3.99,3.99,3.99,3.9922,3.9965,3.9954,3.9954,3.9986,3.9806,3.9565,3.9289,3.8821,3.8285,3.7578,3.7268,3.6755,3.6236,3.6131,3.5997,3.5922,3.5886,3.5886,3.5886,3.5889,3.5889,3.5889,3.5889,3.5889,3.5894,3.5887,3.5882,3.5908,3.5952,3.5952,3.5957,3.5952,3.5941,3.5931,3.5921,3.5903,3.5883,3.5836,3.5833,3.582,3.5228,3.4758,3.4773,3.4439,3.3177,3.2536,3.2166,3.1564,3.0884,3.0694,3.0694,3.0694,3.0694,3.0694,3.0694,3.0694,3.0768,3.0932,3.1371,3.2192,3.3135,3.4254,3.4841,3.5133,3.4408,3.3089,3.2298,3.1616,3.0676,2.9767,2.9711,2.9701,2.9701,2.9701,2.9683,4.2308,4.2308,4.2308,4.2308,4.2308,4.2308,4.2308,4.2308,4.2308,4.2308,4.2162,4.1787,4.1413,4.0913,4.0057,3.9325,3.8862,3.8131,3.7811,3.7775,3.7792,3.7757,3.7827,3.7931,3.8133,3.8473,3.8748,3.905,3.9376,3.9514,3.9635,3.9705,3.9804,3.987,3.99,3.99,3.99,3.99,3.9911,3.9933,3.9996,3.9962,3.9933,3.9977,3.9494,3.9069,3.8689,3.8065,3.7293,3.6685,3.6436,3.6047,3.5799,3.5802,3.585,3.5876,3.5898,3.5898,3.5885,3.5894,3.5889,3.5889,3.5889,3.5889,3.5892,3.5897,3.589,3.5906,3.5942,3.5941,3.5967,3.5994,3.5976,3.5995,3.5973,3.5961,3.5946,3.5903,3.5885,3.5863,3.5519,3.4497,3.4111,3.3971,3.2934,3.1824,3.1428,3.1292,3.0752,3.0694,3.0694,3.0694,3.0694,3.0694,3.0694,3.0694,3.0694,3.0803,3.1243,3.19,3.2899,3.3801,3.4352,3.4655,3.4122,3.3513,3.2545,3.1555,3.0525,2.9822,2.9776,2.972,2.9701,2.9701,2.9701,4.2225,4.2308,4.2308,4.2308,4.2308,4.2308,4.2308,4.2308,4.229,4.2144,4.1805,4.1288,4.0717,4.0128,3.9361,3.854,3.8362,3.7916,3.7613,3.7595,3.7595,3.7631,3.7613,3.7649,3.7966,3.8302,3.8523,3.8778,3.9219,3.9344,3.9526,3.9701,3.9792,3.9837,3.9859,3.99,3.99,3.99,3.99,3.9922,3.9973,3.9924,3.9781,3.9492,3.9048,3.8508,3.7833,3.7101,3.6381,3.6111,3.5811,3.5546,3.5631,3.572,3.5795,3.5827,3.5857,3.5864,3.5885,3.5898,3.5894,3.5889,3.5889,3.5889,3.5894,3.5883,3.5895,3.5906,3.591,3.5941,3.5992,3.6004,3.6007,3.6011,3.5995,3.5975,3.5987,3.5935,3.5941,3.5921,3.5523,3.4471,3.3512,3.3198,3.2749,3.1712,3.0752,3.0713,3.0713,3.0694,3.0694,3.0694,3.0694,3.0694,3.0694,3.0694,3.0694,3.0694,3.1096,3.1592,3.2154,3.2952,3.3567,3.4248,3.4288,3.391,3.2545,3.1455,3.0534,3.002,2.9908,2.9814,2.972,2.9701,2.9701,4.204,4.2267,4.2305,4.2267,4.2269,4.2267,4.2249,4.2234,4.2236,4.177,4.1056,4.0949,4.0217,3.9074,3.8772,3.8344,3.7845,3.7648,3.7613,3.7595,3.7595,3.7595,3.7613,3.7667,3.7984,3.8252,3.851,3.8752,3.9101,3.9272,3.9477,3.9623,3.9693,3.9762,3.9837,3.9889,3.9889,3.99,3.99,3.9911,3.9922,3.9759,3.941,3.9005,3.8436,3.765,3.6939,3.6252,3.5851,3.5557,3.5328,3.5419,3.5529,3.5631,3.5684,3.5726,3.5782,3.5803,3.5857,3.5849,3.5869,3.5869,3.5886,3.5889,3.5894,3.5885,3.5892,3.5901,3.5927,3.5958,3.5989,3.5991,3.5992,3.5979,3.5986,3.5994,3.5996,3.5992,3.6003,3.5804,3.5349,3.4498,3.3503,3.2976,3.3066,3.1903,3.108,3.0856,3.0837,3.0694,3.0694,3.0694,3.0694,3.0694,3.0694,3.0694,3.0694,3.0694,3.0729,3.1134,3.1646,3.2154,3.2827,3.3639,3.4655,3.4297,3.2748,3.1581,3.0658,3.033,3.0246,2.9908,2.9814,2.972,2.9701,4.1736,4.1805,4.1956,4.2019,4.2019,4.2019,4.1801,4.1466,4.1431,4.1002,4.0198,3.97,3.9216,3.879,3.8201,3.7844,3.7684,3.7595,3.7595,3.7595,3.7595,3.7595,3.7649,3.7775,3.8086,3.8334,3.8572,3.874,3.9059,3.9232,3.9311,3.9427,3.9599,3.9693,3.9781,3.9867,3.9878,3.99,3.99,3.99,3.9673,3.9418,3.8993,3.8538,3.7552,3.6786,3.6264,3.5628,3.5265,3.512,3.5132,3.5219,3.5302,3.5425,3.551,3.5679,3.5659,3.5616,3.573,3.583,3.5878,3.5862,3.5866,3.5886,3.5892,3.5897,3.5883,3.5912,3.5914,3.5942,3.5947,3.5949,3.5953,3.5941,3.5952,3.5983,3.5991,3.5993,3.5996,3.5918,3.5429,3.4955,3.3889,3.3742,3.3654,3.2355,3.1511,3.1249,3.096,3.0837,3.0694,3.0694,3.0694,3.0694,3.0694,3.0694,3.0694,3.0713,3.0729,3.0787,3.1134,3.1646,3.2212,3.2812,3.3477,3.3433,3.2789,3.1779,3.095,3.0829,3.0706,3.0283,2.9908,2.9814,2.972,4.1498,4.1626,4.1719,4.1784,4.1731,4.147,4.1007,4.0527,4.0724,4.0278,3.9215,3.8734,3.8402,3.8106,3.7715,3.7539,3.7613,3.7595,3.7595,3.7595,3.7595,3.7595,3.7685,3.7792,3.7967,3.8236,3.8412,3.8554,3.8913,3.9137,3.9232,3.9337,3.9502,3.9599,3.9693,3.9773,3.9856,3.9878,3.99,3.99,3.9559,3.9058,3.8652,3.795,3.6756,3.6187,3.5713,3.5078,3.4965,3.4908,3.5001,3.51,3.5192,3.5357,3.5451,3.5587,3.5632,3.5609,3.5694,3.5819,3.5853,3.5864,3.5876,3.5875,3.588,3.5883,3.5889,3.5894,3.5892,3.5894,3.5897,3.5883,3.5887,3.5895,3.5929,3.5942,3.5968,3.5971,3.5994,3.6016,3.5751,3.5388,3.5019,3.4842,3.4266,3.3005,3.2165,3.183,3.1417,3.1038,3.0833,3.0694,3.0694,3.0694,3.0694,3.0694,3.0694,3.0694,3.0713,3.0768,3.0858,3.1025,3.1483,3.1767,3.205,3.2205,3.2603,3.2068,3.1428,3.1393,3.1372,3.1025,3.0509,2.9908,2.9814,4.1255,4.1453,4.149,4.1402,4.1372,4.067,3.9915,3.9259,3.9841,3.9427,3.8201,3.8026,3.7741,3.7488,3.7333,3.7428,3.7521,3.7558,3.7595,3.7595,3.7595,3.7595,3.7595,3.7649,3.788,3.7966,3.8135,3.846,3.8755,3.8974,3.911,3.9272,3.9324,3.9439,3.9587,3.9658,3.9747,3.9826,3.9777,3.9739,3.9453,3.8955,3.8178,3.7315,3.6462,3.5761,3.5173,3.4908,3.4908,3.4908,3.4936,3.5019,3.5198,3.5315,3.5395,3.5483,3.5558,3.5621,3.5664,3.5771,3.5834,3.5878,3.5888,3.5888,3.5888,3.5897,3.5886,3.5889,3.5889,3.5889,3.5894,3.5894,3.5899,3.5883,3.5912,3.5923,3.5925,3.5931,3.5955,3.5958,3.5889,3.557,3.5364,3.5116,3.4843,3.3638,3.3056,3.2686,3.176,3.1239,3.1057,3.0814,3.0694,3.0694,3.0694,3.0694,3.0694,3.0694,3.0694,3.0713,3.0787,3.0749,3.0713,3.1133,3.1589,3.2244,3.2531,3.2222,3.2172,3.2316,3.22,3.1879,3.1278,3.0546,2.9908,4.0558,4.0611,4.0509,4.0446,4.0358,3.9665,3.8825,3.7958,3.8118,3.7892,3.7351,3.7251,3.7218,3.7119,3.7219,3.7316,3.7391,3.7521,3.7577,3.7595,3.7595,3.7595,3.7631,3.7757,3.788,3.8035,3.8219,3.8399,3.8649,3.8815,3.896,3.9124,3.9219,3.9363,3.9439,3.9502,3.9611,3.9728,3.9663,3.9407,3.8977,3.8176,3.7306,3.6519,3.5742,3.5306,3.4908,3.4908,3.4908,3.4908,3.4908,3.5038,3.5259,3.522,3.5312,3.543,3.5457,3.5546,3.5629,3.5708,3.5779,3.5838,3.5846,3.5876,3.5885,3.59,3.5889,3.5889,3.5889,3.5889,3.5889,3.5889,3.5889,3.5892,3.5894,3.5897,3.5883,3.5907,3.5912,3.5919,3.5927,3.5783,3.5581,3.5378,3.5095,3.4726,3.4355,3.3665,3.2101,3.1295,3.1346,3.1116,3.0752,3.0694,3.0694,3.0694,3.0694,3.0694,3.0694,3.0694,3.0694,3.071,3.0726,3.0929,3.1337,3.1857,3.2422,3.2975,3.2984,3.2996,3.3093,3.2799,3.2263,3.155,3.0603,3.9817,3.9537,3.9311,3.921,3.9077,3.8594,3.7984,3.7517,3.7133,3.6863,3.6705,3.6693,3.6751,3.6846,3.6985,3.72,3.7259,3.741,3.7521,3.7558,3.7577,3.7595,3.7685,3.7775,3.7739,3.788,3.8103,3.8302,3.8478,3.8728,3.8892,3.8989,3.911,3.9232,3.9285,3.9383,3.9471,3.9592,3.9526,3.9147,3.855,3.7721,3.6952,3.6177,3.5476,3.5022,3.4908,3.4908,3.4908,3.4936,3.4974,3.4983,3.511,3.5162,3.5166,3.5227,3.5304,3.5398,3.5531,3.5635,3.5721,3.5788,3.585,3.5891,3.5895,3.5891,3.5889,3.5889,3.5889,3.5889,3.5889,3.5889,3.5889,3.5892,3.5892,3.5894,3.5894,3.5897,3.5899,3.5902,3.5907,3.5873,3.573,3.5713,3.5444,3.5212,3.494,3.4764,3.3177,3.1958,3.184,3.1482,3.1181,3.0814,3.0694,3.0694,3.0694,3.0694,3.0694,3.0694,3.0694,3.071,3.0761,3.0831,3.0951,3.1193,3.1813,3.253,3.3162,3.3185,3.3491,3.3776,3.3127,3.2376,3.124,3.9016,3.8455,3.8065,3.7925,3.7853,3.742,3.7253,3.7198,3.6586,3.6293,3.6339,3.628,3.6402,3.6582,3.6722,3.6965,3.7142,3.722,3.7372,3.7503,3.7539,3.7576,3.7577,3.7613,3.7649,3.7703,3.7845,3.7984,3.8103,3.8399,3.8637,3.8788,3.8979,3.9142,3.9232,3.9285,3.9337,3.9421,3.9327,3.8996,3.8317,3.7589,3.6869,3.6128,3.542,3.4965,3.4908,3.4908,3.4908,3.4927,3.4973,3.5011,3.5038,3.5119,3.51,3.5122,3.5227,3.5314,3.5412,3.5577,3.5674,3.5771,3.585,3.5891,3.5872,3.5885,3.5883,3.5889,3.5889,3.5889,3.5889,3.5889,3.5889,3.5889,3.5889,3.5889,3.5889,3.5889,3.5889,3.5889,3.5892,3.5892,3.5894,3.5894,3.5695,3.5475,3.5273,3.5172,3.4768,3.3861,3.3315,3.2511,3.177,3.1385,3.0856,3.0694,3.0694,3.0694,3.0694,3.0694,3.0694,3.071,3.0645,3.0557,3.0684,3.086,3.1187,3.1821,3.2412,3.3053,3.3504,3.3753,3.3663,3.2826,3.168,3.8026,3.7634,3.7002,3.6871,3.6944,3.6107,3.597,3.6423,3.6109,3.6045,3.6152,3.6023,3.6067,3.6364,3.6623,3.6806,3.6886,3.7005,3.7163,3.7334,3.7391,3.7484,3.754,3.7595,3.7595,3.7631,3.7703,3.7774,3.7915,3.8103,3.8382,3.8728,3.8788,3.8946,3.9115,3.917,3.9224,3.9285,3.9173,3.8893,3.8288,3.7555,3.6804,3.6067,3.5295,3.504,3.4908,3.4908,3.4908,3.4917,3.4917,3.4964,3.502,3.5065,3.5073,3.5072,3.5163,3.5224,3.5331,3.5445,3.5554,3.566,3.5745,3.5843,3.5862,3.5885,3.59,3.5883,3.5886,3.5889,3.5889,3.5889,3.5889,3.5889,3.5889,3.5889,3.5889,3.5889,3.5889,3.5889,3.5889,3.5892,3.5892,3.5771,3.5504,3.5202,3.4744,3.4627,3.4378,3.4416,3.4453,3.3407,3.2241,3.1589,3.0914,3.0733,3.0694,3.0694,3.0694,3.0694,3.0694,3.0694,3.0638,3.0533,3.0477,3.0557,3.0932,3.1324,3.1787,3.2446,3.3157,3.356,3.3621,3.3137,3.184]}]]